[[{"header":{"parameterUnit":"m.s-1","parameterCategory":1,"la1":30.6,"la2":28.766,"lo1":-90.7593,"lo2":-88.6598,"dy":0.0162,"dx":0.0183,"nx":116,"ny":114,"refTime":"2023-09-07T06:00:00:Z","depth":0,"parameterNumber":2,"parameterNumberName":"U-component_of_WINDS"},"data":[0.0,0.0,0.0,0.0,0.0,0.0,0.0,0.0,0.0,0.0,0.0,0.0,0.0,0.0,0.0,0.0,0.0,0.0,0.0,0.0,0.0,0.0,0.0,0.0,0.0,0.0,0.0,0.0,0.0,0.0,0.0,0.0,0.0,0.0,0.0,0.0,0.0,0.0,0.0,0.0,0.0,0.0,0.0,0.0,0.0,0.0,0.0,0.0,0.0,0.0,0.0,0.0,0.0,0.0,0.0,0.0,0.0,0.0,0.0,0.0,0.0,0.0,0.0,0.0,0.0,0.0,0.0,0.0,0.0,0.0,0.0,0.0,0.0,0.0,0.0,0.0,0.0,0.0,0.0,0.0,0.0,0.0,0.0,0.0,0.0,0.0,0.0,0.0,0.0,0.0,0.0,0.0,0.0,0.0,0.0,0.0,0.0,0.0,0.0,0.0,0.0,0.0,0.0,0.0,0.0,0.0,0.0,0.0,0.0,0.0,0.0,0.0,0.0,0.0,0.0,0.0,0.0,0.0,0.0,0.0,0.0,0.0,0.0,0.0,0.0,0.0,0.0,0.0,0.0,0.0,0.0,0.0,0.0,0.0,0.0,0.0,0.0,0.0,0.0,0.0,0.0,0.0,0.0,0.0,0.0,0.0,0.0,0.0,0.0,0.0,0.0,0.0,0.0,0.0,0.0,0.0,0.0,0.0,0.0,0.0,0.0,0.0,0.0,0.0,0.0,0.0,0.0,0.0,0.0,0.0,0.0,0.0,0.0,0.0,0.0,0.0,0.0,0.0,0.0,0.0,0.0,0.0,0.0,0.0,0.0,0.0,0.0,0.0,0.0,0.0,0.0,0.0,0.0,0.0,0.0,0.0,0.0,0.0,0.0,0.0,0.0,0.0,0.0,0.0,0.0,0.0,0.0,0.0,0.0,0.0,0.0,0.0,0.0,0.0,0.0,0.0,0.0,0.0,0.0,0.0,0.0,0.0,0.0,0.0,0.0,0.0,0.0,0.0,0.0,0.0,0.0,0.0,0.0,0.0,0.0,0.0,0.0,0.0,0.0,0.0,0.0,0.0,0.0,0.0,0.0,0.0,0.0,0.0,0.0,0.0,0.0,0.0,0.0,0.0,0.0,0.0,0.0,0.0,0.0,0.0,0.0,0.0,0.0,0.0,0.0,0.0,0.0,0.0,0.0,0.0,0.0,0.0,0.0,0.0,0.0,0.0,0.0,0.0,0.0,0.0,0.0,0.0,0.0,0.0,0.0,0.0,0.0,0.0,0.0,0.0,0.0,0.0,0.0,0.0,0.0,0.0,0.0,0.0,0.0,0.0,0.0,0.0,0.0,0.0,0.0,0.0,0.0,0.0,0.0,0.0,0.0,0.0,0.0,0.0,0.0,0.0,0.0,0.0,0.0,0.0,0.0,0.0,0.0,0.0,0.0,0.0,0.0,0.0,0.0,0.0,0.0,0.0,0.0,0.0,0.0,0.0,0.0,0.0,0.0,0.0,0.0,0.0,0.0,0.0,0.0,0.0,0.0,0.0,0.0,0.0,0.0,0.0,0.0,0.0,0.0,0.0,0.0,0.0,0.0,0.0,0.0,0.0,0.0,0.0,0.0,0.0,0.0,0.0,0.0,0.0,0.0,0.0,0.0,0.0,0.0,0.0,0.0,0.0,0.0,0.0,0.0,0.0,0.0,0.0,0.0,0.0,0.0,0.0,0.0,0.0,0.0,0.0,0.0,0.0,0.0,0.0,0.0,0.0,0.0,0.0,0.0,0.0,0.0,0.0,0.0,0.0,0.0,0.0,0.0,0.0,0.0,0.0,0.0,0.0,0.0,0.0,0.0,0.0,0.0,0.0,0.0,0.0,0.0,0.0,0.0,0.0,0.0,0.0,0.0,0.0,0.0,0.0,0.0,0.0,0.0,0.0,0.0,0.0,0.0,0.0,0.0,0.0,0.0,0.0,0.0,0.0,0.0,0.0,0.0,0.0,0.0,0.0,0.0,0.0,0.0,0.0,0.0,0.0,0.0,0.0,0.0,0.0,0.0,0.0,0.0,0.0,0.0,0.0,0.0,0.0,0.0,0.0,0.0,0.0,0.0,0.0,0.0,0.0,0.0,0.0,0.0,0.0,0.0,0.0,0.0,0.0,0.0,0.0,0.0,0.0,0.0,0.0,0.0,0.0,0.0,0.0,0.0,0.0,0.0,0.0,0.0,0.0,0.0,0.0,0.0,0.0,0.0,0.0,0.0,0.0,0.0,0.0,0.0,0.0,0.0,0.0,0.0,0.0,0.0,0.0,0.0,0.0,0.0,0.0,0.0,0.0,0.0,0.0,0.0,0.0,0.0,0.0,0.0,0.0,0.0,0.0,0.0,0.0,0.0,0.0,0.0,0.0,0.0,0.0,0.0,0.0,0.0,0.0,0.0,0.0,0.0,0.0,0.0,0.0,0.0,0.0,0.0,0.0,0.0,0.0,0.0,0.0,0.0,0.0,0.0,0.0,0.0,0.0,0.0,0.0,0.0,0.0,0.0,0.0,0.0,0.0,0.0,0.0,0.0,0.0,0.0,0.0,0.0,0.0,0.0,0.0,0.0,0.0,0.0,0.0,0.0,0.0,0.0,0.0,0.0,0.0,0.0,0.0,0.0,0.0,0.0,0.0,0.0,0.0,0.0,0.0,0.0,0.0,0.0,0.0,0.0,0.0,0.0,0.0,0.0,0.0,0.0,0.0,0.0,0.0,0.0,0.0,0.0,0.0,0.0,0.0,0.0,0.0,0.0,0.0,0.0,0.0,0.0,0.0,0.0,0.0,0.0,0.0,0.0,0.0,0.0,0.0,0.0,0.0,0.0,0.0,0.0,0.0,0.0,0.0,0.0,0.0,0.0,0.0,0.0,0.0,0.0,0.0,0.0,0.0,0.0,0.0,0.0,0.0,0.0,0.0,0.0,0.0,0.0,0.0,0.0,0.0,0.0,0.0,0.0,0.0,0.0,0.0,0.0,0.0,0.0,0.0,0.0,0.0,0.0,0.0,0.0,0.0,0.0,0.0,0.0,0.0,0.0,0.0,0.0,0.0,0.0,0.0,0.0,0.0,0.0,0.0,0.0,0.0,0.0,0.0,0.0,0.0,0.0,0.0,0.0,0.0,0.0,0.0,0.0,0.0,0.0,0.0,0.0,0.0,0.0,0.0,0.0,0.0,0.0,0.0,0.0,0.0,0.0,0.0,0.0,0.0,0.0,0.0,0.0,0.0,0.0,0.0,0.0,0.0,0.0,0.0,0.0,0.0,0.0,0.0,0.0,0.0,0.0,0.0,0.0,0.0,0.0,0.0,0.0,0.0,0.0,0.0,0.0,0.0,0.0,0.0,0.0,0.0,0.0,0.0,0.0,0.0,0.0,0.0,0.0,0.0,0.0,0.0,0.0,0.0,0.0,0.0,0.0,0.0,0.0,0.0,0.0,0.0,0.0,0.0,0.0,0.0,0.0,0.0,0.0,0.0,0.0,0.0,0.0,0.0,0.0,0.0,0.0,0.0,0.0,0.0,0.0,0.0,0.0,0.0,0.0,0.0,0.0,0.0,0.0,0.0,0.0,0.0,0.0,0.0,0.0,0.0,0.0,0.0,0.0,0.0,0.0,0.0,0.0,0.0,0.0,0.0,0.0,0.0,0.0,0.0,0.0,0.0,0.0,0.0,0.0,0.0,0.0,0.0,0.0,0.0,0.0,0.0,0.0,0.0,0.0,0.0,0.0,0.0,0.0,0.0,0.0,0.0,0.0,0.0,0.0,0.0,0.0,0.0,0.0,0.0,0.0,0.0,0.0,0.0,0.0,0.0,0.0,0.0,0.0,0.0,0.0,0.0,0.0,0.0,0.0,0.0,0.0,0.0,0.0,0.0,0.0,0.0,0.0,0.0,0.0,0.0,0.0,0.0,0.0,0.0,0.0,0.0,0.0,0.0,0.0,0.0,0.0,0.0,0.0,0.0,0.0,0.0,0.0,0.0,0.0,0.0,0.0,0.0,0.0,0.0,0.0,0.0,0.0,0.0,0.0,0.0,0.0,0.0,0.0,0.0,0.0,0.0,0.0,0.0,0.0,0.0,0.0,0.0,0.0,0.0,0.0,0.0,0.0,0.0,0.0,0.0,0.0,0.0,0.0,0.0,0.0,0.0,0.0,0.0,0.0,0.0,0.0,0.0,0.0,0.0,0.0,0.0,0.0,0.0,0.0,0.0,0.0,0.0,0.0,0.0,0.0,0.0,0.0,0.0,0.0,0.0,0.0,0.0,0.0,0.0,0.0,0.0,0.0,0.0,0.0,0.0,0.0,0.0,0.0,0.0,0.0,0.0,0.0,0.0,0.0,0.0,0.0,0.0,0.0,0.0,0.0,0.0,0.0,0.0,0.0,0.0,0.0,0.0,0.0,0.0,0.0,0.0,0.0,0.0,0.0,0.0,0.0,0.0,0.0,0.0,0.0,0.0,0.0,0.0,0.0,0.0,0.0,0.0,0.0,0.0,0.0,0.0,0.0,0.0,0.0,0.0,0.0,0.0,0.0,0.0,0.0,0.0,0.0,0.0,0.0,0.0,0.0,0.0,0.0,0.0,0.0,0.0,0.0,0.0,0.0,0.0,0.0,0.0,0.0,0.0,0.0,0.0,0.0,0.0,0.0,0.0,0.0,0.0,0.0,0.0,0.0,0.0,0.0,0.0,0.0,0.0,0.0,0.0,0.0,0.0,0.0,0.0,0.0,0.0,0.0,0.0,0.0,0.0,0.0,0.0,0.0,0.0,0.0,0.0,0.0,0.0,0.0,0.0,0.0,0.0,0.0,0.0,0.0,0.0,0.0,0.0,0.0,0.0,0.0,0.0,0.0,0.0,0.0,0.0,0.0,0.0,0.0,0.0,0.0,0.0,0.0,0.0,0.0,0.0,0.0,0.0,0.0,0.0,0.0,0.0,0.0,0.0,0.0,0.0,0.0,0.0,0.0,0.0,0.0,0.0,0.0,0.0,0.0,0.0,0.0,0.0,0.0,0.0,0.0,0.0,0.0,0.0,0.0,0.0,0.0,0.0,0.0,0.0,0.0,0.0,0.0,0.0,0.0,0.0,0.0,0.0,0.0,0.0,0.0,0.0,0.0,0.0,0.0,0.0,0.0,0.0,0.0,0.0,0.0,0.0,0.0,0.0,0.0,0.0,0.0,0.0,0.0,0.0,0.0,0.0,0.0,0.0,0.0,0.0,0.0,0.0,0.0,0.0,0.0,0.0,0.0,0.0,0.0,0.0,0.0,0.0,0.0,0.0,0.0,0.0,0.0,0.0,0.0,0.0,0.0,0.0,0.0,0.0,0.0,0.0,0.0,0.0,0.0,0.0,0.0,0.0,0.0,0.0,0.0,0.0,0.0,0.0,0.0,0.0,0.0,0.0,0.0,0.0,0.0,0.0,0.0,0.0,0.0,0.0,0.0,0.0,0.0,0.0,0.0,0.0,0.0,0.0,0.0,0.0,0.0,0.0,0.0,0.0,0.0,0.0,0.0,0.0,0.0,0.0,0.0,0.0,0.0,0.0,0.0,0.0,0.0,0.0,0.0,0.0,0.0,0.0,0.0,0.0,0.0,0.0,0.0,0.0,0.0,0.0,0.0,0.0,0.0,0.0,0.0,0.0,0.0,0.0,0.0,0.0,0.0,0.0,0.0,0.0,0.0,0.0,0.0,0.0,0.0,0.0,0.0,0.0,0.0,0.0,0.0,0.0,0.0,0.0,0.0,0.0,0.0,0.0,0.0,0.0,0.0,0.0,0.0,0.0,0.0,0.0,0.0,0.0,0.0,0.0,0.0,0.0,0.0,0.0,0.0,0.0,0.0,0.0,0.0,0.0,0.0,0.0,0.0,0.0,0.0,0.0,0.0,0.0,0.0,0.0,0.0,0.0,0.0,0.0,0.0,0.0,0.0,0.0,0.0,0.0,0.0,0.0,0.0,0.0,0.0,0.0,0.0,0.0,0.0,0.0,0.0,0.0,0.0,0.0,0.0,0.0,0.0,0.0,0.0,0.0,0.0,0.0,0.0,0.0,0.0,0.0,0.0,0.0,0.0,0.0,-3.4529,0.0,0.0,0.0,0.0,0.0,0.0,0.0,0.0,0.0,0.0,0.0,0.0,0.0,0.0,0.0,0.0,0.0,0.0,0.0,0.0,0.0,0.0,0.0,0.0,0.0,0.0,0.0,0.0,0.0,0.0,0.0,0.0,0.0,0.0,0.0,0.0,0.0,0.0,-0.2994,-0.5931,-1.5521,-3.112,-3.1502,-3.0942,-2.9541,0.0,0.0,0.0,0.0,0.0,0.0,0.0,0.0,0.0,0.0,0.0,0.0,0.0,0.0,0.0,0.0,0.0,0.0,0.0,0.0,0.0,0.0,0.0,0.0,0.0,0.0,0.0,0.0,0.0,0.0,0.0,0.0,0.0,0.0,0.0,0.0,0.0,0.0,0.0,0.0,0.0,0.0,0.0,0.0,0.0,0.0,0.0,0.0,0.0,0.0,0.0,0.0,0.0,0.0,0.0,0.0,0.0,0.0,0.0,0.0,0.0,0.0,0.0,0.0,0.0,0.0,0.0,0.0,0.0,0.0,0.0,-3.6925,0.0,0.0,0.0,0.0,0.0,0.0,0.0,0.0,0.0,0.0,0.0,0.0,0.0,0.0,0.0,0.0,0.0,0.0,0.0,0.0,0.0,0.0,0.0,1.6535,1.5556,1.3477,1.4496,1.5107,0.0,0.0,0.0,0.0,0.0,0.0,2.2493,1.9276,1.0123,-0.5157,-1.0017,-2.066,-3.6538,-3.7466,-3.6227,-3.313,-3.2829,0.0,0.0,0.0,0.0,0.0,0.0,0.0,0.0,0.0,0.0,0.0,0.0,0.0,0.0,0.0,0.0,0.0,0.0,0.0,0.0,0.0,0.0,0.0,0.0,0.0,0.0,0.0,0.0,0.0,0.0,0.0,0.0,0.0,0.0,0.0,0.0,0.0,0.0,0.0,0.0,0.0,0.0,0.0,0.0,0.0,0.0,0.0,0.0,0.0,0.0,0.0,0.0,0.0,0.0,0.0,0.0,0.0,0.0,0.0,0.0,0.0,0.0,0.0,-3.944,-3.9954,-4.1137,-4.1501,-4.2467,-4.3641,-4.198,-4.1052,-4.0595,0.0,0.0,0.0,0.0,0.0,0.0,0.0,0.0,0.0,0.0,0.0,0.0,0.0,0.0,0.0,0.0,0.0,0.0,0.0,0.0,0.0,0.0,0.9384,0.6507,0.28,0.3236,0.4361,0.5954,0.0,0.0,0.0,0.0,0.0,2.2961,1.4256,0.5128,-0.4192,-2.329,-3.4668,-3.8537,-4.0062,-4.0371,-3.957,-3.7488,-3.6186,-3.5379,0.0,0.0,0.0,0.0,0.0,0.0,0.0,0.0,0.0,0.0,0.0,0.0,0.0,0.0,0.0,0.0,0.0,0.0,0.0,0.0,0.0,0.0,0.0,0.0,0.0,0.0,0.0,0.0,0.0,0.0,0.0,0.0,0.0,0.0,0.0,0.0,0.0,0.0,0.0,0.0,0.0,-3.3727,-3.79,0.0,0.0,0.0,0.0,0.0,0.0,0.0,0.0,0.0,0.0,0.0,0.0,0.0,-3.9218,-3.9245,-4.043,-4.0821,-4.0289,-4.2169,-4.2881,-4.2598,-4.4106,-4.4989,-4.5243,-4.5732,0.0,-4.2861,-4.137,0.0,0.0,0.0,0.0,0.0,0.0,0.0,0.0,0.0,0.0,0.0,0.0,0.0,0.0,0.0,0.0,0.0,0.0,0.0,0.0,0.0,0.1892,-0.2027,-0.5745,-0.4685,-0.3037,-0.1136,0.4621,0.0,0.0,0.0,2.0792,2.1872,1.2642,-0.0,-1.5967,-3.187,-3.994,-4.055,-4.1259,-4.1418,-4.1079,-4.029,-3.9073,-3.7385,-3.4696,0.0,0.0,0.0,0.0,0.0,0.0,0.0,0.0,0.0,0.0,0.0,0.0,0.0,0.0,0.0,0.0,0.0,0.0,0.0,0.0,0.0,0.0,0.0,0.0,0.0,0.0,0.0,0.0,0.0,0.0,0.0,0.0,0.0,0.0,0.0,0.0,0.0,0.0,0.0,-3.047,-3.7273,-3.934,-3.9298,-3.8219,0.0,0.0,0.0,0.0,0.0,0.0,0.0,0.0,0.0,-3.9441,-4.0398,-4.0786,-4.0561,-4.2109,-4.2859,-4.2921,-4.3846,-4.4542,-4.4889,-4.5653,-4.6096,-4.624,-4.6658,-4.622,-4.5229,-4.4181,-4.2365,-4.0083,0.0,0.0,0.0,0.0,-3.475,-3.4922,0.0,0.0,0.0,0.0,0.0,0.0,0.0,0.0,0.0,0.0,0.0,0.0,-0.1076,-0.6304,-1.0991,-1.4818,-1.3429,-1.1313,-0.8932,-0.2001,0.455,1.0294,1.5845,1.8707,1.8532,0.7245,-0.8338,-2.8237,-3.7315,-4.1554,-4.1181,-4.1604,-4.1675,-4.1437,-4.1609,-4.0707,-3.8921,-3.6679,-3.3407,-2.942,0.0,0.0,0.0,0.0,0.0,0.0,0.0,0.0,0.0,0.0,0.0,0.0,0.0,0.0,0.0,0.0,0.0,0.0,0.0,0.0,0.0,0.0,0.0,0.0,0.0,0.0,0.0,0.0,0.0,0.0,0.0,0.0,0.0,0.0,0.0,0.0,0.0,-3.5172,-4.0346,-4.0862,-4.1702,-4.1007,0.0,0.0,0.0,0.0,0.0,0.0,-4.0087,-4.0288,-4.0848,-4.2058,-4.2266,-4.2473,-4.2633,-4.3831,-4.4695,-4.5153,-4.5185,-4.5677,-4.6518,-4.6546,-4.6653,-4.6777,-4.6802,-4.6557,-4.6212,-4.5672,-4.3956,-4.1577,-3.9818,-3.8677,-3.7883,-3.7064,-3.6473,-3.6353,0.0,0.0,0.0,0.0,0.0,0.0,0.0,0.0,0.0,0.0,0.0,-0.0173,-0.9524,-1.5655,-2.0982,-2.5711,-2.4897,-2.2551,-1.8738,-1.019,-0.1811,0.5966,1.2214,1.4361,1.1963,-0.5985,-2.2141,-3.6128,-3.9305,-4.0372,-3.945,-4.1046,-4.178,-4.1764,-4.113,-4.0765,-4.0434,-3.8365,-3.5916,-3.3072,-2.9121,0.0,0.0,0.0,0.0,0.0,0.0,0.0,0.0,0.0,0.0,0.0,0.0,0.0,0.0,0.0,0.0,0.0,0.0,0.0,0.0,0.0,0.0,0.0,0.0,0.0,0.0,0.0,0.0,0.0,0.0,0.0,0.0,0.0,0.0,0.0,0.0,0.0,0.0,-4.3692,-4.4983,0.0,0.0,0.0,0.0,-3.9732,-4.0578,-4.166,-4.3115,-4.2321,-4.2815,-4.5091,-4.4208,-4.4423,-4.592,-4.6039,-4.6071,-4.6103,-4.6352,-4.6438,-4.6518,-4.6703,-4.6768,-4.6776,-4.6776,-4.6018,-4.4708,-4.4675,-4.4105,-4.2959,-4.071,-3.9329,-3.8444,-3.7643,-3.6417,-3.5125,0.0,0.0,0.0,0.0,0.0,0.0,0.0,0.0,1.3893,0.5438,0.0964,-0.5364,-1.568,-2.2091,-2.6765,-2.9555,-2.8854,-2.626,-2.1513,-1.4095,-0.6775,0.0117,0.5475,0.3989,-0.518,-1.5177,-2.5978,-3.759,-3.8625,-3.9189,-3.9296,-3.9335,-3.9152,-3.8784,-3.9063,-3.909,-3.8896,-3.8833,-3.68,-3.3392,-3.1193,-2.7748,0.0,0.0,0.0,0.0,0.0,0.0,0.0,0.0,0.0,0.0,0.0,0.0,0.0,0.0,0.0,0.0,0.0,0.0,0.0,0.0,0.0,0.0,0.0,0.0,0.0,0.0,0.0,0.0,0.0,0.0,0.0,0.0,0.0,0.0,0.0,0.0,0.0,-4.5364,-4.7338,0.0,-4.4175,-4.3099,-4.2489,-4.2252,-4.3386,-4.4536,-4.5534,-4.5111,-4.5489,-4.6782,-4.6009,-4.5536,-4.5517,-4.5613,-4.5668,-4.5652,-4.5749,-4.5864,-4.5999,-4.5587,-4.5111,-4.4615,-4.4095,-4.3344,-4.2401,-4.2395,-4.2219,-4.1783,-3.9863,-3.8547,-3.7652,-3.6784,-3.5769,-3.4735,0.0,0.0,0.0,0.0,0.0,0.0,0.0,0.0,1.4183,0.3506,-0.1316,-0.8228,-1.9974,-2.5966,-2.9615,-3.0819,-3.0028,-2.734,-2.2278,-1.6318,-1.0239,-0.4104,-0.2151,-0.6162,-1.6705,-2.254,-2.9338,-3.7216,-3.7575,-3.7537,-3.7123,-3.6757,-3.6544,-3.6441,-3.6779,-3.7081,-3.7428,-3.8058,-3.6603,-3.3776,-3.2544,-2.9297,-2.5053,0.0,0.0,0.0,0.0,0.0,0.0,0.0,0.0,0.0,0.0,0.0,0.0,0.0,0.0,0.0,0.0,0.0,0.0,0.0,0.0,0.0,0.0,0.0,0.0,0.0,0.0,0.0,0.0,0.0,0.0,0.0,0.0,0.0,0.0,0.0,-4.6621,-4.6005,-4.864,-4.9197,-4.5812,-4.5648,-4.5483,-4.4976,-4.5872,-4.6667,-4.7141,-4.6516,-4.6515,-4.7331,-4.6548,-4.5962,-4.5685,-4.5821,-4.5839,-4.5839,-4.5358,-4.5193,-4.528,-4.4265,-4.3504,-4.3017,-4.2492,-4.1765,-4.0779,-4.0564,-4.0115,-3.9575,-3.898,-3.7932,-3.6796,-3.6185,-3.5082,-3.3784,0.0,0.0,0.0,0.0,0.0,0.0,0.0,1.9295,1.4902,0.1731,-0.1858,-0.8469,-2.2307,-2.7186,-2.9578,-2.9838,-2.876,-2.6145,-2.1632,-1.7166,-1.2205,-0.6552,-1.0394,-1.5434,-2.1312,-2.805,-3.2774,-3.5372,-3.6292,-3.5392,-3.2833,-3.3417,-3.4129,-3.4937,-3.4336,-3.4898,-3.6245,-3.5955,-3.5307,-3.4388,-3.3129,-3.0144,-2.6453,0.0,0.0,0.0,0.0,0.0,0.0,0.0,0.0,0.0,0.0,0.0,0.0,0.0,0.0,0.0,0.0,0.0,0.0,0.0,0.0,0.0,0.0,0.0,0.0,0.0,0.0,0.0,0.0,0.0,0.0,0.0,0.0,0.0,-4.0204,-4.5284,-4.8075,-4.5752,-4.8886,-4.9763,-4.6041,-4.7014,-4.7841,-4.7825,-4.7825,-4.7808,-4.7851,-4.6283,-4.5839,-4.6752,-4.5868,-4.5884,-4.6752,-4.6718,-4.6684,-4.6667,-4.5196,-4.4502,-4.4451,-4.2946,-4.2255,-4.2241,-4.2224,-4.1418,-3.9991,-3.9204,-3.7966,-3.6667,-3.8092,-3.748,-3.5902,-3.5929,-3.4403,-3.2239,0.0,0.0,0.0,0.0,0.0,0.0,0.0,1.9576,1.5365,0.2164,-0.0393,-0.637,-2.0535,-2.4614,-2.651,-2.6916,-2.573,-2.4153,-2.228,-1.7606,-1.3834,-1.1341,-1.7537,-2.2039,-2.4091,-2.8974,-3.192,-3.2822,-3.3029,-3.242,-3.109,-3.1115,-3.1454,-3.2032,-3.1458,-3.2056,-3.3436,-3.2662,-3.2326,-3.2385,-3.3087,-3.148,-2.8569,0.0,0.0,0.0,0.0,0.0,0.0,0.0,0.0,0.0,0.0,0.0,0.0,0.0,0.0,0.0,0.0,0.0,0.0,0.0,0.0,0.0,0.0,0.0,0.0,0.0,0.0,0.0,0.0,0.0,0.0,0.0,0.0,-4.2682,-4.3999,-4.6493,-4.7903,-4.7144,-4.8483,-4.8427,-4.5669,-4.5783,-4.6077,-4.6171,-4.6138,-4.6185,-4.6287,-4.6346,-4.6279,-4.6024,-4.574,-4.574,-4.6007,-4.4908,-4.4333,-4.4333,-4.3369,-4.2912,-4.2895,-4.1931,-4.1474,-4.1476,-4.0934,-3.9821,-3.8424,-3.82,-3.7166,-3.5829,-3.62,-3.521,-3.3616,-3.427,-3.3678,-3.2701,0.0,0.0,0.0,0.0,0.0,0.0,0.0,1.915,1.5699,0.4047,0.1578,-0.3806,-1.6191,-2.0701,-2.2861,-2.2879,-2.2673,-2.1237,-1.8106,-1.4204,-1.2581,-1.379,-1.9787,-2.3983,-2.5831,-2.9076,-3.0736,-3.0675,-3.064,-3.0136,-2.9219,-2.8984,-2.9139,-2.9548,-2.9108,-2.9493,-3.0369,-2.958,-2.9275,-2.9481,-3.0325,-3.0129,-2.9275,-2.874,-2.8231,-2.7819,-2.8161,-2.7492,-2.6512,-2.6837,0.0,0.0,0.0,0.0,0.0,0.0,0.0,0.0,0.0,0.0,0.0,0.0,0.0,0.0,0.0,0.0,0.0,0.0,0.0,0.0,0.0,0.0,0.0,0.0,-4.1743,-4.429,-4.5686,-4.6995,-4.7498,-4.6765,-4.6812,-4.6287,-4.4619,-4.4166,-4.4009,-4.4134,-4.4151,-4.4202,-4.4265,-4.4653,-4.4705,-4.4282,-4.4282,-4.4282,-4.4282,-4.3386,-4.2946,-4.2929,-4.2185,-4.183,-4.1813,-4.1068,-4.073,0.0,-4.0273,-3.9389,-3.8241,-3.7907,-3.7063,0.0,0.0,0.0,0.0,0.0,-3.3132,-3.3054,0.0,0.0,0.0,0.0,0.0,0.0,0.0,1.8412,1.6066,0.7009,0.4286,-0.041,-0.9808,-1.4965,-1.7512,-1.692,-1.7913,-1.6343,-1.1005,-0.8762,-0.9902,-1.511,-1.921,-2.3025,-2.6606,-2.8493,-2.9239,-2.8813,-2.8802,-2.8272,-2.73,-2.6983,-2.7045,-2.7411,-2.7024,-2.7067,-2.7402,-2.6789,-2.6442,-2.6273,-2.6096,-2.7243,-2.887,-2.7759,-2.7774,-2.8568,-2.9272,-2.8619,-2.7637,-2.8789,0.0,0.0,0.0,0.0,0.0,0.0,0.0,0.0,0.0,0.0,0.0,0.0,0.0,0.0,0.0,0.0,0.0,0.0,0.0,0.0,0.0,0.0,0.0,0.0,-4.3289,-4.461,-4.5581,-4.6445,-4.6386,-4.4957,-4.4253,-4.3517,-4.2618,-4.2029,-4.1709,-4.1773,-4.1845,-4.1963,-4.2072,0.0,0.0,0.0,0.0,-4.2286,-4.2286,-4.2219,-4.2168,-4.2168,-4.1424,-4.1085,-4.1052,-4.0392,-4.0037,-3.9952,-4.0037,-3.9527,-3.8499,-3.7931,-3.7105,-3.6215,-3.5582,-3.4872,-3.4024,-3.3108,-3.2985,0.0,0.0,0.0,0.0,0.0,0.0,0.0,0.0,1.8441,1.6987,1.0568,0.9007,0.5745,-0.1572,-0.4399,-0.5553,-0.5054,-0.4238,-0.4276,-0.5552,-0.5745,-0.9861,-1.8887,-2.0809,-2.3028,-2.6004,-2.7296,-2.765,-2.7082,-2.6914,-2.6371,-2.5494,-2.4895,-2.5004,-2.5638,-2.4497,-2.4714,-2.5862,-2.4658,-2.4442,-2.4866,-2.3778,-2.4819,-2.7058,-2.7248,-2.8398,-3.0021,-3.0141,-3.0404,-3.0678,-3.051,-2.8503,-2.5804,-2.4505,-2.263,0.0,0.0,0.0,0.0,0.0,0.0,0.0,0.0,0.0,0.0,0.0,0.0,0.0,0.0,0.0,0.0,0.0,0.0,0.0,-4.1798,-4.3262,-4.3786,-4.2808,-4.2344,-4.2208,-4.2457,-4.1878,-4.0702,-3.872,-3.8424,-3.8601,-3.9357,-3.9423,-3.9715,-4.0473,-4.111,0.0,-4.1441,-4.1982,-4.2286,-4.2286,-4.1711,-4.1407,-4.1407,0.0,0.0,-4.029,-4.0155,-3.9766,-3.9242,-3.9817,-3.8667,-3.6361,-3.6814,-3.5864,-3.4089,-3.4228,-3.4703,-3.507,-3.4118,-3.4286,-3.519,0.0,0.0,0.0,0.0,0.0,0.0,0.0,1.7639,1.7305,1.3769,1.2316,1.0248,0.6667,0.3562,0.1981,0.2508,0.39,0.5581,0.747,0.0398,-0.7288,-1.4861,-1.9515,-2.3161,-2.5831,-2.6138,-2.6175,-2.6002,-2.5765,-2.5304,-2.4639,-2.4189,-2.3992,-2.3914,-2.3047,-2.2912,-2.3271,-2.2061,-2.1628,-2.1675,-2.0927,-2.1369,-2.2693,-2.4694,-2.6674,-2.8552,-2.9103,-2.9497,-2.9659,-2.9488,-2.7788,-2.5378,-2.3358,-2.1734,-2.0167,0.0,0.0,0.0,0.0,0.0,0.0,0.0,0.0,0.0,0.0,0.0,0.0,0.0,0.0,-3.631,0.0,0.0,-4.0901,-4.2353,-4.2055,-4.1365,-4.051,-3.9137,-3.8467,-3.9328,-3.8925,-3.7857,-3.5854,-3.5837,-3.5984,-3.607,-3.6461,-3.7077,-3.7855,-3.8619,-3.9182,-3.9513,-4.0257,-4.0646,-4.0646,-4.0646,-4.0646,-4.0629,-3.9884,-3.9529,-3.9529,-3.9157,-3.8802,-3.8464,-3.8472,-3.7581,-3.6247,-3.5912,-3.4852,-3.3544,-3.371,-3.4085,-3.4472,-3.3921,-3.4046,-3.4639,0.0,0.0,0.0,0.0,0.0,0.0,0.0,1.7142,1.7629,1.6739,1.5297,1.4282,1.4085,1.0873,0.9049,0.9794,1.0845,1.3584,1.8508,0.6243,-0.3936,-1.0064,-1.7223,-2.2453,-2.5387,-2.51,-2.5069,-2.5383,-2.5037,-2.4667,-2.4288,-2.3914,-2.333,-2.2548,-2.1978,-2.1422,-2.0814,-1.9627,-1.8842,-1.835,-1.8211,-1.7963,-1.8081,-2.0704,-2.3328,-2.5755,-2.6829,-2.7043,-2.6806,-2.7135,-2.5604,-2.3275,-2.1234,-1.977,-1.8454,-1.6423,-1.6539,0.0,0.0,0.0,0.0,0.0,0.0,0.0,0.0,-3.168,-3.3179,-3.5283,-3.7146,-3.8685,-3.985,-4.0464,-4.1037,-4.1785,-4.0062,-3.8504,-3.7846,-3.6108,-3.5036,-3.548,-3.5691,-3.5171,-3.3739,-3.3607,-3.3553,-3.3257,-3.3634,-3.4374,-3.5632,-3.6023,-3.6688,-3.7841,-3.8345,-3.8633,-3.8768,-3.936,-3.9648,-3.9648,-3.9056,-3.8785,-3.8768,-3.7997,-3.7595,-3.7396,-3.6256,-3.5869,-3.5896,-3.4595,-3.3678,-3.314,-3.3102,-3.3104,-3.314,-3.3395,-3.3484,-3.3691,0.0,0.0,0.0,0.0,0.0,0.0,0.0,0.0,1.8745,1.9429,1.8889,1.8737,1.9515,1.9154,1.9378,2.0623,2.0298,1.9114,1.6958,0.8372,-0.1094,-1.1061,-1.5289,-1.943,-2.3762,-2.4375,-2.4851,-2.5303,-2.4683,-2.4356,-2.4271,-2.3294,-2.2591,-2.2107,-2.0942,-2.0184,-1.9669,-1.8108,-1.7065,-1.6478,-1.6251,-1.575,-1.521,-1.505,-1.8089,-2.2579,-2.3119,-2.3382,-2.3537,-2.3895,-2.1668,-1.8619,-1.8355,-1.6774,-1.4938,-1.4767,-1.4656,-1.4599,-1.4698,-1.7282,-2.0871,-2.5105,-2.7575,-3.0134,0.0,-3.6023,-3.7003,-3.9059,-3.9715,-3.9918,-4.0055,-4.004,-3.9502,-3.8141,-3.7168,-3.5798,-3.3816,-3.2822,-3.1825,-3.0472,-3.206,-3.2883,-3.2122,-3.1131,-3.1101,-3.2281,-3.1457,-3.2273,-3.5522,-3.459,-3.5184,-3.7807,-3.733,-3.7347,-3.8024,-3.8108,-3.8159,-3.8159,-3.8075,-3.8024,-3.8024,-3.7236,-3.6572,-3.5795,-3.33,-3.2551,-3.3099,-3.222,-3.1807,-3.1735,-3.1703,-3.1707,-3.1898,-3.3066,-3.3484,-3.3506,0.0,0.0,0.0,0.0,0.0,0.0,0.0,0.0,0.0,2.0094,1.9195,1.8995,2.0407,2.0799,2.1457,2.2692,2.2252,2.0866,1.834,1.0325,0.2939,-0.3181,-0.9777,-1.4779,-1.7879,-2.0486,-2.2125,-2.2803,-2.3694,-2.3907,-2.3451,-2.2384,-2.1391,-2.0431,-1.9301,-1.812,-1.6876,-1.5557,-1.4341,-1.3313,-1.2745,-1.277,-1.304,-1.2766,-1.3773,-1.5495,-1.7186,-1.8022,0.0,-1.9622,-1.8887,-1.7234,-1.5737,-1.459,-1.346,-1.1713,-1.1624,-1.2767,-1.5879,-1.9106,-2.2591,-2.6616,-2.9944,-3.3005,-3.5912,-3.7118,-3.7934,-3.921,-3.9496,-3.9212,-3.8302,-3.7694,-3.6812,0.0,-3.3571,-3.2093,-3.1124,-2.9447,-2.8446,-2.8634,-2.8711,-2.8926,-2.9358,-2.916,-2.9336,-2.9923,-2.9551,-3.0434,-3.3115,-3.3019,-3.3616,-3.5239,-3.5808,-3.6265,-3.6569,-3.7015,-3.7269,-3.7253,-3.6422,-3.6224,-3.657,-3.5844,-3.4939,-3.3761,-3.1844,-3.096,-3.087,-3.055,-3.0366,-3.0396,-3.0382,-3.0397,-3.044,-3.1043,-3.1722,-3.2344,0.0,0.0,0.0,0.0,0.0,0.0,0.0,0.0,0.0,0.0,1.8238,1.7401,1.8669,1.9028,2.0258,2.2862,2.2047,2.0694,1.9072,1.2525,0.7032,0.325,-0.3596,-0.8513,-1.1103,-1.3903,-1.5573,-1.6045,-1.7178,-1.7487,-1.6952,-1.6202,-1.5622,-1.5178,-1.4646,-1.3815,-1.2741,-1.1593,-1.0729,-0.9993,-0.8838,-0.8747,-0.9315,-0.8876,-0.8303,-0.8051,-1.0814,-1.2078,-1.2652,-1.3515,-1.3508,-1.2721,-1.0592,-0.9991,-0.9674,-0.807,-0.9177,-1.1952,-1.6642,-2.0442,-2.3971,-2.789,-3.1471,-3.4439,-3.6007,-3.6858,-3.7536,-3.8254,-3.7967,-3.7085,-3.5482,-3.4408,-3.3201,-3.1471,-2.9511,-2.8213,-2.794,-2.6126,-2.5362,-2.6878,-2.6058,-2.5797,-2.6828,-2.7053,-2.7322,-2.7769,-2.771,-2.8695,-3.1102,-3.1607,-3.2302,-3.3381,-3.4244,-3.4793,-3.4987,-3.559,-3.5877,-3.5838,-3.4655,-3.4436,-3.5037,-3.4136,-3.2902,-3.1454,-3.0459,-2.9743,-2.9347,-2.9345,-2.943,-2.9595,-2.9413,-2.9422,-2.9551,-2.9163,-2.9911,-3.0985,0.0,0.0,0.0,0.0,0.0,0.0,0.0,0.0,0.0,0.0,0.0,0.0,0.0,1.4085,1.647,2.2739,2.0716,1.8748,1.7912,1.5099,1.0814,0.4781,0.2519,-0.0365,-0.4122,-0.4135,-0.3917,-0.3552,-0.2503,-0.2013,-0.2051,-0.2097,-0.3135,-0.4982,-0.5529,-0.6242,-0.7002,-0.5824,-0.6039,-0.6941,-0.4689,-0.3556,-0.304,-0.1586,-0.101,-0.1378,-0.4336,-0.5875,-0.6336,-0.5032,-0.3835,-0.2637,-0.1614,-0.1369,-0.1862,-0.3689,-0.7867,-1.2632,-1.6257,-2.037,-2.4642,-2.8931,-3.171,-3.3751,-3.5282,-3.5668,-3.5912,-3.6688,-3.5181,-3.3303,-3.1738,-3.0312,-2.8546,-2.5984,-2.5066,-2.4345,-2.3398,-2.273,-2.2856,-2.4217,-2.4402,-2.4498,0.0,-2.4429,-2.4723,-2.6182,-2.5813,-2.697,-3.0339,-3.0434,-3.1314,-3.333,-3.274,-3.273,-3.3445,-3.3511,-3.3496,-3.3518,-3.2847,-3.2864,-3.3448,-3.2176,-3.055,-2.8704,-2.8697,-2.8674,-2.8659,-2.8625,-2.8979,-2.955,-2.8907,-2.9037,-2.9434,-2.8137,-2.8516,-2.9673,0.0,0.0,0.0,0.0,0.0,0.0,0.0,0.0,0.0,0.0,0.0,0.0,0.0,0.0,0.0,0.0,1.8728,1.874,1.842,1.6772,1.4111,1.0347,0.8309,0.6487,0.4764,0.2475,0.1371,0.1513,0.0555,0.0215,0.0466,0.1031,0.1174,0.1007,0.0709,0.0576,0.0582,0.0756,0.059,0.0355,0.1208,0.1711,0.1942,0.2454,0.4762,0.7714,0.0,0.3792,-0.0,0.0948,0.2165,0.361,0.5026,0.5461,0.4336,-0.1002,-0.6841,-1.2595,-1.7477,-2.2756,-2.7672,-3.1084,-3.3277,-3.4728,-3.5438,-3.5298,-3.4698,-3.3614,-3.1773,-2.9559,-2.7088,-2.5782,-2.4356,-2.2185,-2.1946,-2.1911,-2.1638,-2.1072,-2.1594,-2.3997,-2.3991,0.0,0.0,0.0,0.0,-2.5605,-2.5871,-2.6873,-2.8953,-3.0242,-3.0998,-3.1194,-3.1919,-3.2247,-3.2059,-3.2133,-3.2126,-3.2118,-3.1918,-3.1939,-3.208,-3.0815,-2.9861,-2.9218,-2.8308,-2.7697,-2.724,-2.7274,-2.7122,-2.6934,-2.6696,-2.703,-2.7545,-2.7075,-2.7515,-2.8268,0.0,0.0,0.0,0.0,0.0,0.0,0.0,0.0,0.0,0.0,0.0,0.0,0.0,0.0,0.0,0.0,0.0,1.8724,1.9315,1.8715,1.7448,1.5476,1.4117,1.3247,1.2892,1.088,1.005,1.0491,0.9412,0.8985,0.924,0.9572,0.9484,0.9002,0.8487,0.8081,0.7679,0.7317,0.6957,0.6639,0.6707,0.7081,0.761,0.7298,0.9525,0.0,1.3552,1.1461,0.8332,0.8017,0.8279,0.8877,0.9903,0.952,0.718,-0.0465,-0.8565,-1.6026,-2.0763,-2.5478,-2.9675,-3.2418,-3.3581,-3.3977,-3.3517,-3.2515,-3.1182,-2.9443,-2.713,-2.4668,-2.223,-2.1247,-2.0268,-1.8599,-1.8858,-1.9382,-1.9555,-1.938,-2.0302,-2.329,-2.3632,-2.4365,0.0,0.0,0.0,-2.5348,-2.6404,-2.7303,-2.7896,-2.9741,-3.0493,-2.9744,-3.0875,-3.1331,-3.0926,-3.1233,-3.1298,-3.1074,-3.1064,-3.086,-3.0396,-2.9328,-2.8732,-2.8479,-2.7372,-2.6614,-2.6214,-2.6255,-2.6001,-2.5586,-2.5586,-2.5878,-2.6243,-2.6238,-2.6547,-2.692,0.0,0.0,0.0,0.0,0.0,0.0,0.0,0.0,0.0,0.0,0.0,0.0,0.0,0.0,0.0,0.0,0.0,0.0,2.0449,2.0809,2.0631,1.9864,1.9626,1.9626,1.9857,2.0511,2.1436,2.2626,2.3255,2.3532,2.3433,2.2894,2.1272,1.877,1.7663,1.6089,1.4301,1.386,1.2947,1.1798,1.1724,1.257,1.3779,1.2989,1.342,1.4582,1.5603,1.6963,1.7918,1.5797,1.4304,1.3253,1.2821,1.0685,0.6671,-0.2232,-1.2769,-2.2255,-2.5605,-2.8216,-3.052,-3.2719,-3.2589,-3.1463,-2.967,-2.7595,-2.5653,-2.4295,-2.1493,-1.8783,-1.7245,0.0,-1.6373,-1.5297,-1.6008,-1.6894,-1.7445,-1.7946,-1.9353,0.0,0.0,0.0,0.0,0.0,0.0,-2.5463,0.0,-2.8137,-2.7371,-2.9019,-2.9642,-2.8954,-2.961,-2.9973,-2.9984,-3.0698,-3.0746,-3.0213,-3.0213,-2.9605,-2.846,-2.7736,-2.7118,-2.6555,-2.5878,-2.5604,-2.553,-2.5528,-2.5543,-2.5484,-2.5484,-2.5543,-2.5551,-2.5579,-2.5567,-2.5689,0.0,0.0,0.0,0.0,0.0,0.0,0.0,0.0,0.0,0.0,0.0,0.0,0.0,0.0,0.0,0.0,0.0,0.0,2.113,2.183,2.1988,2.1588,2.1362,2.1524,2.207,2.2647,2.3363,2.4204,2.5111,2.5545,2.5547,2.5832,2.5494,2.462,2.3683,2.263,2.1472,2.0325,1.9409,1.8635,1.7497,1.7255,1.7576,1.6999,1.7171,1.7861,1.9076,2.0436,2.1241,1.8417,1.7183,1.5955,1.0899,0.714,0.2558,-0.7893,-1.5662,-2.1678,-2.5461,-2.8856,-3.1303,-3.1246,-3.0446,-2.9016,-2.6614,-2.4123,-2.1637,-1.9061,-1.6525,-1.462,-1.3874,-1.3717,-1.3967,-1.4808,-1.6116,0.0,-1.8994,-2.0502,0.0,-2.4648,0.0,-2.7073,-2.8507,-2.9217,0.0,0.0,-2.8329,-2.8654,-2.7921,-2.8195,-2.8305,-2.8098,-2.8285,-2.846,-2.8616,-2.8796,-2.8796,-2.8665,-2.8665,-2.8501,-2.8157,-2.7165,-2.6606,-2.6421,-2.5845,-2.5346,-2.4865,-2.4859,-2.4557,-2.4111,-2.4111,-2.4438,-2.4856,-2.4866,-2.5168,-2.5575,0.0,0.0,0.0,0.0,0.0,0.0,0.0,0.0,0.0,0.0,0.0,0.0,0.0,0.0,0.0,0.0,0.0,0.0,0.0,2.2726,2.3161,2.3342,2.3157,2.3287,2.3815,2.4432,2.4868,2.5051,2.6312,2.6758,2.6502,2.72,2.7211,2.6588,2.647,2.5776,2.46,2.3979,2.3266,0.0,0.0,2.0757,2.0678,2.0053,2.0378,2.133,2.1975,2.287,2.3412,2.1268,1.884,1.574,0.9969,0.3629,-0.3164,-1.082,-1.7206,-2.2665,-2.6751,-2.9508,-3.0996,-3.0039,-2.8603,-2.6507,-2.301,-2.0895,-1.8635,-1.5077,-1.2552,-1.0721,-1.0037,-1.0606,-1.1844,-1.3734,0.0,0.0,-2.0674,-2.2625,-2.4587,0.0,-2.745,0.0,-2.9846,-3.0084,-2.9957,0.0,-2.9546,-2.9046,-2.7648,-2.771,-2.7636,-2.7341,-2.7635,-2.8032,-2.8488,-2.8488,-2.8488,-2.8488,-2.823,-2.8003,-2.7683,-2.6522,-2.5843,-2.5574,0.0,-2.4526,-2.4141,-2.4141,-2.3934,-2.3595,-2.3595,-2.3816,-2.4141,-2.4141,-2.4422,-2.4676,0.0,0.0,0.0,0.0,0.0,0.0,0.0,0.0,0.0,0.0,0.0,0.0,0.0,0.0,0.0,0.0,0.0,0.0,0.0,0.0,2.3898,2.4673,2.4567,2.4648,2.4961,2.5598,2.5729,2.5318,2.6765,2.7182,2.6675,2.7497,2.7369,2.6486,2.7216,2.6774,2.5481,2.5789,2.5446,2.4631,2.3764,2.3497,2.3475,0.0,2.3167,2.4405,2.4477,2.476,2.489,2.3517,1.965,1.4483,0.9327,0.1021,-0.7624,-1.1731,-1.747,-2.3393,-2.7494,-2.9264,-2.9708,-2.8679,-2.6774,-2.3941,-1.9391,-1.758,-1.5726,-1.1712,-0.9065,-0.7263,-0.6559,-0.7848,-0.9969,-1.302,0.0,-1.8809,-2.2875,-2.4971,-2.6786,-2.8625,-2.8824,-2.9555,-3.1286,-3.075,-3.0455,-3.0871,-3.0375,-2.9211,-2.7288,-2.7501,-2.7289,-2.6504,-2.7066,-2.7742,-2.8527,-2.8544,-2.8544,-2.8527,-2.8117,-2.759,-2.6942,-2.5843,-2.5067,-2.4541,0.0,0.0,-2.3595,-2.3595,-2.3595,-2.3595,-2.3595,-2.3595,-2.3595,-2.3595,-2.3565,-2.3492,0.0,0.0,0.0,0.0,0.0,0.0,0.0,0.0,0.0,0.0,0.1663,0.558,0.0,0.0,0.0,0.0,0.0,0.0,0.0,0.0,0.0,2.4169,2.4397,2.4617,2.4835,2.4964,2.4996,2.4905,2.5834,2.6317,2.6371,2.7044,2.7314,2.7279,2.7278,2.71,2.6851,2.6581,2.6776,2.716,2.6065,2.6022,2.6524,2.5487,0.0,0.0,2.6634,2.6856,2.62,2.2929,1.9849,1.5961,0.7669,0.2209,-0.2708,-1.077,-1.5589,-1.9004,-2.2459,-2.5218,-2.6921,-2.6046,-2.4064,-2.1198,-1.6967,-1.3691,-1.0659,-0.7605,-0.5477,-0.4541,-0.587,-0.6556,-0.8936,-1.5069,-1.7501,-2.0785,-2.6929,-2.9317,-3.0694,0.0,-3.1298,-3.1164,-3.1326,-3.0627,0.0,0.0,0.0,-2.904,-2.8669,-2.7603,-2.6471,-2.5411,-2.5163,-2.5414,-2.6169,-2.6185,-2.6185,-2.6185,-2.6691,-2.6327,-2.5238,-2.5238,-2.4941,-2.4422,-2.3831,0.0,-2.3595,-2.3595,-2.3595,-2.3595,-2.3595,-2.3595,-2.3595,-2.3595,-2.3286,-2.2861,0.0,0.0,0.0,0.0,0.0,0.0,0.0,0.0474,-0.4184,-0.716,-0.3579,0.0965,0.5316,0.9096,1.2503,0.0,0.0,0.0,0.0,0.0,0.0,0.0,2.4081,2.4344,2.4543,2.5011,2.5026,2.4542,0.0,2.6124,2.5899,2.6764,2.7043,2.6892,2.735,2.7238,2.6706,2.6959,2.7483,2.811,2.7358,2.7489,2.8018,0.0,0.0,0.0,2.7879,2.7384,2.5836,2.3059,2.0094,1.6294,0.8993,0.4446,0.0598,-0.5699,-0.9346,-1.2278,-1.6349,-2.0285,-2.2754,-2.0741,-2.0973,-2.0166,-1.4403,-1.0852,-0.8108,-0.5701,-0.4515,-0.4172,-0.5076,-0.6022,-0.8632,-1.4553,-1.8174,-2.2369,-2.8428,-3.1344,-3.302,-3.3504,-3.2639,-3.1899,-3.1589,-3.0545,-2.9472,0.0,0.0,-2.8515,-2.8442,-2.7367,-2.6318,-2.535,-2.4938,-2.4921,-2.5285,-2.5511,-2.5615,-2.5615,-2.6371,-2.6047,-2.4798,-2.4728,-2.4184,-2.3277,-2.3193,0.0,-2.3169,-2.3477,-2.3595,-2.3595,-2.3595,-2.3595,-2.3548,-2.3264,-2.2934,-2.2669,0.0,0.0,0.0,0.0,0.0,0.0,0.0,0.1739,-0.4344,-0.8329,-0.7269,-0.393,0.1915,0.7197,1.1621,0.0,0.0,0.0,0.0,0.0,0.0,0.0,0.0,0.0,0.0,0.0,0.0,2.4171,2.5332,0.0,0.0,0.0,0.0,0.0,2.6887,2.6787,2.6009,2.6747,2.7551,0.0,0.0,2.8353,0.0,0.0,0.0,0.0,0.0,2.7662,2.579,2.4056,2.1317,1.7777,1.3118,0.8632,0.4462,0.1057,-0.1751,-0.4809,-0.9509,-1.395,-1.6671,-1.4144,-1.5811,-1.6554,-1.0748,-0.7879,-0.6072,-0.4752,-0.449,-0.4487,-0.4484,-0.6248,-0.9155,-1.3558,-1.8464,-2.3716,-2.9404,-3.2447,-3.4298,-3.4822,-3.3412,0.0,-3.1911,-3.0565,0.0,0.0,0.0,0.0,-2.7629,-2.679,-2.602,-2.5385,-2.4892,-2.4681,-2.4854,-2.5108,-2.5245,-2.5246,-2.59,-2.5578,-2.4312,-2.4103,-2.3343,-2.2313,-2.2453,0.0,0.0,-2.3198,-2.3492,-2.358,-2.3486,-2.3385,-2.331,-2.2709,-2.2401,-2.22,0.0,0.0,0.0,0.0,0.0,0.0,0.0,0.6478,-0.0398,-0.323,-0.6318,-0.6889,-0.3433,0.284,0.836,0.0,0.0,0.0,0.0,0.0,0.0,0.0,0.0,0.0,0.0,0.0,0.0,2.3759,2.3883,0.0,0.0,0.0,0.0,0.0,0.0,2.5246,2.5222,2.5488,0.0,0.0,0.0,0.0,0.0,0.0,0.0,0.0,0.0,2.8612,2.7605,2.6462,2.4631,2.2615,2.1293,1.6508,1.0923,0.8468,0.5685,0.246,-0.1696,-0.5116,-0.7329,-0.6612,-0.635,-0.596,-0.4741,-0.3761,-0.3374,-0.4297,-0.4504,-0.4507,-0.4497,-0.7559,-1.0904,-1.3441,-1.8864,-2.4961,-3.1257,-3.3261,-3.4351,-3.5086,0.0,0.0,-3.2185,-3.0676,0.0,0.0,0.0,0.0,-2.6746,-2.5676,-2.5017,-2.4977,-2.3923,-2.3692,-2.4361,-2.4162,-2.4052,-2.4066,-2.4513,-2.4033,-2.282,-2.3062,-2.2884,-2.2301,-2.1934,0.0,0.0,-2.2774,-2.3096,-2.3563,-2.3016,-2.278,-2.2684,-2.2028,-2.1416,-2.0886,0.0,0.0,0.0,0.0,0.0,0.0,1.5342,0.6693,-0.0301,-0.2172,-0.8477,-1.0691,-0.5183,0.0726,0.6282,1.1435,0.0,0.0,0.0,0.0,0.0,0.0,0.0,0.0,0.0,0.0,2.3795,2.3392,2.3392,0.0,0.0,0.0,0.0,0.0,0.0,2.5018,2.5063,2.531,0.0,0.0,0.0,0.0,0.0,0.0,0.0,0.0,0.0,0.0,2.6578,2.6246,2.4978,2.3485,2.3237,2.1046,1.7891,1.4799,1.1293,0.7741,0.4942,0.1068,-0.1642,0.0867,0.0004,-0.147,-0.1508,0.0055,0.1224,0.0166,-0.0606,-0.1102,-0.1156,-0.5625,-1.0108,-1.2555,-1.9527,-2.5974,-2.9819,-3.2065,-3.3676,-3.4654,-3.3258,0.0,0.0,0.0,0.0,0.0,0.0,0.0,-2.5162,-2.5186,-2.4984,-2.4485,-2.384,-2.3642,-2.3947,-2.3907,-2.39,-2.3921,-2.4316,-2.3992,-2.3065,-2.2938,-2.2362,-2.1531,-2.1458,0.0,0.0,-2.2357,-2.2861,-2.3036,-2.2807,-2.2692,-2.2586,-2.1484,-2.095,-2.0639,0.0,0.0,0.0,0.0,0.0,2.0254,1.7524,0.8756,0.1943,0.0661,-0.7826,-1.1205,-0.4477,0.0889,0.5872,1.0557,1.3622,0.0,0.0,0.0,0.0,0.0,0.0,0.0,0.0,0.0,2.3774,2.3189,2.3076,2.2863,0.0,0.0,0.0,0.0,0.0,0.0,0.0,0.0,0.0,0.0,0.0,0.0,0.0,0.0,0.0,0.0,0.0,0.0,0.0,0.0,0.0,2.4423,2.4504,2.3692,2.2123,1.8862,1.5518,1.2477,1.0316,0.7184,0.5163,0.8108,0.6833,0.4609,0.3614,0.4124,0.4741,0.4649,0.4273,0.3328,0.1194,-0.4857,-1.0553,-1.3807,-2.0957,-2.6741,-2.8623,-3.1148,-3.3225,-3.4312,0.0,-3.2718,0.0,0.0,0.0,0.0,0.0,0.0,0.0,-2.4725,-2.48,-2.4208,-2.3969,-2.3798,-2.3694,-2.3707,-2.3652,-2.3545,-2.3755,-2.3585,-2.3033,-2.2465,-2.1746,-2.1003,0.0,0.0,0.0,-2.1734,-2.2212,-2.2381,-2.2192,-2.2099,-2.1972,-2.0837,-2.0385,-2.0354,0.0,0.0,0.0,0.0,0.0,0.0,2.2164,1.4224,0.79,0.676,-0.2766,-0.7177,-0.1188,0.3673,0.7356,0.9504,1.2072,0.0,0.0,0.0,0.0,0.0,0.0,0.0,0.0,0.0,2.3544,2.3189,2.2785,2.2435,2.2096,2.172,2.19,2.265,0.0,0.0,0.0,0.0,0.0,0.0,0.0,0.0,0.0,0.0,0.0,0.0,0.0,0.0,0.0,0.0,0.0,0.0,0.0,2.4575,2.2436,1.9983,1.8385,1.6809,1.4076,1.3667,1.4227,1.5021,1.4929,1.409,1.1881,0.8542,0.64,0.8258,0.9717,0.8498,0.1338,-0.6344,-1.3165,-1.8137,-2.3342,-2.72,-2.8426,-3.1076,-3.325,0.0,0.0,-3.4107,0.0,0.0,0.0,0.0,0.0,0.0,0.0,-2.4208,-2.4208,-2.419,-2.419,-2.4044,-2.3691,-2.3379,-2.3039,-2.27,-2.2457,-2.2327,-2.2265,-2.1401,-2.1005,0.0,0.0,0.0,0.0,-2.0706,-2.1117,-2.1629,-2.0969,-2.0741,-2.0642,-1.9982,-1.9726,-1.9726,0.0,0.0,0.0,0.0,0.0,0.0,0.0,1.5184,1.0,0.8529,0.061,-0.2935,0.2213,0.7526,1.0805,1.1047,1.2646,0.0,0.0,0.0,0.0,0.0,0.0,0.0,0.0,0.0,2.3806,2.3544,2.2275,2.0406,1.8006,1.831,1.7719,1.6632,1.9454,0.0,0.0,0.0,0.0,0.0,0.0,0.0,0.0,0.0,0.0,0.0,0.0,0.0,0.0,0.0,0.0,0.0,0.0,0.0,0.0,1.9556,1.8535,1.6867,1.6197,1.5717,1.6052,1.8516,1.8393,1.7379,1.6218,1.3123,1.0259,0.946,0.7759,0.4976,0.0309,-0.6532,-1.3026,-1.7871,-2.343,-2.747,-2.8395,0.0,0.0,-3.3429,-3.3586,-3.2765,0.0,0.0,0.0,0.0,0.0,0.0,0.0,-2.4266,-2.419,-2.419,-2.419,-2.4149,-2.4044,-2.3484,-2.314,-2.3039,-2.2553,-2.231,-2.2265,-2.1687,0.0,0.0,0.0,0.0,0.0,-2.0497,-2.082,-2.0998,-2.0782,-2.0697,-2.0599,-1.9944,-1.969,-1.969,0.0,0.0,0.0,0.0,0.0,0.0,0.0,1.8438,1.5021,1.2256,0.7666,0.5312,0.7176,1.0962,1.3228,1.277,1.4144,0.0,0.0,0.0,0.0,0.0,0.0,0.0,2.2898,2.3458,2.3717,2.3692,1.9992,1.6985,1.4653,1.2527,1.1173,1.0643,1.4002,1.6952,0.0,0.0,0.0,0.0,0.0,0.0,1.7055,0.0,0.0,0.0,0.0,0.0,0.0,0.0,0.0,0.0,0.0,0.0,0.0,0.0,1.4193,1.4689,1.7384,1.7882,1.8285,2.0812,2.096,2.0211,1.9199,1.6178,1.2669,0.9375,0.5562,0.138,-0.3203,-0.8946,-1.45,-1.9143,-2.4115,-2.7818,-2.8928,0.0,0.0,-3.361,0.0,0.0,0.0,0.0,0.0,0.0,0.0,0.0,0.0,-2.4495,-2.4392,-2.4321,-2.4228,-2.4151,-2.4016,-2.3455,-2.3129,-2.3022,-2.2536,-2.231,-2.2282,-2.1648,0.0,0.0,0.0,0.0,0.0,-2.0161,-2.0332,-2.0307,-2.0308,-2.033,-2.0255,-1.9834,-1.9579,-1.9403,0.0,0.0,0.0,0.0,0.0,0.0,0.0,2.3101,2.1846,1.7285,1.6985,1.6039,1.3047,1.3911,1.4676,1.4676,0.0,0.0,0.0,0.0,0.0,0.0,0.0,0.0,2.2574,2.2761,2.2856,2.2903,1.5902,1.1994,1.0905,0.4755,0.2783,0.4532,0.7232,1.1148,0.0,0.0,0.0,0.0,0.0,0.0,0.0,0.0,0.0,0.0,0.0,0.0,0.0,0.0,0.0,0.0,0.0,0.0,0.0,0.0,0.0,0.0,0.0,1.9368,2.0771,2.2078,2.2666,2.253,2.1051,1.7546,0.0,0.8196,0.2981,-0.2616,-0.883,-1.3261,-1.7427,-2.1915,-2.5511,-2.833,0.0,-3.198,0.0,0.0,0.0,0.0,0.0,0.0,0.0,0.0,0.0,0.0,0.0,-2.4785,-2.4689,-2.4511,-2.4302,-2.4054,-2.3735,-2.3391,-2.3048,-2.2737,-2.2434,-2.231,-2.2271,-2.1436,0.0,0.0,0.0,0.0,0.0,-1.969,-1.969,-1.969,-1.969,-1.969,-1.969,-1.966,-1.9322,-1.8905,0.0,0.0,0.0,0.0,0.0,0.0,0.0,0.0,0.0,0.0,1.9265,1.8752,1.6122,1.6279,1.6574,0.0,0.0,0.0,0.0,0.0,0.0,0.0,0.0,0.0,2.2574,1.9806,1.7301,1.5205,0.8667,0.2835,-0.2241,-0.3392,-0.3744,-0.3218,0.197,0.8669,0.0,0.0,0.0,0.0,0.0,0.0,0.0,0.0,0.0,0.0,-1.4458,-1.7305,0.0,0.0,0.0,0.0,0.0,0.0,0.0,0.0,0.0677,0.2414,0.4803,0.0,2.1437,2.2923,2.3212,2.2892,0.0,1.527,0.8624,0.6453,-0.1832,-1.0135,-1.4891,-1.7713,-2.1018,-2.6115,-2.826,-2.9687,-3.0852,0.0,0.0,-3.2871,0.0,0.0,0.0,0.0,0.0,0.0,0.0,0.0,0.0,-2.4657,-2.4547,-2.4492,-2.4304,-2.417,-2.4094,-2.3488,-2.3151,-2.3084,-2.2531,-2.231,-2.2282,-2.1711,0.0,0.0,0.0,0.0,-1.969,-1.969,-1.969,-1.969,-1.969,-1.969,-1.966,-1.9241,-1.9,-1.8834,0.0,0.0,0.0,0.0,0.0,0.0,0.0,0.0,0.0,0.0,0.0,2.0688,1.8564,1.8309,0.0,0.0,0.0,0.0,0.0,0.0,0.0,0.0,0.0,2.04,1.7823,1.5566,1.2041,0.7183,0.0344,-0.4919,-0.8642,-1.0978,-1.1166,-0.93,-0.1603,0.4888,0.0,0.0,0.0,0.0,0.6633,0.0,0.0,0.0,0.0,0.0,-1.9204,-2.2276,0.0,-2.437,-2.2882,-2.0671,0.0,0.0,0.0,0.0,-0.6506,-0.3949,-0.1893,0.5929,1.3693,1.4505,1.4782,1.4623,1.3809,0.7982,0.1963,-0.0841,-0.8209,-1.544,-1.9704,-2.2138,-2.4561,-2.7856,-2.9504,0.0,0.0,0.0,-3.3035,0.0,0.0,0.0,0.0,0.0,0.0,0.0,0.0,0.0,0.0,-2.4926,-2.4803,-2.4639,-2.453,-2.4393,-2.419,-2.3545,-2.3196,-2.3195,-2.2598,-2.231,-2.2265,-2.1608,-2.1046,0.0,0.0,0.0,-1.8793,-1.8787,-1.8802,-1.8793,-1.8793,-1.8661,-1.8477,-1.8173,-1.7796,-1.7369,0.0,0.0,0.0,0.0,0.0,0.0,0.0,0.0,0.0,0.0,0.0,0.0,0.0,0.0,0.0,0.0,0.0,0.0,0.0,0.0,0.0,0.0,2.1008,1.8173,1.2143,1.0159,0.584,-0.0968,-0.8066,-1.1994,-1.2961,-1.7723,-1.7761,-1.347,-0.4332,0.024,0.0,0.0,0.0,0.0,-0.1329,0.0,0.0,0.0,0.0,0.0,0.0,0.0,0.0,-2.3741,-2.4185,-2.4394,-2.3452,0.0,0.0,0.0,0.0,0.0,-0.7424,-0.3078,0.1178,0.319,0.4056,0.4168,0.332,-0.0698,-0.5366,-0.9295,-1.4604,-1.9745,-2.3716,-2.5922,-2.7506,-2.8722,0.0,0.0,-3.3184,-3.2642,-3.2016,0.0,0.0,0.0,0.0,0.0,0.0,0.0,0.0,0.0,0.0,-2.5253,-2.5095,-2.4764,-2.4749,-2.4582,-2.4209,-2.3545,-2.3191,-2.3195,-2.2608,-2.231,-2.2265,-2.1368,-2.0591,0.0,0.0,0.0,-1.7692,-1.7712,-1.7709,-1.7692,-1.763,-1.7407,-1.7084,-1.6936,-1.6371,-1.5686,0.0,0.0,0.0,0.0,0.0,0.0,0.0,0.0,0.0,0.0,0.0,0.0,0.0,0.0,0.0,0.0,0.0,0.0,0.0,0.0,0.0,1.93,1.6468,1.3917,1.1717,0.2786,-0.421,-0.9017,-1.4759,-1.9164,-2.2243,-2.2609,-1.9727,-1.3916,-0.68,-0.5427,-0.8141,-0.359,-0.2126,-0.2914,-0.3897,0.0,0.0,0.0,0.0,0.0,0.0,0.0,0.0,-2.2915,-2.316,-2.2948,-2.2949,0.0,0.0,0.0,0.0,0.0,-1.8139,-1.6863,-1.2946,-0.1531,0.1511,0.1575,0.1092,-0.5368,-1.1401,-1.1885,-1.8202,-2.4438,-2.6965,-2.7567,-2.8461,0.0,0.0,-3.2752,0.0,0.0,0.0,0.0,0.0,0.0,0.0,0.0,0.0,0.0,0.0,0.0,0.0,0.0,-2.4887,-2.4553,-2.4546,-2.4432,-2.419,-2.3545,-2.3203,-2.3204,-2.2586,-2.231,-2.2248,-2.1161,-2.041,0.0,0.0,-1.8177,-1.7712,-1.771,-1.7708,-1.768,-1.7323,-1.7161,-1.7014,-1.6201,-1.5825,-1.5631,0.0,0.0,0.0,0.0,0.0,0.0,0.0,0.0,0.0,0.0,0.0,0.0,0.0,0.0,0.0,0.0,0.0,0.0,0.0,0.0,1.9995,1.7096,1.1848,0.7518,0.4374,-0.2445,-0.9503,-1.6686,-2.0171,-2.283,-2.4627,-2.2337,-1.8783,-1.4047,-0.7396,-0.6007,-0.8755,-0.854,-0.8646,-0.8989,0.0,0.0,0.0,0.0,0.0,0.0,0.0,0.0,0.0,0.0,-2.1603,-2.2027,-2.0836,0.0,0.0,0.0,0.0,0.0,-2.0296,-2.0363,-1.8976,-1.3837,-1.1317,-1.0319,-1.1251,-1.5326,-1.8979,-1.9251,-2.2409,-2.5585,-2.7174,0.0,-2.9525,-3.2828,0.0,0.0,0.0,0.0,0.0,0.0,0.0,0.0,0.0,0.0,0.0,0.0,0.0,0.0,0.0,0.0,-2.4791,-2.3992,-2.3958,-2.3621,-2.2905,-2.2277,-2.2192,-2.2587,-2.199,-2.1479,-2.1033,-2.009,-1.9375,-1.8824,0.0,-1.7178,-1.6667,-1.6653,-1.6518,-1.6292,-1.6082,-1.5744,-1.5282,-1.46,-1.4171,-1.393,0.0,0.0,0.0,0.0,0.0,0.0,0.0,0.0,0.0,0.0,0.0,0.0,0.0,0.0,0.0,0.0,0.0,0.0,0.0,1.9629,1.7827,1.4519,0.8224,0.2536,-0.2353,-0.6975,-1.3265,-2.1301,-2.3161,-2.3754,-2.3087,-1.9322,-1.6179,-1.3351,-0.7136,-0.577,-0.8273,-1.1921,-1.3649,-1.3937,0.0,0.0,0.0,0.0,0.0,0.0,0.0,0.0,0.0,0.0,0.0,0.0,0.0,0.0,0.0,-1.7708,-1.7969,-1.8143,-1.96,-2.0562,-2.15,-2.2883,-2.1556,-2.0422,-2.2298,-2.3638,-2.4812,-2.5768,-2.6043,-2.6373,-2.7247,-2.847,0.0,-3.3344,-3.2241,0.0,0.0,0.0,0.0,0.0,0.0,0.0,0.0,0.0,0.0,0.0,0.0,0.0,0.0,0.0,-2.4549,-2.3525,-2.3319,-2.2747,-2.1801,-2.1201,-2.1218,-2.182,-2.1122,-2.0467,-1.9847,-1.8952,-1.8274,-1.7744,-1.6884,-1.6228,-1.5799,-1.5666,-1.5402,-1.5066,-1.4906,-1.4369,-1.3673,-1.3313,-1.2901,-1.2479,0.0,0.0,0.0,0.0,0.0,0.0,0.0,0.0,0.0,0.0,0.0,0.0,0.0,0.0,0.0,0.0,0.0,0.0,0.0,1.7345,1.5064,1.1469,0.6534,0.139,-0.4007,-1.1286,-1.6697,-2.0104,-2.2062,-2.1205,-1.7686,-1.3908,-1.1873,-1.1146,-0.6503,-0.656,-1.0392,-1.223,-1.4433,-1.6361,-1.3259,0.0,0.0,0.0,0.0,0.0,0.0,0.0,0.0,0.0,0.0,0.0,0.0,0.0,-1.0835,-1.4558,-1.5899,-1.6513,-1.804,-2.0011,-2.1593,-2.1292,-2.1034,-2.1775,-2.5176,-2.5877,-2.6255,-2.7911,-2.8233,-2.8312,-2.8782,-2.9744,-3.0646,-3.1176,0.0,0.0,0.0,0.0,0.0,0.0,0.0,0.0,0.0,0.0,0.0,0.0,0.0,0.0,0.0,0.0,0.0,-2.3506,-2.2773,-2.22,-2.1795,-2.1207,-2.0923,-2.0986,-2.006,-1.9596,-1.9493,-1.8132,-1.7493,-1.7366,-1.6317,-1.5857,-1.5784,-1.5329,-1.5124,-1.5037,-1.4285,-1.369,-1.3238,-1.3207,-1.2901,-1.2435,0.0,0.0,0.0,0.0,0.0,0.0,0.0,0.0,0.0,0.0,0.0,0.0,0.0,0.0,0.0,0.0,0.0,0.0,0.0,1.5711,1.3511,1.0819,0.726,0.297,-0.2139,-0.919,-1.4132,-1.6842,-1.9448,-1.8429,-1.4095,-1.7749,-1.5806,-0.9306,-0.759,-0.9263,-1.3354,-1.3675,-1.5693,-1.8365,-1.4418,-1.205,0.0,0.0,0.0,0.0,0.0,0.0,0.0,0.0,-0.4286,-0.5192,-0.2617,-0.2762,-0.462,-0.8249,-1.0846,-1.3257,-1.6429,-1.9621,-2.1999,-2.1759,-2.1771,-2.2499,-2.5193,-2.6521,-2.7312,-2.7735,-2.8338,-2.87,-2.8483,0.0,-3.0721,-3.113,0.0,0.0,0.0,0.0,0.0,0.0,0.0,0.0,0.0,0.0,0.0,0.0,0.0,0.0,0.0,0.0,0.0,-2.2171,-2.1764,-2.1189,-2.0441,-1.9794,-1.9471,-1.9464,-1.9253,-1.8784,-1.8107,-1.7353,-1.6909,-1.6675,-1.6079,-1.5636,-1.5344,-1.5183,-1.4578,-1.3709,-1.282,-1.2593,-1.269,-1.2069,-1.1572,-1.1134,0.0,0.0,0.0,0.0,0.0,0.0,0.0,0.0,0.0,0.0,0.0,0.0,0.0,0.0,0.0,0.0,0.0,0.0,1.5368,1.4376,1.2754,1.0461,0.8622,0.5591,0.1225,-0.3285,-0.737,-1.0983,-1.2328,-1.0641,-0.629,-1.3753,-1.3911,-0.7954,-0.9172,-1.2463,-1.705,-1.5618,-1.7018,-1.9843,-1.5711,-1.3311,0.0,0.0,0.0,0.0,0.0,0.0,0.0,0.0,0.3359,0.28,0.6311,0.5408,0.1975,-0.3615,-0.7042,-1.0183,-1.5521,-1.9021,-2.1269,-2.1609,-2.1873,-2.2627,-2.4979,-2.6407,-2.749,-2.8326,-2.8569,-2.853,-2.8165,0.0,0.0,0.0,0.0,0.0,0.0,0.0,0.0,0.0,0.0,0.0,0.0,0.0,0.0,0.0,0.0,0.0,0.0,0.0,0.0,0.0,-2.0869,-2.0308,-1.9513,-1.8893,-1.8606,-1.8603,-1.8322,-1.7826,-1.7119,-1.6812,-1.6451,-1.6094,-1.5578,-1.5124,-1.4819,-1.4361,-1.3543,-1.2482,-1.1706,-1.1666,-1.1942,-1.1123,-1.058,-1.0091,0.0,0.0,0.0,0.0,0.0,0.0,0.0,0.0,0.0,0.0,0.0,0.0,0.0,0.0,0.0,0.0,0.0,0.0,1.2483,1.3353,1.2744,1.0236,1.0379,0.9048,0.5867,0.6259,0.3568,-0.2423,-0.0143,0.2976,0.6652,0.0708,-0.3838,-0.7199,-1.1007,-1.5976,-2.1231,-1.7922,-1.8318,-2.0763,-1.6949,-1.4687,-1.2967,0.0,0.0,0.0,0.0,0.0,0.0,0.0,1.1215,1.0664,1.5522,1.4218,0.8878,-0.14,-0.5043,-0.7451,-1.5324,-1.8131,-1.9139,-2.0546,-2.1183,-2.2207,-2.4884,-2.557,-2.662,-3.0134,-2.9211,-2.7837,-2.8027,-2.6953,0.0,0.0,0.0,0.0,0.0,0.0,0.0,0.0,0.0,0.0,0.0,0.0,0.0,0.0,0.0,0.0,0.0,0.0,0.0,0.0,-2.0256,-1.963,-1.9305,-1.8836,-1.861,-1.8567,-1.7308,-1.6728,-1.6774,-1.6448,-1.6094,-1.5725,-1.4732,-1.4285,-1.4169,-1.2746,-1.1958,-1.1548,-1.114,-1.0996,-1.0937,-1.0584,-1.0137,-0.9642,0.0,0.0,0.0,0.0,0.0,0.0,0.0,0.0,0.0,0.0,0.0,0.0,0.0,0.0,0.0,0.0,0.0,0.0,1.1785,1.1752,1.197,1.2547,1.2422,1.2244,1.2033,1.3376,1.0044,0.1793,0.5489,0.674,0.5694,0.6444,0.3774,-0.2032,-0.9855,-1.514,-1.8188,-1.8133,-1.937,-2.1093,-1.7897,-1.5335,-1.2906,0.0,0.0,0.0,0.0,0.0,0.0,0.0,0.0,0.0,1.9981,1.9138,1.5414,0.5293,0.067,-0.3185,-1.2517,-1.7143,-1.9475,-1.998,-2.1313,-2.2718,-2.3722,-2.5147,-2.6647,-2.8067,-2.6979,-2.5889,-2.6326,-2.6655,0.0,0.0,0.0,0.0,0.0,0.0,0.0,0.0,0.0,0.0,0.0,0.0,0.0,0.0,0.0,0.0,0.0,0.0,0.0,0.0,-2.006,-1.976,-1.9645,-1.9133,-1.8532,-1.7824,-1.7248,-1.6775,-1.6353,-1.5556,-1.4992,-1.4645,-1.3912,-1.3445,-1.3045,-1.1447,-1.0945,-1.1069,-0.9908,-0.9716,-0.9983,-0.9223,-0.888,-0.8712,0.0,0.0,0.0,0.0,0.0,0.0,0.0,0.0,0.0,0.0,2.0669,1.9541,0.0,0.0,0.0,0.0,0.0,0.0,0.0,0.8056,0.8182,0.815,0.878,1.0495,1.34,1.7486,1.6617,1.0632,1.3056,1.2885,1.0261,0.8973,0.5668,0.0433,-0.7844,-1.2297,-1.3758,-1.5786,-1.6978,-1.7528,-1.7987,-1.6439,-1.3341,0.0,0.0,0.0,0.0,0.0,0.0,0.0,0.0,0.0,2.265,2.1249,1.7535,0.7572,0.2462,-0.2152,-1.2206,-1.6772,-1.8975,-2.0295,-2.1565,-2.2654,-2.345,-2.5137,-2.6502,-2.6551,-2.5883,-2.5426,-2.5792,-2.6024,0.0,0.0,0.0,0.0,0.0,0.0,0.0,0.0,0.0,0.0,0.0,0.0,0.0,0.0,0.0,0.0,0.0,0.0,0.0,0.0,-1.9694,-1.9514,-1.9718,-1.8636,-1.7878,-1.7488,-1.6612,-1.5964,-1.5508,-1.4947,-1.4457,-1.4001,-1.3132,-1.2305,-1.1503,-1.0354,-1.0067,-1.0249,-0.9074,-0.8817,-0.9043,-0.8334,-0.7979,-0.7851,0.0,0.0,0.0,0.0,0.0,0.0,0.0,0.0,0.0,0.0,1.9118,1.7626,0.0,0.0,0.0,0.0,0.0,0.0,0.0,0.0,0.2304,-0.0088,0.1966,0.5521,1.0539,1.7975,2.1183,1.9874,2.0273,1.9423,1.7268,0.8915,0.3576,0.0731,-0.5451,-0.842,-0.8968,-1.1899,-1.2588,-1.2131,-1.7093,-1.7183,-1.3855,-0.9696,0.0,0.0,0.0,0.0,0.0,0.0,0.0,0.0,2.3698,2.1235,1.6512,0.6693,0.1477,-0.3306,-1.3398,-1.6563,-1.7747,-2.074,-2.1602,-2.2168,-2.3815,-2.5227,-2.6068,-2.5435,0.0,-2.5793,-2.5941,-2.5146,0.0,0.0,0.0,0.0,0.0,0.0,0.0,0.0,0.0,0.0,0.0,0.0,0.0,0.0,0.0,0.0,0.0,0.0,0.0,0.0,-1.9219,-1.8992,-1.9401,-1.7639,-1.691,0.0,-1.561,-1.4645,-1.4331,-1.4443,-1.4149,-1.3471,-1.2283,-1.1055,-0.9867,-0.9512,-0.9329,-0.9255,-0.8532,-0.8215,-0.8136,-0.7773,-0.7394,-0.7057,0.0,0.0,0.0,0.0,0.0,0.0,0.0,0.0,0.0,0.0,0.0,0.0,0.0,0.0,0.0,0.0,0.0,0.0,0.0,0.0,-0.245,-0.1047,0.2103,0.365,0.3281,0.9537,1.1574,0.9069,1.5399,1.6678,1.3076,0.7701,0.3382,0.0051,-0.4479,-0.732,-0.8748,-1.0425,-1.2219,-1.398,-1.3699,-1.3361,-1.26,-0.8965,-0.3828,0.0,0.0,0.0,0.0,0.0,0.0,0.0,2.2906,2.0714,1.6761,0.6796,0.1454,-0.3108,-1.1723,-1.4876,-1.6247,-1.8511,-2.022,-2.1779,-2.3444,-2.3983,-2.4194,-2.4396,-2.4054,-2.4004,-2.4918,0.0,0.0,0.0,0.0,0.0,0.0,0.0,0.0,0.0,0.0,0.0,0.0,0.0,0.0,0.0,0.0,0.0,0.0,0.0,0.0,-1.9341,-1.8979,-1.8482,-1.7799,-1.7274,-1.6541,0.0,-1.5223,-1.4314,-1.3018,-1.3041,-1.2479,-1.1483,-1.0957,-1.0405,-0.9855,-0.9185,-0.8946,-0.8861,-0.8126,-0.7627,-0.7346,-0.7269,-0.6971,-0.6614,0.0,0.0,0.0,0.0,0.0,0.0,0.0,0.0,0.0,0.0,0.0,0.0,0.0,0.0,0.0,0.0,0.0,0.0,0.0,0.0,-0.9129,-0.7714,-0.2981,-0.1128,-0.274,0.3915,0.6325,0.4123,0.8044,0.964,0.9026,0.5696,0.2123,-0.1629,-0.3568,-0.5066,-0.6209,-0.9534,-1.0427,-0.9892,-1.3094,-1.3118,-1.0956,-0.8353,-0.6147,-0.3479,0.3752,0.0,0.0,0.0,0.0,0.0,0.0,0.0,0.8963,0.1798,-0.1958,-0.5199,-1.1948,-1.4267,-1.5339,-1.7778,-1.961,-2.1094,-2.1947,-2.2635,-2.3163,-2.3354,-2.3523,-2.36,0.0,0.0,0.0,0.0,0.0,0.0,0.0,0.0,0.0,0.0,0.0,0.0,0.0,0.0,0.0,0.0,0.0,0.0,0.0,-2.0286,-1.9581,-1.916,-1.8207,-1.7565,-1.731,-1.6474,-1.5733,-1.5109,-1.471,-1.3853,-1.2587,-1.2343,-1.173,-1.0892,-1.0719,-1.0354,-0.9855,-0.9311,-0.8985,-0.8741,-0.8205,-0.7618,-0.7104,-0.711,-0.672,-0.622,0.0,0.0,0.0,0.0,0.0,0.0,0.0,0.0,0.0,0.0,0.0,0.0,0.0,0.0,0.0,0.0,0.0,0.0,0.0,0.0,0.0,-1.5128,-0.9866,-0.7625,-0.9156,-0.1786,0.1194,-0.0609,-0.015,0.126,0.3539,0.2223,-0.0419,-0.3977,-0.3973,-0.4188,-0.4864,-0.9424,-0.9357,-0.6758,-1.3498,-1.399,-1.0468,-0.8592,-0.8622,-0.8624,-0.0868,0.5315,1.0012,1.1152,0.0,0.0,0.0,0.0,-0.0757,-0.446,-0.6453,-0.8416,-1.2733,-1.3975,-1.4676,-1.7294,-1.8937,-1.9993,-2.0307,-2.1327,-2.2245,-2.2197,-2.309,0.0,0.0,0.0,0.0,0.0,0.0,0.0,0.0,0.0,0.0,0.0,0.0,0.0,0.0,0.0,0.0,0.0,0.0,0.0,-2.0266,-1.9516,-1.8995,-1.873,-1.7278,-1.6649,-1.6912,-1.5574,-1.4931,-1.4968,-1.4184,-1.3376,-1.2591,-1.2081,-1.1512,-1.0912,-1.0851,-1.0431,-0.9778,-0.9436,-0.9031,-0.8571,-0.8214,-0.7549,-0.6766,-0.6757,-0.6276,-0.5575,0.0,0.0,0.0,0.0,0.0,0.0,0.0,0.0,0.0,0.0,-0.0122,-0.2333,0.0,0.0,0.0,0.0,0.0,0.0,-2.2288,0.0,0.0,-1.6905,-1.5132,-1.5514,-1.8367,-1.1605,-0.9573,-1.2675,-0.7429,-0.5316,-0.6188,-0.4719,-0.5138,-0.717,-0.8278,-0.926,-1.0073,-1.0833,-1.2432,-1.4384,-1.3105,-1.3244,-1.3945,-1.1269,-0.9155,-0.7232,-0.3844,-0.1689,-0.0072,0.2135,0.2827,0.0,0.0,0.0,-0.5448,-0.7503,-0.9795,-1.1817,-1.2484,-1.299,-1.3705,-1.5352,-1.6649,-1.7921,-1.9482,-2.007,-2.0465,0.0,0.0,0.0,0.0,0.0,0.0,0.0,0.0,0.0,0.0,0.0,0.0,0.0,0.0,0.0,0.0,0.0,0.0,0.0,0.0,0.0,-1.9322,-1.9161,-1.8417,-1.6914,-1.6639,-1.615,-1.5407,-1.5066,-1.4761,-1.4488,-1.3743,-1.3122,-1.2591,-1.2287,-1.1695,-1.0878,-1.0588,-1.0084,-0.9436,-0.9048,-0.8472,-0.7798,-0.7415,-0.6533,-0.5465,-0.5454,-0.4946,-0.4252,0.0,0.0,0.0,0.0,0.0,0.0,0.0,0.0,0.0,0.0,0.0,-0.5011,0.0,0.0,0.0,-2.2136,-2.366,-2.3702,-2.2184,-2.0162,-1.8061,-1.591,-1.5652,-1.6713,-1.9075,-1.4859,-1.3834,-1.6282,-1.2605,-1.0757,-1.0725,-1.1221,-1.1637,-1.2011,-1.3619,-1.4689,-1.5474,-1.6241,-1.6297,-1.5883,-1.6633,-1.6005,-1.4612,-1.4563,-1.464,-1.4301,-1.0799,-0.8963,-0.799,-0.6335,-0.6553,-0.7784,-0.9314,0.0,0.0,0.0,-1.5095,-1.4075,-1.2364,-1.24,-1.2915,-1.322,-1.4697,-1.6273,-1.7059,-1.8358,-1.9335,-1.9197,0.0,0.0,0.0,0.0,0.0,0.0,0.0,0.0,0.0,0.0,0.0,0.0,0.0,0.0,0.0,0.0,0.0,0.0,0.0,-1.9456,-1.8969,-1.8101,-1.7311,-1.6582,-1.6086,-1.5594,-1.5093,-1.4977,-1.4645,-1.4114,-1.356,-1.3125,-1.2796,-1.2396,-1.1702,-1.0872,-1.0394,-0.9893,-0.9347,-0.8842,-0.8277,-0.7676,-0.7512,-0.6685,-0.5586,-0.5606,-0.5229,-0.472,0.0,0.0,0.0,0.0,0.0,0.0,0.0,0.0,0.0,0.0,0.0,0.0,0.0,0.0,0.0,0.0,-2.4923,-2.3803,-2.113,-1.9888,-1.8001,-1.5252,-1.5708,-1.678,-1.8368,-1.6396,-1.6024,-1.7434,-1.5736,-1.4321,-1.3318,-1.5557,-1.6445,-1.6319,-1.7924,-1.9077,-1.9946,-2.1091,-2.0269,-1.8414,-2.0703,-1.9783,-1.7172,-1.8404,-1.9693,-2.0448,-1.7462,-1.5993,-1.5401,-1.5015,-1.5935,-1.739,-1.8331,-1.989,0.0,0.0,0.0,-1.5376,-1.2535,-1.1726,-1.1639,-1.1102,-1.2668,-1.4417,-1.4888,0.0,-1.7835,0.0,0.0,0.0,0.0,0.0,0.0,0.0,0.0,0.0,0.0,0.0,0.0,0.0,0.0,0.0,0.0,0.0,0.0,0.0,0.0,-1.8981,-1.8489,-1.7395,-1.6614,-1.6272,-1.564,-1.5248,-1.5154,-1.4973,-1.4592,-1.395,-1.3615,-1.3278,-1.2992,-1.2438,-1.1676,-1.0749,-1.0394,-0.9792,-0.9019,-0.8717,-0.8108,-0.74,-0.7314,-0.6533,-0.5406,-0.5318,-0.5023,-0.4648,0.0,0.0,0.0,0.0,0.0,0.0,0.0,0.0,0.0,0.0,0.0,0.0,-2.3928,-2.4459,-2.4957,-2.5332,-2.502,-2.3755,-2.1244,-1.9665,-1.8074,-1.6378,-1.687,0.0,-1.8657,-1.7629,-1.7314,-1.7787,-1.6226,-1.5138,-1.4529,-1.6245,-1.7733,-1.8962,-2.0063,-2.1358,-2.2811,-2.3272,-2.4199,-2.5266,-2.4043,-2.3831,-2.4118,-2.2773,-2.1947,-2.1589,-2.194,-2.2389,-2.2942,-2.4241,-2.4663,-2.4787,-2.56,-2.5399,-2.4623,0.0,0.0,0.0,-1.3087,-1.0946,-0.9352,-0.9191,-1.0405,-1.2041,0.0,0.0,0.0,0.0,0.0,0.0,0.0,0.0,0.0,0.0,0.0,0.0,0.0,0.0,0.0,0.0,0.0,0.0,0.0,0.0,0.0,0.0,0.0,-1.8843,-1.7631,-1.7539,-1.6875,-1.5411,-1.5329,-1.5304,-1.529,-1.5033,-1.463,-1.409,-1.3949,-1.3549,-1.2992,-1.2389,-1.1487,-1.0448,-1.0726,-0.9783,-0.8118,-0.8593,-0.7908,-0.6536,-0.6287,-0.5341,-0.4071,-0.3758,-0.3278,-0.2849,0.0,0.0,0.0,0.0,0.0,0.0,0.0,0.0,0.0,0.0,0.0,0.0,0.0,-2.5026,-2.5215,-2.5209,-2.4044,-2.2436,-2.0335,-1.8995,-1.7383,-1.5386,-1.6679,-1.7823,-1.8627,-1.7827,-1.7518,-1.7716,-1.6268,-1.505,-1.41,-1.5012,-1.6048,-1.7287,-1.9774,-2.1766,-2.3225,-2.3672,-2.4698,-2.6006,-2.5631,-2.6033,-2.6775,-2.5966,-2.5871,-2.6117,-2.5713,0.0,0.0,0.0,0.0,0.0,0.0,-2.6339,-2.5756,-2.3861,-2.1098,-1.8038,-1.4971,-1.2812,-1.093,-0.9022,-0.9493,-1.043,-1.0574,-1.1636,-1.2724,0.0,0.0,0.0,0.0,0.0,0.0,0.0,0.0,0.0,0.0,0.0,0.0,0.0,0.0,0.0,0.0,0.0,0.0,0.0,0.0,0.0,-1.7523,-1.6799,-1.6167,-1.5693,-1.5313,-1.5113,-1.5112,-1.5044,-1.4776,-1.4289,-1.4238,-1.3935,-1.3362,-1.2858,-1.1769,-1.0347,-1.0321,-0.9271,-0.7531,-0.7191,-0.6556,-0.5759,-0.5298,-0.4729,-0.4079,-0.3797,-0.3632,-0.3538,0.0,0.0,0.0,0.0,0.0,0.0,0.0,0.0,0.0,-1.931,0.0,0.0,0.0,0.0,-2.5129,-2.4868,-2.3065,-2.1153,-1.9218,-1.8087,-1.6725,-1.5027,-1.701,-1.8407,-1.8916,-1.8411,-1.801,-1.7715,-1.6103,-1.4744,-1.3815,-1.3896,-1.4395,-1.5365,-1.7497,-1.9952,-2.2488,-2.3217,-2.4488,-2.608,-2.6991,-2.7784,-2.8437,-2.8752,-2.905,-2.9261,0.0,0.0,0.0,0.0,0.0,0.0,0.0,-2.6891,-2.5937,-2.4264,-2.2412,-2.0223,-1.7119,-1.4845,-1.2673,-0.9972,-0.9388,-0.9432,-0.9074,0.0,-1.0318,0.0,0.0,0.0,0.0,0.0,0.0,0.0,0.0,0.0,0.0,0.0,0.0,0.0,0.0,0.0,0.0,0.0,0.0,0.0,0.0,0.0,-1.7328,-1.6342,-1.5683,-1.5535,-1.5212,-1.5065,-1.509,-1.4822,-1.4635,-1.4529,-1.4095,-1.3685,-1.3279,-1.2669,-1.1446,-0.9814,-0.9376,-0.8395,-0.7087,-0.6571,-0.5929,-0.5215,-0.4663,-0.4199,-0.3837,-0.3527,-0.3483,-0.357,0.0,0.0,0.0,0.0,0.0,0.0,0.0,0.0,-1.3718,-1.6386,0.0,0.0,0.0,0.0,0.0,-2.432,-2.2154,-1.9966,-1.8019,-1.6929,-1.6071,-1.5473,-1.8078,-1.96,-1.964,-1.9541,-1.8939,-1.7866,-1.5752,-1.4415,-1.3899,-1.3205,-1.3135,-1.3626,-1.3542,-1.6113,-2.0624,-2.1942,-2.3766,-2.5974,-2.8178,-2.9141,-2.946,-3.1156,-3.1319,0.0,-3.1468,-3.1768,0.0,-3.2653,0.0,0.0,0.0,-2.7412,-2.5344,-2.4883,-2.3618,-2.1821,0.0,0.0,0.0,-1.1959,0.0,0.0,-0.9419,0.0,0.0,0.0,0.0,0.0,0.0,0.0,0.0,0.0,0.0,0.0,0.0,0.0,0.0,0.0,0.0,0.0,0.0,0.0,0.0,0.0,0.0,-1.706,-1.6989,-1.6273,-1.555,-1.4821,-1.4943,-1.5109,-1.5254,-1.4313,-1.4147,-1.4721,-1.3484,-1.2818,-1.2654,-1.1784,-1.0494,-0.8865,-0.7995,-0.7301,-0.6782,-0.6808,-0.6101,-0.4898,-0.4283,-0.3708,-0.3149,-0.2789,-0.2642,-0.265,0.0,0.0,0.0,0.0,0.0,-1.6409,-1.601,-1.5995,-1.6454,0.0,0.0,0.0,-2.1557,-2.3651,-2.4524,-2.3403,-2.0453,-1.8284,-1.7437,-1.592,-1.5527,-1.6663,-1.9446,-2.0856,-2.0687,-2.1176,-2.0709,-1.9245,-1.8031,-1.697,-1.6031,-1.4949,-1.4429,-1.4325,-1.3864,-1.4771,-1.6886,-1.9045,-2.2171,-2.5709,-2.7152,-2.9099,-3.1207,-3.1684,0.0,0.0,0.0,-3.3093,-3.3527,0.0,-3.2284,-3.1039,0.0,-2.7612,-2.6073,-2.5783,-2.4804,-2.3412,-2.1556,0.0,0.0,0.0,0.0,0.0,0.0,0.0,0.0,0.0,0.0,0.0,0.0,0.0,0.0,0.0,0.0,0.0,0.0,0.0,0.0,0.0,0.0,0.0,0.0,0.0,0.0,0.0,-1.5536,-1.5478,-1.6369,-1.5758,-1.5193,-1.4734,-1.3893,-1.362,-1.3993,-1.3266,-1.2973,-1.3127,-1.2782,-1.2461,-1.2174,-1.17,-1.0658,-0.923,-0.8436,-0.7327,-0.6019,-0.5301,-0.47,-0.4115,-0.3226,-0.2858,-0.2724,-0.1745,-0.1535,-0.1682,0.0,0.0,0.0,0.0,0.0,-1.8922,-1.8346,-1.7663,-1.7419,0.0,0.0,0.0,-2.384,-2.4779,-2.4676,-2.3303,-2.0217,-1.8066,-1.737,-1.6323,-1.6405,-1.7894,-2.0668,-2.2065,-2.1869,-2.2464,-2.2079,-2.0616,-1.9677,-1.8699,-1.7748,-1.6305,-1.5356,-1.4765,-1.3672,-1.3847,-1.5072,-1.6905,-2.0044,-2.3916,-2.6392,-2.8694,0.0,-3.2008,-3.3079,0.0,0.0,0.0,-3.3816,-3.3615,-3.2494,0.0,0.0,0.0,-2.6117,-2.5901,-2.5147,-2.4124,-2.3085,-2.2018,-2.0761,-1.8875,0.0,0.0,-1.1066,-0.8328,0.0,0.0,0.0,0.0,0.0,0.0,0.0,0.0,0.0,0.0,0.0,0.0,0.0,0.0,0.0,0.0,0.0,0.0,0.0,-1.4107,-1.3599,-1.3565,-1.4255,-1.4298,-1.4186,-1.3866,-1.3194,-1.2957,-1.3216,-1.2531,-1.2275,-1.2419,-1.2018,-1.1734,-1.1579,-1.1213,-1.0244,-0.8831,-0.8278,-0.7231,-0.5836,-0.4749,-0.4078,-0.365,-0.283,-0.2444,-0.2232,-0.1533,-0.1054,-0.0605,0.0,0.0,-2.3446,-2.3036,-2.1697,-2.0652,-2.0616,-1.8992,-1.8081,0.0,-2.0948,-2.3577,-2.7081,-2.656,-2.5378,-2.3925,-2.1092,-1.9016,-1.8129,-1.7911,-1.8289,-1.9481,-2.1898,-2.3168,-2.3103,-2.3611,-2.3289,-2.2184,-2.1292,-2.0399,-1.9504,-1.7845,-1.6547,-1.5466,-1.3811,-1.3701,-1.4868,-1.5825,-1.8144,-2.1528,-2.5678,-2.8097,0.0,0.0,-3.3103,-3.3301,-3.3952,-3.3771,-3.3297,-3.3774,-3.2403,0.0,0.0,0.0,0.0,0.0,-2.4917,-2.4328,-2.4034,-2.3494,-2.2833,0.0,0.0,0.0,-1.4002,-1.0416,-0.6783,0.0,0.0,0.0,0.0,0.0,0.0,0.0,0.0,0.0,0.0,0.0,0.0,0.0,0.0,0.0,0.0,-1.1892,-1.1819,-1.1556,-1.1598,-1.1608,-1.1566,-1.2384,-1.2756,-1.2534,-1.2476,-1.2428,-1.2378,-1.1773,-1.159,-1.1884,-1.1093,-1.0742,-1.0789,-1.0476,-0.9327,-0.7572,-0.7387,-0.6505,-0.5129,-0.4125,-0.3488,-0.3045,-0.2452,-0.1912,-0.1471,-0.1356,-0.0641,0.0583,0.0,-2.3652,-2.4728,-2.4655,-2.4799,-2.4793,-2.4486,-2.3681,-2.307,-2.2948,-2.3749,-2.4924,-2.6533,-2.6893,-2.6465,-2.5078,-2.2755,-2.148,-2.1736,-2.0303,-2.0459,-2.2758,-2.3477,-2.4007,-2.4409,-2.5101,-2.5155,-2.4541,-2.4759,-2.4181,-2.2847,-2.1818,-2.0239,-1.8266,-1.7247,-1.645,-1.6052,-1.7714,-1.9386,-2.1247,-2.447,-2.766,-3.0637,-3.1571,-3.2474,-3.3293,-3.3385,-3.3354,-3.3176,-3.2499,-3.1832,-3.0912,0.0,0.0,0.0,-2.5136,0.0,0.0,0.0,0.0,0.0,0.0,0.0,0.0,-1.7454,-1.3258,-0.8613,0.0,0.0,0.0,0.0,0.0,0.0,0.0,0.0,0.0,0.0,0.0,0.0,0.0,0.0,0.0,0.0,-0.9415,-0.9694,-0.9935,-1.0365,-1.0804,-1.1259,-1.13,-1.1339,-1.1328,-1.0261,-0.9723,-0.9829,-0.9476,-0.9319,-0.9322,-0.9519,-0.9598,-0.9562,-0.9804,-0.7899,-0.4414,-0.4794,-0.2914,0.039,0.004,-0.0345,-0.0582,0.0448,0.0719,0.063,0.1449,0.1889,0.2146,-2.4011,-2.4878,-2.535,-2.5343,-2.5876,-2.6211,-2.5974,-2.5952,-2.5965,-2.6032,-2.6766,-2.7714,-2.8824,-2.8746,-2.8089,-2.6847,-2.5014,-2.391,-2.3847,-2.312,-2.353,-2.5412,-2.5846,-2.5918,-2.5652,-2.6444,-2.6446,-2.5651,-2.6246,-2.5862,-2.4521,-2.3586,-2.1986,-1.9878,-1.9051,-1.8458,-1.818,-1.9373,-2.0884,-2.2719,-2.4689,0.0,-3.0167,-3.1193,-3.2285,-3.3255,-3.3258,-3.2951,-3.2402,-3.1506,-3.0733,0.0,0.0,-2.7719,-2.6486,0.0,-2.4715,-2.462,0.0,0.0,0.0,-2.5083,0.0,0.0,0.0,-1.675,-1.3026,-0.9502,0.0,0.0,0.0,0.0,0.0,0.0,0.0,0.0,0.0,0.0,0.0,0.0,0.0,0.0,0.0,-0.5285,-0.5731,-0.6107,-0.6868,-0.7602,-0.8275,-0.8765,-0.9032,-0.9151,-0.8369,-0.7897,-0.7796,-0.7804,-0.7739,-0.7614,-0.8046,-0.8084,-0.7752,-0.7887,-0.5997,-0.2507,-0.091,0.099,0.3058,0.4429,0.4705,0.4267,0.4141,0.3964,0.3853,0.4369,0.4543,0.454,-2.5095,-2.5488,-2.5616,-2.5729,-2.6306,-2.6766,-2.6852,-2.744,-2.8051,-2.8539,-2.9484,-3.0417,-3.115,-3.0477,-2.957,-2.8633,-2.7426,-2.6531,-2.6166,-2.6133,-2.6645,-2.7766,-2.7963,-2.7656,-2.6784,-2.7604,-2.7578,-2.6634,-2.7319,-2.705,-2.5856,-2.4885,-2.3328,-2.1342,-2.0603,-2.0321,-2.0439,-2.0986,-2.2432,-2.4446,0.0,-2.7115,-2.8988,-3.0285,-3.1363,-3.223,-3.2303,-3.1796,-3.0981,-3.0322,-2.939,-2.8479,-2.8427,-2.7221,0.0,0.0,0.0,0.0,0.0,0.0,0.0,0.0,0.0,-2.3676,0.0,0.0,0.0,-1.4498,0.0,0.0,0.0,0.0,0.0,0.0,0.0,0.0,0.0,0.0,0.0,0.0,0.0,0.0,0.0,-0.0802,-0.1593,-0.2189,-0.3008,-0.382,-0.4656,-0.5606,-0.6205,-0.6388,-0.6248,-0.6074,-0.5873,-0.6176,-0.6211,-0.5997,-0.6314,-0.616,-0.5633,-0.5374,-0.3535,-0.0416,0.2596,0.4285,0.5125,0.7881,0.8883,0.854,0.7371,0.6828,0.6713,0.6691,0.6694,0.6709,-2.5519,-2.5586,-2.5687,-2.6217,-2.6997,-2.7788,-2.8428,-2.934,-3.0067,-3.0378,-3.1125,-3.1387,-3.0684,-3.0335,-3.0068,-2.9821,-2.9485,-2.9641,-3.0522,-2.9206,-2.8917,-3.0001,-2.8675,-2.7869,-2.7733,-2.8535,-2.8828,-2.8579,-2.9306,-2.9082,-2.793,-2.7094,-2.5632,-2.3698,-2.3006,-2.2478,-2.2154,-2.2817,-2.3792,0.0,-2.6387,-2.7174,0.0,-2.7721,-2.8164,-2.8695,-2.8824,-2.8677,-2.8435,0.0,-2.7942,-2.7204,0.0,-2.5734,-2.5224,-2.3484,0.0,0.0,0.0,0.0,0.0,0.0,-2.5105,0.0,0.0,0.0,-1.8913,-1.505,0.0,0.0,0.0,0.0,0.0,0.0,0.0,0.0,0.0,0.0,0.0,0.0,0.0,0.0,0.0,0.0,0.1245,-0.0213,-0.0308,-0.0818,-0.2031,-0.2336,-0.2686,-0.3104,-0.3243,-0.3385,-0.3577,-0.4023,-0.41,-0.3857,-0.3776,-0.3579,-0.3262,-0.2541,-0.0133,0.3451,0.3768,0.5695,0.8604,0.871,0.8798,0.8831,0.8495,0.8032,0.7546,0.7366,0.7405,0.7533,-2.5525,-2.5565,-2.5683,-2.6287,-2.7084,-2.7854,-2.8472,-3.041,-3.1902,-3.2118,-3.2898,-3.3234,-3.2759,-3.2618,-3.2339,-3.1744,0.0,-3.2135,0.0,0.0,-3.1438,-3.1889,-3.1312,-3.0505,-2.9492,-3.0299,-3.0174,-2.9061,-2.9815,-2.9632,-2.8568,-2.7606,-2.6157,-2.4327,-2.4288,-2.4207,-2.4125,-2.476,-2.5627,0.0,0.0,0.0,0.0,-2.7667,-2.8106,-2.8161,-2.8278,-2.8193,-2.8061,0.0,-2.7469,0.0,0.0,0.0,0.0,0.0,0.0,0.0,0.0,0.0,0.0,0.0,0.0,0.0,-2.4264,0.0,-2.2138,0.0,0.0,0.0,0.0,0.0,0.0,0.0,0.5785,0.0,0.0,0.0,0.0,0.0,0.0,0.0,0.0,0.0,0.0,0.0,0.0,0.2465,0.0652,0.016,-0.0354,-0.0956,-0.0634,-0.0539,-0.082,-0.101,-0.0974,-0.0712,-0.1241,-0.1011,-0.0098,0.0354,0.2291,0.528,0.557,0.7173,0.9536,0.9392,0.9411,0.9521,0.9452,0.8945,0.8285,0.8272,0.827,0.8283,-2.5628,-2.5736,-2.597,-2.6832,-2.7654,-2.8594,-2.9785,-3.2092,-3.3677,-3.3587,-3.4516,-3.4878,-3.4032,-3.3924,0.0,0.0,-3.3191,-3.3059,0.0,0.0,-3.2868,0.0,0.0,0.0,0.0,-3.1668,-3.1472,-3.0234,-3.0564,-3.0297,-2.9484,-2.8307,-2.6827,-2.512,-2.5236,-2.5394,-2.5596,0.0,-2.6858,-2.7792,-2.7447,-2.6932,-2.6429,-2.7399,-2.7633,-2.7471,-2.7556,-2.7505,-2.7415,-2.74,-2.6768,0.0,-2.6132,0.0,0.0,0.0,0.0,0.0,-2.4136,0.0,0.0,0.0,0.0,0.0,0.0,0.0,0.0,0.0,0.0,0.0,0.0,0.0,0.0,0.0,0.0,0.8657,0.0,0.0,0.0,0.0,0.0,0.0,0.0,0.0,0.0,0.8776,0.7385,0.5708,0.3764,0.3045,0.2352,0.1571,0.2022,0.2067,0.1617,0.1547,0.1663,0.1951,0.1286,0.1597,0.2746,0.3264,0.4553,0.6412,0.7142,0.8252,0.9531,0.9627,0.9724,0.9841,0.983,0.9431,0.8879,0.8994,0.8997,0.897,-2.5988,-2.6195,-2.6726,-2.8185,-2.915,-3.0694,-3.35,-3.494,-3.543,0.0,0.0,0.0,0.0,0.0,0.0,0.0,0.0,-3.1756,-3.1698,0.0,-3.2557,0.0,0.0,-3.2254,0.0,0.0,-3.2607,-3.2871,-3.2113,-3.1601,-3.1284,-2.9901,-2.8298,-2.6597,-2.605,-2.5966,-2.6262,-2.6278,-2.688,-2.7877,-2.8613,-2.8215,-2.705,0.0,-2.5586,-2.5609,-2.5737,0.0,0.0,-2.5609,-2.5381,0.0,0.0,0.0,0.0,0.0,0.0,0.0,0.0,0.0,0.0,-2.4678,0.0,0.0,0.0,0.0,-2.3548,0.0,0.0,0.0,0.0,0.0,-1.4284,-0.5128,0.1241,0.0,0.0,0.0,0.0,0.0,0.0,0.0,0.0,0.0,0.0,1.2013,1.043,0.8871,0.7524,0.6699,0.582,0.495,0.4835,0.4361,0.341,0.3155,0.324,0.3616,0.3845,0.4261,0.4855,0.6227,0.694,0.7127,0.8173,0.8715,0.8863,0.9178,0.9346,0.9421,0.9412,0.9358,0.9286,0.9356,0.9457,0.9543,-2.7318,-2.7982,-2.8518,-2.9216,-2.9679,-3.1096,0.0,-3.6396,0.0,0.0,-3.7102,0.0,0.0,-3.3775,-3.3199,0.0,0.0,-3.2275,-3.1737,-3.2987,0.0,0.0,0.0,-3.3527,0.0,0.0,0.0,-3.267,-3.1907,-3.1579,-3.1621,-2.9453,-2.7834,-2.6736,-2.5947,-2.6057,0.0,0.0,0.0,0.0,0.0,-2.7337,-2.7069,0.0,0.0,-2.5503,-2.5603,-2.5625,0.0,-2.5511,-2.533,-2.5061,-2.4858,-2.4416,-2.393,-2.3617,-2.3369,0.0,0.0,0.0,-2.3584,-2.4155,0.0,0.0,0.0,0.0,0.0,0.0,0.0,0.0,0.0,0.0,-1.407,-0.4461,0.1689,0.82,0.0,0.0,0.0,0.0,0.0,0.0,0.0,0.0,0.0,1.4752,1.3158,1.1245,0.0,0.8273,0.7309,0.5981,0.6107,0.5879,0.5287,0.4899,0.5079,0.5812,0.513,0.5302,0.6176,0.679,0.7092,0.7138,0.7943,0.8443,0.867,0.8795,0.8891,0.8985,0.8861,0.8734,0.8695,0.9207,0.94,0.9417,-2.8238,-2.9165,-2.9746,-3.0173,0.0,0.0,0.0,0.0,0.0,0.0,-3.7577,0.0,-3.4456,0.0,-3.3179,0.0,-3.2179,-3.2256,-3.1737,-3.2987,0.0,-3.218,-3.338,0.0,0.0,0.0,0.0,0.0,-3.2229,-3.1976,-3.1616,-2.921,-2.7625,-2.6762,-2.5771,-2.5757,-2.6439,-2.6784,-2.7657,0.0,0.0,-2.6786,0.0,0.0,-2.5367,-2.5517,0.0,-2.5623,-2.5611,-2.5539,-2.535,-2.5101,-2.4885,-2.4416,-2.3948,-2.3635,-2.3282,-2.3052,-2.3193,-2.3118,0.0,-2.3605,-2.345,0.0,-2.3045,0.0,0.0,0.0,0.0,0.0,0.0,0.0,-1.3601,-0.4031,0.2183,0.8623,0.0,1.6177,0.0,0.0,0.0,0.0,0.0,0.0,1.8448,1.726,1.5283,1.316,0.0,0.0,0.8611,0.752,0.7449,0.7195,0.6668,0.637,0.6535,0.7079,0.6259,0.6358,0.7223,0.7241,0.7275,0.7387,0.7798,0.8075,0.8232,0.8364,0.8436,0.8441,0.8309,0.8195,0.819,0.8706,0.8913,0.9002,-2.8772,-2.9756,0.0,0.0,-3.346,0.0,0.0,0.0,-3.8205,0.0,-3.7364,-3.6129,-3.4283,-3.3333,-3.2526,-3.1718,-3.1641,-3.1641,-3.1641,-3.2391,0.0,0.0,-3.1858,-3.1808,-3.0978,0.0,0.0,0.0,0.0,-3.2691,-3.1326,-2.9235,-2.7729,-2.6786,-2.5599,-2.5127,-2.5329,-2.5981,-2.6787,-2.7555,-2.6673,-2.6673,-2.7,-2.5551,-2.5206,-2.5493,-2.5567,-2.5636,-2.5683,-2.5551,-2.5368,-2.5139,-2.4835,-2.436,-2.3818,-2.3249,-2.2849,-2.2591,-2.26,-2.2617,-2.2694,-2.3052,0.0,0.0,0.0,0.0,-2.1955,0.0,0.0,0.0,0.0,0.0,0.0,-0.4364,0.2138,0.8682,1.6104,0.0,0.0,0.0,0.0,0.0,0.0,2.1306,2.0543,1.9371,1.673,1.4485,0.0,0.0,0.9789,0.9464,0.8974,0.8364,0.7623,0.7586,0.7547,0.7452,0.7242,0.7433,0.7965,0.7667,0.7621,0.7761,0.7769,0.7665,0.7517,0.7909,0.7936,0.7766,0.7766,0.7752,0.7751,0.7928,0.814,0.8414,-2.9588,-3.134,-3.3009,0.0,-3.6094,-3.7651,0.0,0.0,0.0,0.0,-3.6363,-3.4963,-3.2602,-3.2141,-3.166,-3.0814,-3.0737,0.0,0.0,0.0,0.0,-3.0175,-3.1448,-3.1634,-3.0428,-3.1518,0.0,-3.1533,0.0,-3.1265,-3.1051,-2.8616,-2.7478,-2.7373,-2.5183,-2.4983,-2.628,-2.6158,-2.681,-2.7901,-2.7079,-2.6667,0.0,0.0,-2.5178,-2.5441,-2.5493,-2.5564,-2.56,-2.5522,-2.5368,-2.505,-2.4125,-2.3484,-2.2886,-2.1825,-2.1248,-2.1073,-2.149,-2.1326,-2.13,-2.2163,-2.1967,-2.1606,0.0,0.0,0.0,0.0,0.0,0.0,0.0,0.0,0.0,-0.829,-0.3024,0.1183,0.0,0.0,0.0,0.9875,0.0,0.0,2.1902,2.2021,2.1,1.942,1.753,1.5359,0.0,0.0,0.0,1.0497,0.9414,0.8928,0.9148,0.7997,0.7621,0.7982,0.8001,0.7842,0.7566,0.7769,0.7679,0.735,0.7355,0.7326,0.7273,0.7396,0.7412,0.7351,0.7178,0.7031,0.6999,0.7794,0.8322,0.8711,-3.1417,-3.3515,0.0,-3.6753,0.0,0.0,-3.8627,-3.9046,0.0,-3.745,-3.5911,0.0,-3.2949,-3.1468,-3.0525,-3.0398,-3.0044,0.0,-3.0929,0.0,0.0,-3.0278,-3.0808,-3.0675,-2.9696,-3.0467,0.0,-3.0294,0.0,-3.0394,-2.9967,-2.8481,-2.7624,-2.7304,-2.5306,-2.5056,-2.615,-2.6371,-2.6805,-2.7296,-2.6999,0.0,0.0,-2.5323,-2.5156,-2.5379,-2.5477,-2.5547,-2.5593,-2.5525,-2.5078,-2.4414,-2.3714,-2.2794,-2.1816,-2.1099,-2.058,-2.0294,-2.0603,-2.0371,-2.0268,-2.1178,-2.0999,-2.0622,-2.0878,-2.0636,-2.0249,0.0,0.0,0.0,0.0,0.0,0.0,-0.8085,-0.6128,0.0,0.0,0.0,0.0,0.0,0.8494,0.0,1.9931,2.1648,2.1562,1.9736,1.8135,0.0,0.0,0.0,0.0,1.1275,1.0084,0.9533,0.9694,0.9013,0.8437,0.7947,0.822,0.8049,0.7544,0.7843,0.7908,0.7763,0.7543,0.7399,0.7271,0.7033,0.6929,0.6917,0.6811,0.6808,0.6945,0.7605,0.8057,0.8424,-3.3494,0.0,0.0,0.0,0.0,0.0,0.0,-3.8293,0.0,-3.742,0.0,-3.3628,-3.3545,-3.0775,-2.9256,-3.0006,0.0,-2.9583,-3.1102,-3.0602,-3.0368,-3.0707,-3.0052,-2.9514,-2.9067,-2.9719,-2.9751,0.0,0.0,-2.9942,-2.8983,-2.8675,-2.8108,-2.7273,-2.5923,-2.5366,-2.5538,-2.6792,-2.6907,-2.625,-2.6748,-2.6594,-2.6009,-2.5265,-2.5111,-2.5322,-2.5459,-2.5543,-2.5551,-2.5392,-2.4658,-2.3704,-2.3322,-2.2138,-2.088,-2.0667,-2.0239,-1.9821,-1.9841,-1.9519,-1.9355,-2.0122,-1.9941,-1.9688,-1.9875,-1.9597,-1.9177,-1.8777,-1.8338,-1.7867,0.0,0.0,0.0,0.0,0.0,0.0,0.0,0.0,0.0,0.0,0.0,0.0,0.0,2.0521,2.1807,2.0036,1.8403,0.0,0.0,0.0,0.0,1.1783,1.0668,0.0,0.9694,0.0,0.9179,0.7665,0.8173,0.8156,0.7705,0.7919,0.8111,0.8248,0.7889,0.754,0.722,0.6769,0.66,0.6599,0.6629,0.6855,0.7195,0.7462,0.7695,0.7961,-3.4337,0.0,0.0,0.0,0.0,-3.6214,-3.6253,-3.5837,-3.502,-3.3719,-3.1904,-3.0546,-3.0052,-2.8871,-2.8159,-2.8313,-2.8198,0.0,0.0,0.0,0.0,-2.9189,-2.9515,-2.957,-2.933,-2.9241,-2.9444,0.0,0.0,-2.994,-3.0575,-2.9341,-2.8831,-2.8912,-2.7249,-2.6213,-2.5861,-2.7725,0.0,-2.5881,-2.6787,-2.6479,-2.5425,-2.5122,-2.5111,-2.5322,-2.5459,-2.5517,-2.5418,-2.474,-2.4375,-2.3888,-2.2089,-2.1305,-2.0792,-1.9417,-1.8995,-1.9004,-1.9098,-1.8318,-1.7785,-1.8893,-1.8377,-1.7733,-1.8191,-1.7999,-1.7787,-1.8138,-1.7814,-1.7435,-1.7312,0.0,0.0,0.0,0.0,0.0,0.0,0.0,0.0,0.0,0.0,0.4718,0.0,0.0,0.0,0.0,0.0,0.0,0.0,0.0,0.0,0.0,0.0,0.0,0.0,0.0,0.7961,0.8088,0.8243,0.8105,0.7715,0.8094,0.7829,0.7106,0.7247,0.6956,0.6426,0.6552,0.6591,0.6629,0.6778,0.6898,0.7048,0.7737,0.8026,0.8148,-3.4741,0.0,0.0,0.0,0.0,0.0,0.0,-3.2377,0.0,-3.2383,-3.1416,-3.04,-2.9704,-2.8203,-2.7409,-2.7852,-2.7486,-2.7409,-2.7871,-2.8255,-2.8361,-2.8145,-2.8392,0.0,-2.8895,-2.8353,-2.8892,-3.0574,0.0,0.0,-3.0518,-2.9952,-2.9498,-2.9078,-2.7913,-2.6908,0.0,0.0,0.0,-2.6039,-2.6494,-2.6066,-2.5152,-2.5152,-2.5152,-2.5118,-2.4891,-2.4822,-2.4775,-2.4424,-2.3949,-2.3242,-2.1618,-2.0546,-1.9733,-1.886,-1.8318,-1.804,-1.8068,-1.737,-1.6924,-1.7843,-1.7333,-1.6656,-1.6994,-1.6973,-1.6871,-1.6851,-1.6868,-1.6879,-1.6879,-1.6909,0.0,0.0,0.0,0.0,0.0,0.0,0.0,0.0,0.0,0.0,0.0,0.0,0.0,0.0,0.0,0.0,0.0,0.0,0.0,0.0,0.0,0.0,0.0,0.0,0.0,0.7577,0.8022,0.7844,0.7098,0.7667,0.7796,0.756,0.7127,0.7013,0.7108,0.6859,0.6599,0.6421,0.6659,0.6874,0.7109,0.7606,0.7993,0.8335,0.0,-3.5982,0.0,0.0,-3.471,0.0,-3.0996,-2.9381,-2.9151,-3.0977,-3.0598,-2.9961,-2.941,-2.7535,-2.6601,-2.7294,-2.6717,-2.6621,-2.7294,-2.7525,-2.7528,-2.7326,-2.7439,-2.7723,-2.8196,-2.7544,-2.8294,0.0,0.0,0.0,0.0,-3.0488,-2.9926,0.0,0.0,0.0,0.0,0.0,-2.651,-2.6097,-2.6187,-2.573,-2.5022,-2.5192,-2.5026,-2.4694,-2.4328,-2.4093,-2.3914,-2.3788,-2.3228,-2.2365,-2.1196,-2.0007,-1.9002,-1.8699,-1.8013,-1.7342,-1.7304,-1.6664,-1.6159,-1.6793,-1.6276,-1.5703,-1.5895,-1.5979,-1.5893,-1.5613,-1.5957,-1.6426,-1.6612,-1.6909,0.0,0.0,0.0,0.0,0.0,0.0,0.0,0.0,0.0,0.0,0.4449,0.0,0.0,0.0,0.0,0.0,0.0,0.0,0.0,0.0,0.0,0.9271,0.9151,0.0,0.8265,0.0,0.7538,0.7389,0.6652,0.7154,0.756,0.7855,0.698,0.6987,0.7561,0.6987,0.6569,0.632,0.66,0.6917,0.7243,0.753,0.7947,0.8482,0.0,0.0,0.0,0.0,0.0,0.0,-3.0294,-2.8305,-2.7039,-2.7608,-2.6978,-2.6617,-2.6894,-2.6033,-2.5437,-2.5534,-2.5457,-2.5457,-2.5534,-2.6274,-2.6706,-2.6696,-2.7217,-2.7527,-2.7575,-2.7343,-2.7816,0.0,0.0,-2.9885,0.0,0.0,0.0,0.0,0.0,0.0,0.0,-2.7091,-2.6638,-2.5446,-2.6051,-2.5761,-2.501,-2.5022,-2.4553,-2.3927,-2.4134,-2.3725,-2.2995,-2.2204,-2.1876,-2.158,-2.0327,-1.9922,-1.9724,-1.8859,-1.8104,-1.7541,-1.7358,-1.6192,-1.515,-1.5652,-1.4921,-1.4226,-1.4743,-1.4585,-1.4449,-1.489,-1.5392,-1.6071,-1.7055,-1.6879,-1.671,0.0,0.0,0.0,0.0,0.0,0.0,-1.5175,0.0,0.0,0.0,0.2693,0.0,0.0,0.0,0.0,0.0,0.0,0.0,0.9309,0.0,0.7733,0.7333,0.6675,0.0,0.6825,0.6589,0.6674,0.7041,0.6739,0.6594,0.6565,0.6341,0.6287,0.6364,0.6292,0.6374,0.6596,0.7,0.7156,0.7272,0.7834,0.8195,0.8533,0.0,0.0,0.0,0.0,0.0,0.0,0.0,-2.6502,-2.5856,-2.5781,-2.5906,-2.5891,-2.5545,-2.5382,-2.5303,-2.5303,-2.5303,-2.5303,-2.5303,-2.563,-2.5832,-2.5832,-2.6058,-2.6427,-2.6945,-2.6918,-2.7629,0.0,0.0,0.0,0.0,0.0,0.0,0.0,0.0,-2.7185,-2.6955,-2.6419,-2.606,-2.5884,-2.5626,-2.4898,-2.3988,-2.406,-2.3536,-2.2703,-2.2565,-2.2311,-2.1913,-2.116,-2.1274,-2.1502,-2.0345,-1.9846,-1.9563,-1.8922,-1.8049,-1.7214,-1.677,-1.5849,-1.4998,-1.4956,-1.441,-1.3967,-1.4158,-1.4153,-1.4148,-1.4374,-1.5117,-1.5838,-1.6245,-1.641,-1.6552,0.0,0.0,0.0,0.0,0.0,0.0,0.0,0.0,-1.2643,0.0,0.0,0.0294,0.0,0.0,0.0,0.0,0.0,0.0,0.9525,0.0,0.7067,0.7127,0.667,0.6465,0.6439,0.6813,0.6892,0.6743,0.6813,0.6693,0.6401,0.6649,0.679,0.6826,0.6517,0.6663,0.7086,0.7044,0.7093,0.7317,0.8241,0.8789,0.9185,-2.8694,0.0,-2.8644,0.0,-2.7669,-2.7365,-2.566,-2.5201,-2.4856,-2.4332,-2.4851,-2.5181,-2.4961,-2.4949,-2.5043,-2.5284,-2.5303,-2.5303,-2.5303,-2.5303,-2.5303,-2.5303,-2.5322,0.0,-2.6236,-2.63,-2.6935,-2.81,-2.8422,0.0,0.0,0.0,0.0,0.0,-2.6779,-2.6691,-2.6778,-2.5742,-2.5538,-2.5837,-2.4924,-2.4063,-2.3279,-2.3112,-2.2464,-2.162,-2.1443,-2.1221,-2.0942,-2.0521,-2.0774,-2.1134,-2.0299,-1.9781,-1.9391,-1.8888,-1.7847,-1.6777,-1.6327,-1.5564,-1.4814,-1.4406,-1.4032,-1.3669,-1.3522,-1.3566,-1.3667,-1.3828,-1.4587,-1.5266,-1.5429,-1.5906,-1.6271,-1.6271,0.0,0.0,0.0,0.0,0.0,0.0,-1.8168,-1.6573,-1.3615,-0.9951,0.0,0.0,0.0,0.0,0.0,0.0,0.0,0.0,0.0,0.0,0.0,0.6815,0.6673,0.6373,0.6949,0.7037,0.6683,0.6962,0.6844,0.6414,0.688,0.7164,0.7281,0.6853,0.6953,0.7396,0.732,0.7252,0.7361,0.8772,0.9382,0.967,-2.6916,-2.7104,-2.7067,-2.6266,-2.5746,-2.5439,-2.5403,-2.4722,-2.3933,-2.3125,-2.3316,-2.3986,-2.5157,-2.4582,-2.4428,-2.5226,-2.5303,-2.5303,-2.5303,-2.5303,-2.5303,0.0,0.0,-2.5413,-2.5413,-2.5471,-2.5522,-2.5547,0.0,0.0,-2.8042,0.0,-2.8198,-2.6621,-2.6601,-2.614,-2.5322,-2.5303,-2.5192,-2.4941,-2.3922,-2.3427,-2.3207,-2.2346,-2.1511,-2.0868,-2.1183,-2.0794,-2.0133,-2.026,-2.0312,-2.0269,-1.998,-1.9714,-1.9383,-1.8789,-1.7569,-1.6369,-1.6246,-1.5374,-1.4406,-1.4032,-1.3547,-1.3094,-1.2615,-1.2508,-1.2663,-1.3211,-1.3754,-1.4274,-1.4815,-1.5329,-1.5706,-1.5706,0.0,0.0,0.0,0.0,0.0,0.0,-2.117,-2.102,-2.0963,0.0,0.0,0.0,0.0,0.0,0.0,0.0,0.0,0.5904,0.663,0.0,0.6,0.6515,0.6799,0.6789,0.6796,0.6919,0.71,0.711,0.6846,0.6416,0.6815,0.7124,0.7297,0.7154,0.7214,0.7454,0.7975,0.7778,0.7446,0.9452,0.9891,0.975,-2.4791,-2.465,-2.4497,-2.4464,-2.4085,-2.3768,-2.3768,-2.307,-2.255,-2.2525,-2.2093,-2.2273,-2.3458,-2.337,-2.3312,0.0,-2.4139,-2.4485,0.0,-2.5005,-2.5322,-2.5363,-2.5383,-2.5415,-2.5477,-2.5492,-2.5504,-2.5508,0.0,0.0,0.0,-2.7295,-2.6794,-2.5707,-2.5707,-2.5553,-2.5284,-2.5152,-2.5005,-2.4747,-2.3568,-2.2659,-2.1899,-2.088,-2.01,-1.9595,-1.9796,-1.9888,-1.9936,-2.0172,-2.0265,-2.0283,-2.0144,-1.9859,-1.9452,-1.8906,-1.7538,-1.6144,-1.5796,-1.4914,-1.3921,-1.3148,-1.2814,-1.2685,-1.2544,-1.2756,-1.3027,-1.32,-1.3677,-1.4135,-1.4311,-1.5104,-1.5567,-1.5191,-1.6218,0.0,0.0,0.0,0.0,0.0,-2.1501,-2.1708,0.0,-1.8839,0.0,0.0,0.0,0.0,0.0,0.0,0.0,0.0,0.6173,0.0,0.5995,0.652,0.6673,0.6403,0.6949,0.7307,0.75,0.7502,0.7423,0.7267,0.7124,0.7348,0.772,0.6991,0.7083,0.7651,0.7563,0.7856,0.8542,0.9947,1.0784,1.1368,-2.3209,-2.2987,-2.2828,-2.3008,-2.2768,-2.2574,-2.2608,-2.2201,-2.185,-2.1813,-2.1393,-2.1252,-2.1703,-2.1833,0.0,-2.2754,-2.3302,-2.3762,-2.4113,-2.4615,-2.5043,-2.5415,-2.5465,-2.5484,-2.5543,0.0,0.0,-2.5494,-2.5952,-2.6111,-2.6009,-2.6081,-2.5751,-2.5115,-2.5152,-2.5171,-2.5103,-2.4981,-2.4666,-2.4125,-2.2928,-2.1771,-2.0656,-1.9712,-1.9069,-1.8717,-1.9057,-1.9302,-1.9494,-2.0003,-2.0123,-2.0088,-2.0166,-1.9977,-1.9588,-1.8966,-1.7531,-1.6049,-1.5613,-1.4718,-1.3656,-1.2743,-1.2508,-1.2389,-1.2018,-1.2162,-1.2378,-1.2378,-1.265,-1.2899,-1.2899,-1.3638,-1.4113,-1.378,-1.5443,-1.6833,-1.7099,0.0,0.0,0.0,0.0,0.0,0.0,-2.0582,0.0,0.0,0.0,0.0,0.0,0.0,0.0,0.546,0.578,0.0,0.5925,0.677,0.7096,0.6869,0.7484,0.7747,0.7695,0.787,0.7918,0.7937,0.7959,0.8169,0.8481,0.7772,0.787,0.847,0.8306,0.8664,0.9446,1.0836,1.1625,1.2141,-2.2163,-2.2063,0.0,0.0,-2.1835,0.0,-2.1885,-2.186,-2.1618,-2.101,-2.1028,-2.084,-2.0108,-2.0186,-2.0935,-2.2511,0.0,0.0,0.0,-2.4148,-2.4554,-2.5377,-2.5525,-2.5603,-2.5607,-2.5602,-2.5558,-2.5468,-2.5335,-2.5192,-2.4998,-2.5182,-2.5103,-2.4804,-2.4924,-2.4879,-2.4695,-2.4681,-2.4073,-2.3031,-2.1944,-2.0735,-1.9522,-1.8755,-1.8281,-1.8131,-1.882,-1.8937,-1.8881,-1.9734,-1.9841,-1.972,-2.0078,-2.0041,-1.9696,-1.8937,-1.7538,-1.6076,-1.5529,-1.4595,-1.3555,-1.2591,-1.227,-1.1995,-1.1035,-1.0895,-1.0943,-1.0943,-1.0709,-1.0504,-1.0399,-1.0722,-1.1062,-1.1214,-1.3813,-1.5972,-1.6519,0.0,0.0,0.0,0.0,0.0,0.0,-1.8961,-1.6389,0.0,0.0,0.0,0.0,0.0,0.2452,0.3357,0.5487,0.632,0.5824,0.7236,0.7996,0.8005,0.8249,0.8145,0.7754,0.8119,0.8319,0.8365,0.9074,0.9357,0.9339,0.9157,0.9285,0.9591,0.9859,0.9972,1.0203,1.1892,1.2325,1.2207,0.0,0.0,-2.1348,-2.1905,-2.1347,-2.0878,-2.1061,-2.0569,-2.0175,-2.0226,-2.0269,-2.0259,-2.0236,-2.027,-2.0481,-2.0924,-2.1533,-2.1998,-2.2265,-2.3494,-2.4306,-2.457,-2.5244,-2.5599,-2.5599,-2.5545,-2.5389,-2.5128,-2.5091,-2.4993,-2.4855,-2.4915,-2.4888,-2.4804,-2.4828,-2.4374,-2.3574,-2.3419,-2.2592,-2.1274,-2.0058,-1.9218,-1.861,-1.7607,-1.7302,-1.7445,-1.7613,-1.7989,-1.8485,-1.8947,-1.9129,-1.9285,-1.9977,-1.9777,-1.9107,-1.8228,-1.716,-1.5931,-1.4443,-1.3459,-1.2508,-1.1079,-1.0108,-0.9394,-0.9138,-0.967,-1.0234,-1.0234,-0.8398,-0.6433,-0.5301,-0.4048,-0.3751,-0.5559,-0.7326,-0.9481,-1.2331,-1.4719,0.0,0.0,-1.8579,-1.8627,-1.876,-1.6851,-1.5002,0.0,0.0,0.0,0.0,-0.1384,0.1142,0.3241,0.5433,0.632,0.5824,0.7598,0.8395,0.8148,0.7945,0.7971,0.8176,0.8262,0.8449,0.8679,0.8871,0.887,0.8739,0.8934,0.9104,0.9247,0.9521,1.0135,1.0968,1.1605,1.2239,1.2829,-2.043,-2.047,-2.0477,-2.088,-2.039,-2.0043,-2.0298,-1.9976,-1.9797,-2.0097,-2.0143,-2.0172,-2.0295,-2.0307,-2.0332,-2.0435,-2.0822,-2.126,-2.1724,-2.2578,-2.3263,-2.373,-2.455,-2.4816,-2.4414,-2.5005,-2.4983,-2.4309,-2.4309,-2.3982,-2.3378,-2.3487,-2.3363,-2.3083,-2.3165,-2.2751,-2.1953,-2.1855,-2.1072,-1.98,-1.8994,-1.812,-1.7265,-1.6937,-1.6554,-1.6218,-1.6476,-1.6621,-1.6726,-1.698,-1.7059,-1.7007,-1.6866,-1.6508,-1.5785,-1.4006,-1.4805,-1.6118,-1.5427,-1.3899,-1.2197,-1.0992,-0.9621,-0.8074,-0.6129,-0.6104,-0.634,-0.5909,-0.3965,-0.195,-0.0621,0.0708,0.0725,-0.1925,-0.4456,-0.7251,-1.0559,-1.3418,0.0,-1.6527,-1.6665,-1.6649,-1.666,-1.5286,-1.3712,-1.194,0.0,0.0,-0.4251,-0.1325,0.1035,0.2734,0.5127,0.6211,0.5819,0.7738,0.8537,0.8193,0.8249,0.8194,0.8033,0.8365,0.8634,0.8816,0.917,0.9243,0.9156,0.9342,0.9595,0.9938,1.0074,1.0836,1.1869,1.2002,1.2537,1.3206,-1.928,-1.9487,-1.9573,-1.9679,-1.9487,-1.9448,-1.9743,-1.9813,-1.9952,-2.0265,-2.0296,-2.0301,-2.0313,-2.0323,-2.0367,-2.048,-2.0426,-2.0733,-2.1552,-2.1679,-2.2067,-2.2849,-2.3673,-2.3742,-2.297,-2.4056,-2.4171,-2.3239,-2.3192,-2.2626,-2.1602,-2.1782,-2.1548,-2.1013,-2.1143,-2.0835,-2.0251,-2.0131,-1.9371,-1.8193,-1.7904,-1.6844,-1.548,-1.5948,-1.5358,-1.4379,-1.4833,-1.4573,-1.4002,-1.4133,-1.3844,-1.326,-1.2293,-1.164,-1.0814,-0.8546,-1.0727,-1.4139,-1.5438,-1.3489,-1.0814,-0.959,-0.8014,-0.5832,-0.2179,-0.1182,-0.0725,0.0196,0.1947,0.3671,0.486,0.5383,0.4507,0.1046,-0.2521,-0.6141,-0.9786,0.0,-1.4714,-1.4894,-1.4916,-1.4832,-1.465,-1.3644,-1.211,-0.998,-0.7535,-0.5242,0.0,-0.0439,0.1484,0.2415,0.4895,0.6217,0.6288,0.7996,0.866,0.8341,0.8858,0.8651,0.7889,0.8578,0.8926,0.9008,0.9633,0.9905,0.9905,0.9995,1.0398,1.0897,1.0991,1.1652,1.2549,1.2602,1.2897,1.3346,-1.8667,-1.8856,-1.8974,-1.9591,-1.9623,-1.9604,-1.9767,-1.9901,-2.0049,-2.027,-2.0289,-2.0328,-2.0382,-2.0387,-2.039,-2.0408,-2.0408,-2.0499,-2.0693,-2.1375,-2.1811,-2.1912,-2.2742,-2.3062,-2.2748,-2.2566,-2.2322,-2.1969,-2.1749,-2.1461,-2.1117,-2.1139,-2.1097,-2.0993,-2.0731,-2.0082,-1.9103,-1.8435,-1.713,-1.5489,-1.5094,-1.4078,-1.281,-1.2877,-1.2193,-1.1201,-1.1284,-1.083,-1.0182,-1.0431,-0.9224,-0.7679,-0.809,-0.6786,-0.5072,-0.5036,-0.412,-0.3998,-0.8133,-0.708,-0.4014,-0.0724,0.1037,0.2121,0.2793,0.4038,0.5196,0.577,0.916,1.247,1.3903,1.3371,1.0924,0.5479,0.2706,-0.1161,-0.8026,0.0,-1.2382,-1.3193,-1.3184,-1.2644,-1.1518,-1.0681,-0.9358,-0.7244,-0.5636,-0.3812,-0.1746,0.0,0.1731,0.3512,0.5289,0.6968,0.8578,0.9122,0.9196,0.8867,0.9298,0.9203,0.8651,0.9089,0.9449,0.9738,0.9854,0.9905,0.9957,1.0496,1.0801,1.0944,1.146,1.1918,1.2291,1.2526,1.2794,1.3103,-1.755,-1.8229,-1.873,-1.9145,-1.9426,-1.9669,-1.988,-1.9993,-2.0108,-2.0274,-2.0301,-2.0319,-2.0349,-2.0277,-2.0249,-2.0289,-2.0233,-2.0185,-2.0179,-2.0682,-2.0949,-2.0842,-2.1649,-2.2114,-2.2155,-2.1358,-2.0837,-2.068,-2.0362,-1.9888,-1.9221,-1.9039,-1.8756,-1.8416,-1.7963,-1.7273,-1.637,-1.5418,-1.4211,-1.2915,-1.2427,-1.1591,-1.0631,-1.0438,-0.96,-0.8465,-0.8016,-0.7273,-0.6402,-0.5627,-0.4898,-0.3967,-0.2195,-0.1046,-0.0097,0.1158,0.2406,0.2608,-0.1001,0.2861,0.7351,0.5034,0.6956,0.9462,0.9681,1.0315,1.0844,1.076,1.298,1.5301,1.6621,1.52,1.2046,0.6452,0.2705,0.0,0.0,-1.0325,-1.1223,-1.098,-1.1028,-1.04,-0.8598,-0.8132,-0.7059,-0.4935,-0.3488,-0.2018,-0.0356,0.1479,0.2968,0.4113,0.5816,0.7439,0.8881,0.9551,0.9819,0.9756,0.9903,0.9728,0.9226,0.9364,0.9475,0.9646,0.9816,0.9905,0.9944,1.0434,1.0739,1.0944,1.137,1.1796,1.2231,1.2494,1.2769,1.304,-1.6793,-1.782,-1.8662,-1.8855,-1.9313,-1.9755,-1.9984,-2.0096,-2.0194,-2.0315,-2.0279,-2.0253,-2.0247,-2.0133,-2.0061,-2.0106,-1.9873,-1.9707,-1.9679,-1.9736,-1.9828,-1.9934,-2.0353,-2.0658,-2.0787,-1.9737,-1.914,-1.9021,-1.8506,-1.784,-1.701,-1.6643,-1.6124,-1.5482,-1.4994,-1.4354,-1.3533,-1.25,-1.1453,-1.0396,-0.9856,-0.8941,-0.7849,-0.7404,-0.6388,-0.5076,-0.428,-0.3297,-0.2131,-0.0771,-0.0162,0.0606,0.3711,0.4753,0.5253,0.7456,0.8619,0.8847,0.7188,1.1946,1.6011,1.0242,1.1789,1.4817,1.5122,1.5368,1.5403,1.5023,1.5675,1.6524,1.7194,1.5027,1.1384,0.6057,0.0,0.0,0.0,-0.9578,-0.977,-0.8712,-0.8636,-0.7917,-0.5951,-0.5736,-0.4877,-0.2747,-0.1642,-0.0346,0.1174,0.2849,0.4105,0.4988,0.6508,0.7816,0.8886,0.9875,1.0396,1.0407,1.0554,1.0307,0.9752,0.9869,0.977,0.954,0.9926,1.0018,0.9931,1.0335,1.0667,1.092,1.1265,1.174,1.2231,1.2439,1.2716,1.3025,-1.6955,-1.7937,-1.8735,-1.9104,-1.957,-1.9926,-2.0076,-2.0196,-2.0315,-2.0389,-2.0235,-2.0113,-2.0101,-2.0005,-1.9898,-1.9839,-1.9311,-1.8978,-1.8963,-1.8473,-1.8556,-1.9412,-1.8861,-1.8375,-1.8084,-1.7213,-1.6766,-1.6758,-1.5662,-1.5095,-1.4994,-1.4539,-1.4004,-1.3423,-1.3052,-1.2382,-1.1454,-1.051,-0.9226,-0.7829,-0.7301,-0.5694,-0.3554,-0.2884,-0.1626,-0.0228,0.0541,0.1669,0.2941,0.3576,0.5497,0.7827,0.8558,1.0136,1.1893,1.2445,1.427,1.6326,1.7587,1.7351,1.6663,1.6157,1.6326,1.6629,1.6623,1.7327,1.7977,1.8056,1.8133,1.7952,1.7167,1.428,1.0236,0.4812,0.0,0.0,-0.7471,-0.7445,-0.6814,-0.6546,-0.5988,-0.5086,-0.3649,-0.355,-0.2648,-0.0601,-0.0351,0.0787,0.3172,0.3454,0.4525,0.6725,0.7419,0.8277,0.9439,1.0437,1.0751,1.0407,1.1206,1.1097,1.0166,1.106,1.0856,0.9905,1.0418,1.037,0.9944,1.0594,1.0873,1.0968,1.1527,1.1945,1.2188,1.221,1.2565,1.3009,-1.6584,-1.782,-1.8855,-1.9261,-1.9706,-2.0062,-2.0208,-2.0087,-1.9973,-1.9973,-1.9677,-1.9387,-1.9125,-1.8988,-1.8815,-1.8569,-1.7757,-1.7228,-1.7228,-1.631,-1.6417,-1.7911,-1.7185,-1.641,-1.5716,-1.4883,-1.4124,-1.3471,-1.2794,-1.2279,-1.1931,-1.1569,-1.109,-1.0574,-0.9761,-0.8869,-0.7858,-0.6467,-0.507,-0.3743,-0.2912,-0.159,-0.0048,0.0955,0.2061,0.3206,0.3967,0.4819,0.5747,0.6962,0.7888,0.8832,1.066,1.1603,1.2389,1.4276,1.5683,1.7004,1.8746,1.8835,1.8429,1.8424,1.841,1.8398,1.8416,1.8508,1.8497,1.8203,1.8059,1.7624,1.653,1.3318,0.9342,0.4802,0.0,-0.2078,-0.5682,-0.5778,-0.5175,-0.4287,-0.4107,-0.3352,-0.1546,-0.1399,-0.0716,0.0935,0.1673,0.2669,0.3984,0.5438,0.6789,0.8005,0.8561,0.9195,0.9923,1.096,1.1564,1.1708,1.1991,1.177,1.1072,1.1053,1.0634,0.9905,1.0119,1.0287,1.0444,1.1217,1.1708,1.2085,1.2778,1.2855,1.2599,1.2771,1.2786,1.2783,-1.6333,-1.7706,-1.8886,-1.9354,-1.9726,-1.9987,-2.0116,-1.9792,-1.9511,-1.9364,-1.8702,-1.8157,-1.7859,-1.7144,-1.6564,-1.6357,-1.4996,-1.4076,-1.3905,-1.2565,-1.2882,-1.535,-1.4551,-1.3603,-1.2662,-1.1972,-1.116,-1.0209,-0.9665,-0.9197,-0.883,-0.8278,-0.7733,-0.7208,-0.6117,-0.5061,-0.4021,-0.265,-0.1371,-0.0186,0.0714,0.1786,0.2995,0.4361,0.5407,0.6252,0.7105,0.7766,0.8359,0.9627,0.9906,1.0098,1.208,1.2718,1.3128,1.5052,1.6166,1.7067,1.8485,1.9008,1.9223,1.9519,1.959,1.959,1.959,1.9231,1.8725,1.8153,1.7587,1.6747,1.5342,1.2211,0.863,0.4947,0.1903,-0.0875,-0.3318,-0.3477,-0.2951,-0.1903,-0.1878,-0.1332,0.0279,0.0505,0.1039,0.2226,0.3071,0.3967,0.4993,0.6864,0.8234,0.8918,0.9319,0.9815,1.0456,1.1345,1.2029,1.2496,1.2596,1.2291,1.1575,1.1362,1.0853,1.0148,1.0364,1.0651,1.1055,1.1813,1.2373,1.2762,1.3512,1.3513,1.3094,1.3084,1.3003,1.2911,-1.6265,-1.7623,-1.877,-1.9382,-1.9552,-1.9643,-1.9756,-1.9316,-1.8864,-1.8592,-1.7275,-1.6357,-1.6357,-1.4375,-1.308,-1.3037,-1.0971,-0.9412,-0.8789,-0.7068,-0.7751,-1.1648,-1.075,-0.9722,-0.8785,-0.8286,-0.7747,-0.7128,-0.6262,-0.5856,-0.5809,-0.4734,-0.3917,-0.3305,-0.2156,-0.1131,-0.0138,0.0612,0.1492,0.249,0.317,0.4237,0.5634,0.7445,0.8424,0.8995,1.0197,1.0726,1.0983,1.1549,1.2056,1.2579,1.3047,1.4044,1.5003,1.5003,1.6107,1.7389,1.7786,1.8128,1.8646,1.9707,1.999,1.999,1.999,1.9516,1.889,1.8228,1.7013,1.5502,1.3637,1.0919,0.807,0.5173,0.3028,0.1176,-0.0453,-0.0399,0.0041,0.0624,0.0821,0.1153,0.1738,0.2052,0.2581,0.3443,0.3512,0.4404,0.6409,0.7385,0.8398,0.9478,0.9518,0.9981,1.1019,1.1542,1.2029,1.2508,1.2978,1.2622,1.1613,1.2165,1.1763,1.0729,1.1341,1.16,1.1677,1.2403,1.2711,1.2799,1.3534,1.3811,1.3728,1.3063,1.3137,1.3494,-1.4512,-1.6305,-1.7738,-1.817,-1.888,-1.9061,-1.8117,-1.7077,-1.5992,-1.4837,-1.3359,-1.2157,-1.1472,-1.0441,-0.9551,-0.8892,-0.7609,-0.5989,-0.3944,-0.2158,-0.1532,-0.2307,-0.4904,-0.59,-0.4978,-0.4069,-0.3108,-0.2136,-0.1474,-0.0931,-0.0552,-0.0256,0.0,0.0215,0.0989,0.174,0.2475,0.3476,0.438,0.5213,0.6131,0.7015,0.7937,0.9115,0.9882,1.0449,1.1176,1.148,1.1605,1.2115,1.2567,1.2995,1.3522,1.4136,1.4693,1.4913,1.5749,1.6716,1.7249,1.7485,1.7841,1.9005,1.9295,1.9295,1.9295,1.8766,1.7864,1.6437,1.518,1.3702,1.1582,0.996,0.8172,0.5864,0.4661,0.3448,0.1829,0.1707,0.1847,0.2008,0.2072,0.2334,0.2949,0.307,0.3504,0.4426,0.54,0.6299,0.7107,0.8342,0.931,0.9953,1.0021,1.0715,1.2018,1.1505,1.1653,1.2508,1.265,1.2506,1.2178,1.2341,1.2,1.1354,1.1534,1.1966,1.2618,1.3163,1.3785,1.4443,1.4987,1.4931,1.4428,1.376,1.3428,1.3257,-0.8619,-1.0548,-1.2119,-1.2439,-1.4159,-1.5062,-1.368,-1.2834,-1.1823,-1.0298,-0.8871,-0.7805,-0.7214,-0.5895,-0.4714,-0.3936,-0.2339,-0.0605,0.1222,0.2557,0.3513,0.4019,0.1531,0.0041,-0.029,0.0508,0.1284,0.2013,0.256,0.291,0.3055,0.3272,0.3396,0.3442,0.4274,0.4848,0.5281,0.6383,0.714,0.7617,0.861,0.9266,0.9736,1.0746,1.1297,1.1653,1.2174,1.2354,1.2389,1.2685,1.3067,1.3504,1.3973,1.4505,1.4941,1.5002,1.5722,1.6538,1.6786,1.6921,1.7228,1.7954,1.8304,1.8467,1.8609,1.7864,1.6726,1.5304,1.4003,1.2559,1.0829,0.9627,0.8432,0.7009,0.5972,0.4906,0.3783,0.3392,0.3217,0.3217,0.3275,0.3471,0.383,0.3987,0.4404,0.5236,0.6605,0.7529,0.7767,0.8863,0.9707,1.0205,1.0447,1.0981,1.1909,1.1505,1.1799,1.2791,1.2791,1.266,1.2416,1.2386,1.2314,1.2134,1.2154,1.2705,1.3633,1.4065,1.4571,1.5139,1.5607,1.5534,1.5123,1.4445,1.3943,1.353,-0.0345,-0.2277,-0.3828,-0.4111,-0.6916,-0.8694,-0.7454,-0.7217,-0.665,-0.5231,-0.3974,-0.3173,-0.3095,-0.0893,0.0873,0.1435,0.3971,0.5807,0.6412,0.6997,0.7588,0.8099,0.8085,0.7125,0.5157,0.527,0.543,0.554,0.5989,0.5972,0.5549,0.602,0.624,0.6282,0.7382,0.7919,0.7993,0.905,0.9494,0.9612,1.0606,1.0983,1.1106,1.2115,1.2508,1.2579,1.3082,1.3232,1.3198,1.3301,1.3581,1.4,1.4406,1.5002,1.5447,1.5166,1.5866,1.6633,1.6355,1.6474,1.6712,1.6712,1.7036,1.7468,1.7843,1.6856,1.5584,1.4607,1.3228,1.1845,1.0867,0.9688,0.8766,0.8345,0.6971,0.5837,0.5411,0.4771,0.4346,0.4346,0.4422,0.451,0.4548,0.4895,0.5409,0.6026,0.7364,0.8248,0.8509,0.9186,0.9834,1.0428,1.0764,1.1019,1.1121,1.159,1.2246,1.3129,1.3129,1.2901,1.2479,1.2507,1.2727,1.3088,1.3136,1.368,1.4587,1.4935,1.5124,1.5197,1.5636,1.5799,1.5724,1.5064,1.4576,1.4192,0.286,0.0752,-0.1023,-0.145,-0.3228,-0.4276,-0.3317,-0.2255,-0.1162,-0.0039,0.1424,0.2529,0.3035,0.4008,0.504,0.5985,0.7899,0.9252,0.9817,1.0385,1.1166,1.21,1.1735,1.15,1.1439,0.9779,0.8928,0.8917,0.9129,0.9207,0.9081,0.8422,0.8131,0.8131,0.8399,0.8723,0.909,0.9739,1.0234,1.0644,1.1324,1.1605,1.1678,1.2282,1.2508,1.2615,1.3467,1.3514,1.3301,1.4,1.4084,1.4019,1.4752,1.4862,1.4786,1.5029,1.5521,1.6011,1.5926,1.5955,1.5981,1.5905,1.5762,1.5803,1.6449,1.5553,1.4319,1.3326,1.206,1.0831,0.9881,0.922,0.8681,0.8288,0.7705,0.7121,0.667,0.5998,0.5536,0.5536,0.5281,0.5228,0.5535,0.6461,0.7123,0.7363,0.8512,0.9287,0.9482,0.9905,1.0534,1.1442,1.0802,1.1019,1.2162,1.192,1.2102,1.265,1.2639,1.2801,1.3023,1.3421,1.362,1.3708,1.404,1.4471,1.4979,1.5051,1.5314,1.5666,1.5755,1.5799,1.5724,1.5064,1.4746,1.4576,1.1237,0.8669,0.6357,0.6106,0.3694,0.2098,0.3132,0.3524,0.4076,0.5174,0.6061,0.6692,0.7032,0.7581,0.8334,0.9451,1.0606,1.1499,1.2063,1.2381,1.2929,1.3704,1.3478,1.3527,1.4012,1.3116,1.2328,1.1621,1.1632,1.1541,1.1291,1.0518,1.0146,1.0136,1.0166,1.033,1.0588,1.1089,1.1424,1.1718,1.227,1.2473,1.2496,1.272,1.2826,1.2931,1.3635,1.3868,1.3934,1.4564,1.4658,1.4596,1.5225,1.5285,1.5165,1.5359,1.561,1.5799,1.5799,1.5799,1.5726,1.5433,1.5211,1.5196,1.5534,1.4587,1.3413,1.2636,1.1556,1.0521,0.9784,0.9343,0.9008,0.8794,0.8153,0.7618,0.7385,0.6683,0.6183,0.6183,0.6006,0.6036,0.6443,0.7399,0.8018,0.8088,0.9216,0.9853,0.9702,1.0293,1.0764,1.1067,1.0802,1.1132,1.2138,1.2138,1.2354,1.2826,1.2815,1.2955,1.321,1.3676,1.399,1.4193,1.4602,1.5041,1.5446,1.5446,1.5593,1.5799,1.5799,1.5799,1.5769,1.5424,1.5254,1.5123,1.9229,1.6551,1.4022,1.3946,1.0876,0.8719,0.9614,0.9009,0.8823,0.981,0.9953,0.9991,1.0057,1.0631,1.1411,1.2329,1.3031,1.358,1.4045,1.3959,1.4152,1.4635,1.4459,1.4557,1.5005,1.5511,1.5038,1.3655,1.3561,1.3223,1.2643,1.2163,1.1839,1.1744,1.1766,1.1847,1.1957,1.2318,1.2544,1.265,1.3047,1.3198,1.3198,1.3301,1.3323,1.3378,1.3934,1.4374,1.4752,1.5013,1.5104,1.5165,1.5639,1.5741,1.5712,1.577,1.5799,1.5799,1.5799,1.5741,1.558,1.5104,1.5013,1.4954,1.4836,1.3871,1.283,1.2229,1.134,1.0531,1.0006,0.9659,0.9475,0.9475,0.8584,0.7878,0.7878,0.7139,0.6634,0.6701,0.6791,0.7032,0.7531,0.8292,0.8809,0.898,1.0093,1.0572,1.0138,1.0781,1.095,1.0582,1.095,1.1368,1.1811,1.2375,1.2877,1.3364,1.3364,1.3304,1.321,1.3749,1.4196,1.452,1.5018,1.5446,1.5799,1.5799,1.5799,1.5799,1.5799,1.5799,1.5799,1.5799,1.5725,1.553,1.8947,1.7513,1.6118,1.5655,1.4333,1.3227,1.2933,1.2577,1.2375,1.2479,1.2562,1.2724,1.3167,1.4151,1.4829,1.5005,1.6037,1.6712,1.678,1.6348,1.6335,1.6824,1.596,1.5736,1.6238,1.6337,1.5813,1.4617,1.4732,1.4227,1.3185,1.2701,1.2249,1.1801,1.1808,1.2029,1.2389,1.2473,1.272,1.3129,1.3163,1.3198,1.3232,1.3648,1.3795,1.3887,1.4676,1.5225,1.558,1.5225,1.5104,1.5165,1.5639,1.5522,1.5255,1.5668,1.5799,1.5799,1.5799,1.5507,1.5104,1.469,1.4596,1.4501,1.4149,1.3507,1.2751,1.1857,1.1152,1.0531,1.0006,0.988,0.9816,0.9816,0.917,0.864,0.864,0.7714,0.7163,0.7562,0.7936,0.8496,0.934,0.9838,1.0481,1.1286,1.1957,1.2234,1.2129,1.1916,1.1722,1.1601,1.1729,1.1789,1.1822,1.2726,1.3472,1.3977,1.3977,1.3689,1.3245,1.405,1.4463,1.4541,1.5359,1.574,1.5799,1.5799,1.5799,1.5799,1.5799,1.5799,1.5799,1.5799,1.5575,1.5304,1.8878,1.7992,1.7133,1.6749,1.5753,1.4947,1.471,1.4237,1.3887,1.3828,1.3854,1.3966,1.4173,1.496,1.5777,1.6458,1.7001,1.7422,1.7716,1.7511,1.7516,1.7733,1.7304,1.7169,1.7381,1.6805,1.6121,1.5309,1.5045,1.4493,1.367,1.3164,1.2803,1.2542,1.2555,1.2685,1.2908,1.2908,1.3012,1.3198,1.3198,1.3198,1.3232,1.3425,1.3859,1.4527,1.5444,1.5616,1.5433,1.5569,1.5391,1.5165,1.5639,1.5668,1.5551,1.5741,1.5799,1.5799,1.5799,1.5448,1.5074,1.4876,1.4845,1.4658,1.4019,1.4029,1.3794,1.2499,1.1748,1.1137,1.0314,1.0185,1.011,0.9919,0.9277,0.8789,0.8789,0.8246,0.8098,0.8773,0.9243,0.9792,1.047,1.1191,1.1804,1.2215,1.2977,1.3318,1.3031,1.2536,1.2418,1.267,1.1843,1.1937,1.3073,1.3229,1.3729,1.4549,1.4536,1.4419,1.418,1.4718,1.5131,1.5539,1.607,1.6527,1.6842,1.6456,1.6308,1.6263,1.5919,1.5799,1.5799,1.5799,1.5809,1.5829]},{"header":{"parameterUnit":"m.s-1","parameterCategory":1,"la1":30.6,"la2":28.766,"lo1":-90.7593,"lo2":-88.6598,"dy":0.0162,"dx":0.0183,"nx":116,"ny":114,"refTime":"2023-09-07T06:00:00:Z","depth":0,"parameterNumber":3,"parameterNumberName":"V-component_of_WINDS"},"data":[0.0,0.0,0.0,0.0,0.0,0.0,0.0,0.0,0.0,0.0,0.0,0.0,0.0,0.0,0.0,0.0,0.0,0.0,0.0,0.0,0.0,0.0,0.0,0.0,0.0,0.0,0.0,0.0,0.0,0.0,0.0,0.0,0.0,0.0,0.0,0.0,0.0,0.0,0.0,0.0,0.0,0.0,0.0,0.0,0.0,0.0,0.0,0.0,0.0,0.0,0.0,0.0,0.0,0.0,0.0,0.0,0.0,0.0,0.0,0.0,0.0,0.0,0.0,0.0,0.0,0.0,0.0,0.0,0.0,0.0,0.0,0.0,0.0,0.0,0.0,0.0,0.0,0.0,0.0,0.0,0.0,0.0,0.0,0.0,0.0,0.0,0.0,0.0,0.0,0.0,0.0,0.0,0.0,0.0,0.0,0.0,0.0,0.0,0.0,0.0,0.0,0.0,0.0,0.0,0.0,0.0,0.0,0.0,0.0,0.0,0.0,0.0,0.0,0.0,0.0,0.0,0.0,0.0,0.0,0.0,0.0,0.0,0.0,0.0,0.0,0.0,0.0,0.0,0.0,0.0,0.0,0.0,0.0,0.0,0.0,0.0,0.0,0.0,0.0,0.0,0.0,0.0,0.0,0.0,0.0,0.0,0.0,0.0,0.0,0.0,0.0,0.0,0.0,0.0,0.0,0.0,0.0,0.0,0.0,0.0,0.0,0.0,0.0,0.0,0.0,0.0,0.0,0.0,0.0,0.0,0.0,0.0,0.0,0.0,0.0,0.0,0.0,0.0,0.0,0.0,0.0,0.0,0.0,0.0,0.0,0.0,0.0,0.0,0.0,0.0,0.0,0.0,0.0,0.0,0.0,0.0,0.0,0.0,0.0,0.0,0.0,0.0,0.0,0.0,0.0,0.0,0.0,0.0,0.0,0.0,0.0,0.0,0.0,0.0,0.0,0.0,0.0,0.0,0.0,0.0,0.0,0.0,0.0,0.0,0.0,0.0,0.0,0.0,0.0,0.0,0.0,0.0,0.0,0.0,0.0,0.0,0.0,0.0,0.0,0.0,0.0,0.0,0.0,0.0,0.0,0.0,0.0,0.0,0.0,0.0,0.0,0.0,0.0,0.0,0.0,0.0,0.0,0.0,0.0,0.0,0.0,0.0,0.0,0.0,0.0,0.0,0.0,0.0,0.0,0.0,0.0,0.0,0.0,0.0,0.0,0.0,0.0,0.0,0.0,0.0,0.0,0.0,0.0,0.0,0.0,0.0,0.0,0.0,0.0,0.0,0.0,0.0,0.0,0.0,0.0,0.0,0.0,0.0,0.0,0.0,0.0,0.0,0.0,0.0,0.0,0.0,0.0,0.0,0.0,0.0,0.0,0.0,0.0,0.0,0.0,0.0,0.0,0.0,0.0,0.0,0.0,0.0,0.0,0.0,0.0,0.0,0.0,0.0,0.0,0.0,0.0,0.0,0.0,0.0,0.0,0.0,0.0,0.0,0.0,0.0,0.0,0.0,0.0,0.0,0.0,0.0,0.0,0.0,0.0,0.0,0.0,0.0,0.0,0.0,0.0,0.0,0.0,0.0,0.0,0.0,0.0,0.0,0.0,0.0,0.0,0.0,0.0,0.0,0.0,0.0,0.0,0.0,0.0,0.0,0.0,0.0,0.0,0.0,0.0,0.0,0.0,0.0,0.0,0.0,0.0,0.0,0.0,0.0,0.0,0.0,0.0,0.0,0.0,0.0,0.0,0.0,0.0,0.0,0.0,0.0,0.0,0.0,0.0,0.0,0.0,0.0,0.0,0.0,0.0,0.0,0.0,0.0,0.0,0.0,0.0,0.0,0.0,0.0,0.0,0.0,0.0,0.0,0.0,0.0,0.0,0.0,0.0,0.0,0.0,0.0,0.0,0.0,0.0,0.0,0.0,0.0,0.0,0.0,0.0,0.0,0.0,0.0,0.0,0.0,0.0,0.0,0.0,0.0,0.0,0.0,0.0,0.0,0.0,0.0,0.0,0.0,0.0,0.0,0.0,0.0,0.0,0.0,0.0,0.0,0.0,0.0,0.0,0.0,0.0,0.0,0.0,0.0,0.0,0.0,0.0,0.0,0.0,0.0,0.0,0.0,0.0,0.0,0.0,0.0,0.0,0.0,0.0,0.0,0.0,0.0,0.0,0.0,0.0,0.0,0.0,0.0,0.0,0.0,0.0,0.0,0.0,0.0,0.0,0.0,0.0,0.0,0.0,0.0,0.0,0.0,0.0,0.0,0.0,0.0,0.0,0.0,0.0,0.0,0.0,0.0,0.0,0.0,0.0,0.0,0.0,0.0,0.0,0.0,0.0,0.0,0.0,0.0,0.0,0.0,0.0,0.0,0.0,0.0,0.0,0.0,0.0,0.0,0.0,0.0,0.0,0.0,0.0,0.0,0.0,0.0,0.0,0.0,0.0,0.0,0.0,0.0,0.0,0.0,0.0,0.0,0.0,0.0,0.0,0.0,0.0,0.0,0.0,0.0,0.0,0.0,0.0,0.0,0.0,0.0,0.0,0.0,0.0,0.0,0.0,0.0,0.0,0.0,0.0,0.0,0.0,0.0,0.0,0.0,0.0,0.0,0.0,0.0,0.0,0.0,0.0,0.0,0.0,0.0,0.0,0.0,0.0,0.0,0.0,0.0,0.0,0.0,0.0,0.0,0.0,0.0,0.0,0.0,0.0,0.0,0.0,0.0,0.0,0.0,0.0,0.0,0.0,0.0,0.0,0.0,0.0,0.0,0.0,0.0,0.0,0.0,0.0,0.0,0.0,0.0,0.0,0.0,0.0,0.0,0.0,0.0,0.0,0.0,0.0,0.0,0.0,0.0,0.0,0.0,0.0,0.0,0.0,0.0,0.0,0.0,0.0,0.0,0.0,0.0,0.0,0.0,0.0,0.0,0.0,0.0,0.0,0.0,0.0,0.0,0.0,0.0,0.0,0.0,0.0,0.0,0.0,0.0,0.0,0.0,0.0,0.0,0.0,0.0,0.0,0.0,0.0,0.0,0.0,0.0,0.0,0.0,0.0,0.0,0.0,0.0,0.0,0.0,0.0,0.0,0.0,0.0,0.0,0.0,0.0,0.0,0.0,0.0,0.0,0.0,0.0,0.0,0.0,0.0,0.0,0.0,0.0,0.0,0.0,0.0,0.0,0.0,0.0,0.0,0.0,0.0,0.0,0.0,0.0,0.0,0.0,0.0,0.0,0.0,0.0,0.0,0.0,0.0,0.0,0.0,0.0,0.0,0.0,0.0,0.0,0.0,0.0,0.0,0.0,0.0,0.0,0.0,0.0,0.0,0.0,0.0,0.0,0.0,0.0,0.0,0.0,0.0,0.0,0.0,0.0,0.0,0.0,0.0,0.0,0.0,0.0,0.0,0.0,0.0,0.0,0.0,0.0,0.0,0.0,0.0,0.0,0.0,0.0,0.0,0.0,0.0,0.0,0.0,0.0,0.0,0.0,0.0,0.0,0.0,0.0,0.0,0.0,0.0,0.0,0.0,0.0,0.0,0.0,0.0,0.0,0.0,0.0,0.0,0.0,0.0,0.0,0.0,0.0,0.0,0.0,0.0,0.0,0.0,0.0,0.0,0.0,0.0,0.0,0.0,0.0,0.0,0.0,0.0,0.0,0.0,0.0,0.0,0.0,0.0,0.0,0.0,0.0,0.0,0.0,0.0,0.0,0.0,0.0,0.0,0.0,0.0,0.0,0.0,0.0,0.0,0.0,0.0,0.0,0.0,0.0,0.0,0.0,0.0,0.0,0.0,0.0,0.0,0.0,0.0,0.0,0.0,0.0,0.0,0.0,0.0,0.0,0.0,0.0,0.0,0.0,0.0,0.0,0.0,0.0,0.0,0.0,0.0,0.0,0.0,0.0,0.0,0.0,0.0,0.0,0.0,0.0,0.0,0.0,0.0,0.0,0.0,0.0,0.0,0.0,0.0,0.0,0.0,0.0,0.0,0.0,0.0,0.0,0.0,0.0,0.0,0.0,0.0,0.0,0.0,0.0,0.0,0.0,0.0,0.0,0.0,0.0,0.0,0.0,0.0,0.0,0.0,0.0,0.0,0.0,0.0,0.0,0.0,0.0,0.0,0.0,0.0,0.0,0.0,0.0,0.0,0.0,0.0,0.0,0.0,0.0,0.0,0.0,0.0,0.0,0.0,0.0,0.0,0.0,0.0,0.0,0.0,0.0,0.0,0.0,0.0,0.0,0.0,0.0,0.0,0.0,0.0,0.0,0.0,0.0,0.0,0.0,0.0,0.0,0.0,0.0,0.0,0.0,0.0,0.0,0.0,0.0,0.0,0.0,0.0,0.0,0.0,0.0,0.0,0.0,0.0,0.0,0.0,0.0,0.0,0.0,0.0,0.0,0.0,0.0,0.0,0.0,0.0,0.0,0.0,0.0,0.0,0.0,0.0,0.0,0.0,0.0,0.0,0.0,0.0,0.0,0.0,0.0,0.0,0.0,0.0,0.0,0.0,0.0,0.0,0.0,0.0,0.0,0.0,0.0,0.0,0.0,0.0,0.0,0.0,0.0,0.0,0.0,0.0,0.0,0.0,0.0,0.0,0.0,0.0,0.0,0.0,0.0,0.0,0.0,0.0,0.0,0.0,0.0,0.0,0.0,0.0,0.0,0.0,0.0,0.0,0.0,0.0,0.0,0.0,0.0,0.0,0.0,0.0,0.0,0.0,0.0,0.0,0.0,0.0,0.0,0.0,0.0,0.0,0.0,0.0,0.0,0.0,0.0,0.0,0.0,0.0,0.0,0.0,0.0,0.0,0.0,0.0,0.0,0.0,0.0,0.0,0.0,0.0,0.0,0.0,0.0,0.0,0.0,0.0,0.0,0.0,0.0,0.0,0.0,0.0,0.0,0.0,0.0,0.0,0.0,0.0,0.0,0.0,0.0,0.0,0.0,0.0,0.0,0.0,0.0,0.0,0.0,0.0,0.0,0.0,0.0,0.0,0.0,0.0,0.0,0.0,0.0,0.0,0.0,0.0,0.0,0.0,0.0,0.0,0.0,0.0,0.0,0.0,0.0,0.0,0.0,0.0,0.0,0.0,0.0,0.0,0.0,0.0,0.0,0.0,0.0,0.0,0.0,0.0,0.0,0.0,0.0,0.0,0.0,0.0,0.0,0.0,0.0,0.0,0.0,0.0,0.0,0.0,0.0,0.0,0.0,0.0,0.0,0.0,0.0,0.0,0.0,0.0,0.0,0.0,0.0,0.0,0.0,0.0,0.0,0.0,0.0,0.0,0.0,0.0,0.0,0.0,0.0,0.0,0.0,0.0,0.0,0.0,0.0,0.0,0.0,0.0,0.0,0.0,0.0,0.0,0.0,0.0,0.0,0.0,0.0,0.0,0.0,0.0,0.0,0.0,0.0,0.0,0.0,0.0,0.0,0.0,0.0,0.0,0.0,0.0,0.0,0.0,0.0,0.0,0.0,0.0,0.0,0.0,0.0,0.0,0.0,0.0,0.0,0.0,0.0,0.0,0.0,0.0,0.0,0.0,0.0,0.0,0.0,0.0,0.0,0.0,0.0,0.0,0.0,0.0,0.0,0.0,0.0,0.0,0.0,0.0,0.0,0.0,0.0,0.0,0.0,0.0,0.0,0.0,0.0,0.0,0.0,0.0,0.0,0.0,0.0,0.0,0.0,0.0,0.0,0.0,0.0,0.0,0.0,0.0,0.0,0.0,0.0,0.0,0.0,0.0,0.0,0.0,0.0,0.0,0.0,0.0,0.0,0.0,0.0,0.0,0.0,0.0,0.0,0.0,0.0,0.0,0.0,0.0,0.0,0.0,0.0,0.0,0.0,0.0,0.0,0.0,0.0,0.0,0.0,0.0,0.0,0.0,0.0,0.0,0.0,0.0,0.0,0.0,0.0,0.0,0.0,0.0,0.0,0.0,0.0,0.0,0.0,0.0,0.0,0.0,0.0,0.0,0.0,0.0,0.0,0.0,0.0,0.0,0.0,0.0,0.0,0.0,0.0,0.0,0.0,0.0,0.0,0.0,0.0,0.0,0.0,0.0,0.0,0.0,0.0,0.0,0.0,0.0,0.0,0.0,-2.2638,0.0,0.0,0.0,0.0,0.0,0.0,0.0,0.0,0.0,0.0,0.0,0.0,0.0,0.0,0.0,0.0,0.0,0.0,0.0,0.0,0.0,0.0,0.0,0.0,0.0,0.0,0.0,0.0,0.0,0.0,0.0,0.0,0.0,0.0,0.0,0.0,0.0,0.0,-1.4239,-1.4772,-1.3612,-1.0944,-1.2488,-1.4101,-1.579,0.0,0.0,0.0,0.0,0.0,0.0,0.0,0.0,0.0,0.0,0.0,0.0,0.0,0.0,0.0,0.0,0.0,0.0,0.0,0.0,0.0,0.0,0.0,0.0,0.0,0.0,0.0,0.0,0.0,0.0,0.0,0.0,0.0,0.0,0.0,0.0,0.0,0.0,0.0,0.0,0.0,0.0,0.0,0.0,0.0,0.0,0.0,0.0,0.0,0.0,0.0,0.0,0.0,0.0,0.0,0.0,0.0,0.0,0.0,0.0,0.0,0.0,0.0,0.0,0.0,0.0,0.0,0.0,0.0,0.0,0.0,-2.1859,0.0,0.0,0.0,0.0,0.0,0.0,0.0,0.0,0.0,0.0,0.0,0.0,0.0,0.0,0.0,0.0,0.0,0.0,0.0,0.0,0.0,0.0,0.0,-1.8855,-1.9296,-1.9981,-2.0416,-2.0698,0.0,0.0,0.0,0.0,0.0,0.0,-1.695,-1.8133,-1.6359,-1.1515,-1.2821,-1.1988,-0.911,-0.9341,-1.0903,-1.3723,-1.5048,0.0,0.0,0.0,0.0,0.0,0.0,0.0,0.0,0.0,0.0,0.0,0.0,0.0,0.0,0.0,0.0,0.0,0.0,0.0,0.0,0.0,0.0,0.0,0.0,0.0,0.0,0.0,0.0,0.0,0.0,0.0,0.0,0.0,0.0,0.0,0.0,0.0,0.0,0.0,0.0,0.0,0.0,0.0,0.0,0.0,0.0,0.0,0.0,0.0,0.0,0.0,0.0,0.0,0.0,0.0,0.0,0.0,0.0,0.0,0.0,0.0,0.0,0.0,-3.2081,-3.2066,-3.1281,-2.9602,-2.8375,-2.7535,-2.4975,-2.3701,-2.3437,0.0,0.0,0.0,0.0,0.0,0.0,0.0,0.0,0.0,0.0,0.0,0.0,0.0,0.0,0.0,0.0,0.0,0.0,0.0,0.0,0.0,0.0,-1.9673,-1.9448,-2.0572,-2.0429,-2.0518,-2.111,0.0,0.0,0.0,0.0,0.0,-1.6378,-1.5626,-1.3534,-0.9996,-0.8247,-0.7765,-0.8543,-0.8973,-0.9879,-1.116,-1.2908,-1.4345,-1.5567,0.0,0.0,0.0,0.0,0.0,0.0,0.0,0.0,0.0,0.0,0.0,0.0,0.0,0.0,0.0,0.0,0.0,0.0,0.0,0.0,0.0,0.0,0.0,0.0,0.0,0.0,0.0,0.0,0.0,0.0,0.0,0.0,0.0,0.0,0.0,0.0,0.0,0.0,0.0,0.0,0.0,-1.8027,-1.6381,0.0,0.0,0.0,0.0,0.0,0.0,0.0,0.0,0.0,0.0,0.0,0.0,0.0,-2.8494,-3.025,-3.1304,-3.2325,-3.3508,-3.3392,-3.3052,-3.2393,-3.0031,-2.88,-2.8546,-2.7073,0.0,-2.4746,-2.4126,0.0,0.0,0.0,0.0,0.0,0.0,0.0,0.0,0.0,0.0,0.0,0.0,0.0,0.0,0.0,0.0,0.0,0.0,0.0,0.0,0.0,-1.7633,-1.7127,-1.7046,-1.7953,-1.9452,-2.1669,-2.1741,0.0,0.0,0.0,-2.0612,-2.0218,-1.8139,-1.5039,-1.0871,-0.6847,-0.588,-0.7882,-0.802,-0.8709,-0.9862,-1.1553,-1.2979,-1.4444,-1.7299,0.0,0.0,0.0,0.0,0.0,0.0,0.0,0.0,0.0,0.0,0.0,0.0,0.0,0.0,0.0,0.0,0.0,0.0,0.0,0.0,0.0,0.0,0.0,0.0,0.0,0.0,0.0,0.0,0.0,0.0,0.0,0.0,0.0,0.0,0.0,0.0,0.0,0.0,0.0,-2.0455,-1.7579,-1.5397,-1.5977,-1.7016,0.0,0.0,0.0,0.0,0.0,0.0,0.0,0.0,0.0,-2.6854,-2.8287,-3.0318,-3.2993,-3.2899,-3.3335,-3.4141,-3.4102,-3.2959,-3.0996,-2.9931,-2.8804,-2.7784,-2.7347,-2.682,-2.6113,-2.5508,-2.4707,-2.3847,0.0,0.0,0.0,0.0,-2.7028,-2.6676,0.0,0.0,0.0,0.0,0.0,0.0,0.0,0.0,0.0,0.0,0.0,0.0,-1.641,-1.485,-1.3818,-1.3578,-1.5448,-1.8104,-2.1563,-2.2313,-2.3409,-2.5163,-2.3826,-2.3102,-2.3193,-1.8997,-1.4738,-1.0417,-0.5994,-0.501,-0.7261,-0.7336,-0.7818,-0.8713,-1.0567,-1.2348,-1.407,-1.7006,-1.8613,-1.9565,0.0,0.0,0.0,0.0,0.0,0.0,0.0,0.0,0.0,0.0,0.0,0.0,0.0,0.0,0.0,0.0,0.0,0.0,0.0,0.0,0.0,0.0,0.0,0.0,0.0,0.0,0.0,0.0,0.0,0.0,0.0,0.0,0.0,0.0,0.0,0.0,0.0,-1.9296,-1.7858,-1.5686,-1.7167,-1.858,0.0,0.0,0.0,0.0,0.0,0.0,-2.3144,-2.542,-2.7423,-2.8771,-3.0009,-3.1716,-3.4064,-3.3481,-3.3375,-3.3871,-3.3435,-3.1984,-2.9635,-2.9226,-2.831,-2.7143,-2.7294,-2.7288,-2.695,-2.6635,-2.5506,-2.3884,-2.44,-2.464,-2.5074,-2.8184,-2.8882,-2.8402,0.0,0.0,0.0,0.0,0.0,0.0,0.0,0.0,0.0,0.0,0.0,-1.5819,-1.6332,-1.2067,-0.9952,-1.1921,-1.3943,-1.661,-2.0182,-2.3021,-2.5111,-2.6365,-2.5897,-2.4749,-2.2859,-1.5002,-0.957,-0.6777,-0.4739,-0.4868,-0.6956,-0.7238,-0.7461,-0.7552,-1.0064,-1.256,-1.5218,-1.7687,-1.9399,-2.0566,-2.2044,0.0,0.0,0.0,0.0,0.0,0.0,0.0,0.0,0.0,0.0,0.0,0.0,0.0,0.0,0.0,0.0,0.0,0.0,0.0,0.0,0.0,0.0,0.0,0.0,0.0,0.0,0.0,0.0,0.0,0.0,0.0,0.0,0.0,0.0,0.0,0.0,0.0,0.0,-1.7875,-1.8174,0.0,0.0,0.0,0.0,-2.2939,-2.3428,-2.4053,-2.4893,-2.7747,-2.9289,-2.9003,-3.1826,-3.3021,-3.2453,-3.2387,-3.2409,-3.2431,-3.068,-2.987,-2.9635,-2.7923,-2.7275,-2.7416,-2.7416,-2.7242,-2.6996,-2.6976,-2.637,-2.5431,-2.3861,-2.3166,-2.4022,-3.0483,-3.279,-3.2754,0.0,0.0,0.0,0.0,0.0,0.0,0.0,0.0,-1.8437,-1.6613,-1.4225,-1.1182,-0.7228,-0.5202,-0.4179,-0.4417,-0.807,-1.2315,-1.7036,-2.1095,-2.4429,-2.6855,-2.7527,-2.4838,-1.8366,-1.4593,-1.0364,-0.5618,-0.4828,-0.5333,-0.6929,-0.6936,-0.7699,-0.9043,-1.0193,-1.2419,-1.5616,-1.7697,-1.9361,-2.0866,-2.2559,-2.3387,0.0,0.0,0.0,0.0,0.0,0.0,0.0,0.0,0.0,0.0,0.0,0.0,0.0,0.0,0.0,0.0,0.0,0.0,0.0,0.0,0.0,0.0,0.0,0.0,0.0,0.0,0.0,0.0,0.0,0.0,0.0,0.0,0.0,0.0,0.0,0.0,0.0,-2.0793,-2.22,0.0,-2.2874,-2.389,-2.4531,-2.4394,-2.5049,-2.5713,-2.6289,-2.8463,-2.9682,-2.9803,-3.0597,-3.1296,-3.1872,-3.0766,-3.0227,-3.0216,-2.9568,-2.8659,-2.7502,-2.6586,-2.6045,-2.5888,-2.6234,-2.6044,-2.5603,-2.4848,-2.4993,-2.5604,-2.503,-2.6741,-2.9816,-3.2259,-3.3065,-3.3252,0.0,0.0,0.0,0.0,0.0,0.0,0.0,0.0,-1.668,-1.2972,-1.0169,-0.6314,-0.0523,0.0737,0.0905,0.0269,-0.4421,-0.9682,-1.524,-1.9884,-2.3831,-2.7054,-2.7337,-2.3825,-1.6132,-1.4016,-1.0533,-0.5479,-0.503,-0.5443,-0.6546,-0.6812,-0.7684,-0.9255,-1.0113,-1.2407,-1.5695,-1.7747,-1.9565,-2.1208,-2.2682,-2.3936,-2.5053,0.0,0.0,0.0,0.0,0.0,0.0,0.0,0.0,0.0,0.0,0.0,0.0,0.0,0.0,0.0,0.0,0.0,0.0,0.0,0.0,0.0,0.0,0.0,0.0,0.0,0.0,0.0,0.0,0.0,0.0,0.0,0.0,0.0,0.0,0.0,-2.3626,-2.2937,-2.4783,-2.5747,-2.4874,-2.5695,-2.626,-2.5967,-2.6484,-2.6943,-2.7217,-2.8645,-2.9349,-2.9147,-2.937,-2.9706,-3.0095,-2.8911,-2.8366,-2.8366,-2.8068,-2.7289,-2.6143,-2.5557,-2.5117,-2.4711,-2.503,-2.5219,-2.5482,-2.5347,-2.6051,-2.7072,-2.7041,-2.9106,-3.2127,-3.3449,-3.3878,-3.408,0.0,0.0,0.0,0.0,0.0,0.0,0.0,-1.6773,-1.4708,-1.0206,-0.5762,-0.1341,0.3085,0.5285,0.5016,0.1629,-0.3595,-0.9194,-1.5007,-1.9574,-2.3571,-2.703,-2.5249,-2.1738,-1.6501,-1.3005,-0.9631,-0.6237,-0.5181,-0.5132,-0.5789,-0.6799,-0.7488,-0.7905,-0.9927,-1.2444,-1.5385,-1.7926,-1.9976,-2.1593,-2.2451,-2.4193,-2.6109,0.0,0.0,0.0,0.0,0.0,0.0,0.0,0.0,0.0,0.0,0.0,0.0,0.0,0.0,0.0,0.0,0.0,0.0,0.0,0.0,0.0,0.0,0.0,0.0,0.0,0.0,0.0,0.0,0.0,0.0,0.0,0.0,0.0,-2.2862,-2.4205,-2.5026,-2.4199,-2.5584,-2.6599,-2.6582,-2.728,-2.7761,-2.7751,-2.7751,-2.7741,-2.7627,-2.8502,-2.8366,-2.6992,-2.8246,-2.8256,-2.6992,-2.6973,-2.6953,-2.6943,-2.6094,-2.5693,-2.5664,-2.4795,-2.4273,-2.4021,-2.4011,-2.4887,-2.6595,-2.8877,-2.9796,-2.9825,-2.9761,-2.9813,-3.0259,-3.4095,-3.547,-3.5493,0.0,0.0,0.0,0.0,0.0,0.0,0.0,-1.5923,-1.2058,-0.4114,-0.0829,0.3495,1.0633,0.9882,0.7165,0.3067,-0.3273,-0.9453,-1.5099,-2.0253,-2.4083,-2.6397,-2.3273,-1.9243,-1.4475,-1.1706,-0.8478,-0.4613,-0.5084,-0.5425,-0.5552,-0.626,-0.719,-0.8284,-0.9994,-1.2466,-1.5503,-1.7367,-1.9616,-2.205,-2.4039,-2.5492,-2.6525,0.0,0.0,0.0,0.0,0.0,0.0,0.0,0.0,0.0,0.0,0.0,0.0,0.0,0.0,0.0,0.0,0.0,0.0,0.0,0.0,0.0,0.0,0.0,0.0,0.0,0.0,0.0,0.0,0.0,0.0,0.0,0.0,-2.5016,-2.5275,-2.6304,-2.7379,-2.8327,-2.9132,-2.9676,-2.9942,-3.016,-2.978,-2.8572,-2.8551,-2.8026,-2.6859,-2.73,-2.726,-2.6572,-2.6943,-2.6943,-2.6562,-2.5928,-2.5596,-2.5596,-2.5039,-2.4775,-2.4766,-2.4209,-2.3945,-2.3826,-2.3514,-2.4283,-2.5917,-2.8656,-2.9829,-2.9799,-2.9841,-2.9807,-3.0268,-3.412,-3.5489,-3.5068,0.0,0.0,0.0,0.0,0.0,0.0,0.0,-1.6283,-1.1354,-0.1047,0.176,0.6303,1.5567,1.4294,1.0119,0.3624,-0.2333,-0.8851,-1.6231,-2.1258,-2.4168,-2.4624,-2.1126,-1.7265,-1.3233,-1.0511,-0.7592,-0.4448,-0.5059,-0.545,-0.568,-0.6426,-0.7536,-0.9034,-1.0308,-1.2595,-1.5725,-1.7511,-1.9746,-2.2215,-2.4777,-2.6191,-2.6826,-2.68,-2.7026,-2.7338,-2.6958,-2.7612,-2.8555,-2.8034,0.0,0.0,0.0,0.0,0.0,0.0,0.0,0.0,0.0,0.0,0.0,0.0,0.0,0.0,0.0,0.0,0.0,0.0,0.0,0.0,0.0,0.0,0.0,0.0,-2.5706,-2.7008,-2.8686,-2.8799,-2.9249,-3.0515,-3.0691,-3.0637,-3.0666,-3.0496,-2.9965,-2.8935,-2.8263,-2.7486,-2.6597,-2.6172,-2.581,-2.5566,-2.5566,-2.5566,-2.5566,-2.5049,-2.4795,-2.4785,-2.4355,-2.415,-2.4141,-2.3711,-2.3516,0.0,-2.3252,-2.3902,-2.5311,-2.7541,-2.8698,0.0,0.0,0.0,0.0,0.0,-3.3132,-3.2767,0.0,0.0,0.0,0.0,0.0,0.0,0.0,-1.717,-1.178,-0.0199,0.2796,0.7821,1.8254,1.7834,1.3077,0.3984,-0.1135,-0.8148,-1.8315,-2.2243,-2.3613,-2.2296,-1.8878,-1.5531,-1.2265,-0.9327,-0.6885,-0.5081,-0.5143,-0.5432,-0.599,-0.6978,-0.8269,-0.9774,-1.085,-1.2983,-1.582,-1.7984,-2.0016,-2.2046,-2.4765,-2.6194,-2.6804,-2.6924,-2.7412,-2.783,-2.7059,-2.8001,-2.9508,-2.9296,0.0,0.0,0.0,0.0,0.0,0.0,0.0,0.0,0.0,0.0,0.0,0.0,0.0,0.0,0.0,0.0,0.0,0.0,0.0,0.0,0.0,0.0,0.0,0.0,-2.7978,-2.9526,-3.1916,-3.1034,-3.0557,-3.1479,-3.0987,-3.0471,-3.012,-2.9566,-2.9205,-2.9114,-2.7828,-2.6862,-2.6545,0.0,0.0,0.0,0.0,-2.4414,-2.4414,-2.4375,-2.4346,-2.4346,-2.3916,-2.3721,-2.3701,-2.332,-2.3115,-2.3066,-2.3115,-2.375,-2.4882,-2.5948,-2.7082,-2.8167,-2.9332,-2.9783,-2.9838,-2.981,-2.983,0.0,0.0,0.0,0.0,0.0,0.0,0.0,0.0,-1.6677,-1.1244,-0.0623,0.3823,0.9422,1.8429,1.7643,1.3323,0.5515,-0.1086,-0.9833,-2.1663,-2.2017,-2.1391,-2.0522,-1.6478,-1.2962,-1.0243,-0.7763,-0.594,-0.4775,-0.5354,-0.5665,-0.5652,-0.7552,-0.8732,-0.9395,-1.1882,-1.3629,-1.4932,-1.8163,-1.997,-2.0865,-2.3675,-2.5366,-2.6244,-2.6777,-2.7304,-2.763,-2.7499,-2.9106,-3.1219,-3.0643,-3.2076,-3.4088,-3.3884,-3.355,0.0,0.0,0.0,0.0,0.0,0.0,0.0,0.0,0.0,0.0,0.0,0.0,0.0,0.0,0.0,0.0,0.0,0.0,0.0,-2.6757,-2.8907,-3.0802,-3.1821,-3.1333,-3.109,-3.1704,-3.1272,-3.095,-3.1076,-3.0977,-3.0567,-2.9523,-2.9172,-2.8068,-2.5784,-2.5689,0.0,-2.3926,-2.4238,-2.4414,-2.4414,-2.4082,-2.3906,-2.3906,0.0,0.0,-2.3262,-2.3184,-2.2959,-2.2656,-2.2988,-2.3811,-2.499,-2.5538,-2.6659,-2.8226,-2.9363,-2.977,-2.9821,-2.9789,-2.9804,-2.9528,0.0,0.0,0.0,0.0,0.0,0.0,0.0,-1.7716,-1.2864,-0.3306,0.1896,0.8448,1.8317,1.8985,1.4553,0.4258,-0.5082,-1.2609,-1.7814,-1.6577,-1.5025,-1.3617,-1.0761,-0.8659,-0.7346,-0.6335,-0.5266,-0.4002,-0.5125,-0.5958,-0.6602,-0.8035,-0.933,-1.0585,-1.2319,-1.3972,-1.5549,-1.7944,-1.9906,-2.158,-2.3653,-2.5131,-2.6105,-2.6136,-2.6442,-2.6859,-2.7498,-2.9114,-3.1118,-3.1761,-3.3412,-3.5253,-3.5459,-3.5816,-3.5827,0.0,0.0,0.0,0.0,0.0,0.0,0.0,0.0,0.0,0.0,0.0,0.0,0.0,0.0,-2.1709,0.0,0.0,-2.6562,-2.8299,-3.0136,-3.1884,-3.3394,-3.2694,-3.2277,-3.2709,-3.1662,-3.0931,-3.1305,-3.0608,-2.9795,-2.8949,-2.8359,-2.7186,-2.5294,-2.484,-2.4129,-2.2928,-2.3242,-2.3467,-2.3467,-2.3467,-2.3467,-2.3457,-2.3027,-2.2822,-2.2822,-2.2607,-2.2402,-2.2207,-2.2888,-2.3597,-2.4219,-2.5498,-2.6864,-2.8147,-2.8918,-2.9111,-2.8925,-2.8971,-2.9336,-2.9454,0.0,0.0,0.0,0.0,0.0,0.0,0.0,-1.8625,-1.4662,-0.6259,-0.1036,0.5734,1.5781,1.8007,1.3802,0.1464,-0.8098,-1.2668,-1.0794,-0.8957,-0.7175,-0.5493,-0.3976,-0.3306,-0.3624,-0.42,-0.4027,-0.306,-0.498,-0.6494,-0.76,-0.8763,-1.0265,-1.2052,-1.2946,-1.4449,-1.6408,-1.7985,-2.003,-2.236,-2.384,-2.5068,-2.5942,-2.5682,-2.5908,-2.6554,-2.7661,-2.9127,-3.0837,-3.2481,-3.4288,-3.584,-3.6228,-3.7379,-3.8046,-3.5421,-3.487,0.0,0.0,0.0,0.0,0.0,0.0,0.0,0.0,-2.5087,-2.334,-2.237,-2.2099,-2.2448,-2.3474,-2.5285,-2.742,-2.9943,-3.13,-3.2596,-3.4528,-3.3819,-3.3248,-3.3376,-3.2136,-3.1254,-3.0916,-2.9602,-2.853,-2.8154,-2.7115,-2.6139,-2.5182,-2.3956,-2.2925,-2.1958,-2.2139,-2.2305,-2.2383,-2.2725,-2.2891,-2.2891,-2.2549,-2.2393,-2.2383,-2.2271,-2.2145,-2.2138,-2.3098,-2.3517,-2.3759,-2.5716,-2.703,-2.7808,-2.8397,-2.8274,-2.7808,-2.8021,-2.8851,-2.9417,0.0,0.0,0.0,0.0,0.0,0.0,0.0,0.0,-1.4711,-0.7751,-0.3544,0.1105,0.7199,0.9602,0.7005,-0.2395,-0.4546,-0.4633,-0.28,-0.088,0.0296,0.0531,0.2353,0.2644,0.1141,-0.0053,-0.1248,-0.2325,-0.5698,-0.7446,-0.7653,-1.025,-1.1886,-1.2764,-1.446,-1.5628,-1.6577,-1.9166,-2.061,-2.1378,-2.3645,-2.4842,-2.5313,-2.62,-2.7071,-2.7883,-2.8677,-3.0063,-3.1663,-3.2588,-3.4341,-3.6151,-3.622,-3.7022,-3.7443,-3.4789,-3.4114,-3.3777,-3.17,-3.1018,-3.0943,-3.0864,-2.8679,-2.6778,0.0,-2.5341,-2.3122,-2.3008,-2.293,-2.3396,-2.4908,-2.6628,-2.8568,-3.0611,-3.2026,-3.2947,-3.2799,-3.311,-3.31,-3.2393,-3.3199,-3.2883,-3.0218,-2.8904,-2.8127,-2.8062,-2.7105,-2.6251,-2.5572,-2.422,-2.2958,-2.1938,-2.1553,-2.1562,-2.1953,-2.2002,-2.2031,-2.2031,-2.1982,-2.1953,-2.1953,-2.2818,-2.2964,-2.2694,-2.3643,-2.4307,-2.4716,-2.5975,-2.6571,-2.6747,-2.7803,-2.7562,-2.6766,-2.7745,-2.8851,-2.9775,0.0,0.0,0.0,0.0,0.0,0.0,0.0,0.0,0.0,-1.3554,-0.9207,-0.5536,-0.3369,-0.1591,-0.1924,-0.5291,-0.3824,-0.0729,0.3898,0.6327,0.8242,0.9645,1.008,0.9552,0.8054,0.5108,0.2668,0.0647,-0.3594,-0.6968,-0.9475,-1.1777,-1.3497,-1.4776,-1.6195,-1.7422,-1.8498,-2.0091,-2.1565,-2.2827,-2.3971,-2.4927,-2.5732,-2.6174,-2.7178,-2.839,-2.8887,-2.9409,0.0,-3.1865,-3.2713,-3.3283,-3.4532,-3.5223,-3.5294,-3.4016,-3.3758,-3.3698,-3.2739,-3.0875,-2.9441,-3.0484,-2.8541,-2.6371,-2.6332,-2.4919,-2.3474,-2.2867,-2.3381,-2.4265,-2.5112,-2.7136,-2.902,0.0,-3.1443,-3.2374,-3.223,-3.2277,-3.2152,-3.1801,-3.2309,-3.1985,-3.0269,-2.9287,-2.8329,-2.7419,-2.6842,-2.6108,-2.5181,-2.41,-2.2567,-2.0448,-2.0674,-2.0937,-2.1113,-2.2241,-2.2727,-2.2717,-2.3092,-2.2966,-2.241,-2.2507,-2.2582,-2.2772,-2.3456,-2.4297,-2.5222,-2.6092,-2.6514,-2.6539,-2.6998,-2.6893,-2.6578,-2.6985,-2.7455,-2.787,0.0,0.0,0.0,0.0,0.0,0.0,0.0,0.0,0.0,0.0,-1.4313,-1.2298,-1.224,-1.0711,-0.8808,-0.6718,-0.3246,0.1902,0.9148,1.2362,1.4909,1.6917,1.6387,1.52,1.335,0.9735,0.665,0.4187,-0.0562,-0.5056,-0.93,-1.2888,-1.5285,-1.6636,-1.7846,-1.9102,-2.039,-2.1241,-2.2494,-2.3977,-2.4448,-2.5226,-2.6123,-2.6337,-2.7157,-2.8311,-2.8923,-2.916,-2.9448,-3.1458,-3.144,-3.0902,-3.26,-3.3197,-3.3189,-3.267,-3.2539,-3.2397,-3.1631,-2.9605,-2.7943,-2.8755,-2.7237,-2.5367,-2.4747,-2.3822,-2.3002,-2.2758,-2.3495,-2.4546,-2.5661,-2.7492,-2.9117,-2.9996,-3.0827,-3.1471,-3.1999,-3.1694,-3.146,-3.1471,-3.1471,-3.1155,-3.0324,-2.9011,-2.7561,-2.6008,-2.5728,-2.4834,-2.3014,-2.2754,-2.1686,-1.937,-1.9671,-2.0088,-2.0609,-2.1916,-2.2856,-2.3385,-2.3818,-2.3446,-2.2429,-2.2168,-2.2402,-2.3063,-2.3478,-2.4193,-2.5065,-2.5397,-2.5923,-2.6414,-2.5794,-2.5576,-2.5576,-2.5575,-2.5547,-2.5542,0.0,0.0,0.0,0.0,0.0,0.0,0.0,0.0,0.0,0.0,0.0,0.0,0.0,-1.5781,-1.2021,-0.6146,-0.2086,0.3857,1.2659,1.6917,1.9508,2.0505,2.0156,1.8571,1.5658,1.3114,1.0546,0.7932,0.305,-0.1449,-0.5634,-1.3431,-1.7336,-1.7813,-1.9282,-2.0578,-2.1711,-2.2723,-2.3353,-2.3814,-2.4994,-2.5712,-2.6172,-2.6887,-2.7208,-2.7446,-2.9014,-2.9877,-3.0461,-3.1772,-3.123,-3.0139,-3.0798,-3.1357,-3.1566,-3.0599,-2.988,-2.9052,-2.719,-2.7032,-2.701,-2.5484,-2.4222,-2.3305,-2.3022,-2.1751,-2.1154,-2.2925,-2.3176,-2.3975,-2.6987,-2.7776,-2.8796,-3.1381,-3.0543,-3.0198,-3.2057,-3.172,-3.1315,-3.1418,-3.1374,-3.1075,0.0,-2.7491,-2.5159,-2.3782,-2.355,-2.1938,-1.841,-1.9764,-2.0239,-1.934,-1.8524,-1.8896,-2.0595,-2.0636,-2.1649,-2.347,-2.3538,-2.2905,-2.1722,-2.1908,-2.2709,-2.3979,-2.4079,-2.4167,-2.4155,-2.3492,-2.4532,-2.6259,-2.4041,-2.3201,-2.3204,-2.3194,-2.3195,-2.3183,0.0,0.0,0.0,0.0,0.0,0.0,0.0,0.0,0.0,0.0,0.0,0.0,0.0,0.0,0.0,0.0,-0.5681,0.0613,0.8835,1.5778,1.9875,2.0528,2.0826,2.0113,1.8256,1.5408,1.2032,0.8162,0.3886,-0.0608,-0.5331,-0.9809,-1.3092,-1.5358,-1.7095,-1.8839,-2.0519,-2.1647,-2.2531,-2.3239,-2.4052,-2.4471,-2.467,-2.4918,-2.5695,-2.6681,0.0,-2.6981,-2.7363,-2.8949,-2.8296,-2.6966,-2.7791,-2.7769,-2.7374,-2.6993,-2.6454,-2.5823,-2.5077,-2.3258,-2.1717,-2.2377,-2.1302,-2.0355,-2.1188,-2.142,-2.1576,-2.1933,-2.319,-2.4693,-2.6045,-2.7527,-2.877,-2.9308,-2.939,-2.9611,-3.0196,-3.0949,-3.142,-3.1415,-3.1982,0.0,0.0,0.0,0.0,-2.64,-2.2989,-2.0159,-1.8092,-1.8532,-1.8718,-1.8466,-1.8151,-1.8245,-1.8884,-1.8834,-1.9494,-2.0758,-2.319,-2.3526,-2.2048,-2.198,-2.2197,-2.2623,-2.3232,-2.3447,-2.3471,-2.3191,-2.3577,-2.4145,-2.3412,-2.3086,-2.3113,-2.3124,-2.3088,-2.3096,0.0,0.0,0.0,0.0,0.0,0.0,0.0,0.0,0.0,0.0,0.0,0.0,0.0,0.0,0.0,0.0,0.0,-0.3133,0.4548,1.1808,1.6485,1.8041,1.8734,1.8572,1.7503,1.6055,1.3459,0.9655,0.8893,0.4981,-0.1901,-0.5723,-0.9821,-1.3995,-1.555,-1.733,-1.9247,-2.0241,-2.1254,-2.2233,-2.2824,-2.3344,-2.3773,-2.3686,-2.4335,0.0,-2.509,-2.4438,-2.4026,-2.6428,-2.606,-2.4724,-2.5466,-2.5633,-2.5249,-2.3667,-2.2758,-2.2058,-2.0945,-1.8596,-1.696,-1.8811,-1.8902,-1.8834,-2.0139,-2.1115,-2.1936,-2.2491,-2.3688,-2.4994,-2.6143,-2.769,-2.8678,-2.8233,-2.8764,-2.9284,-2.9544,-2.9985,-3.0384,-3.0627,-3.1078,-3.0906,0.0,0.0,0.0,-2.7183,-2.336,-2.0203,-1.8116,-1.7431,-1.734,-1.796,-1.8006,-1.7998,-1.8035,-1.9233,-1.9462,-1.8856,-2.125,-2.2421,-2.2492,-2.1702,-2.1553,-2.1951,-2.2464,-2.2731,-2.2687,-2.2128,-2.1914,-2.1949,-2.1949,-2.1908,-2.202,-2.2808,-2.3077,-2.3094,0.0,0.0,0.0,0.0,0.0,0.0,0.0,0.0,0.0,0.0,0.0,0.0,0.0,0.0,0.0,0.0,0.0,0.0,0.0089,0.5576,1.0007,1.3336,1.439,1.4456,1.352,1.4834,1.4323,1.1778,1.6435,1.3655,0.3869,-0.1852,-0.7742,-1.3575,-1.456,-1.6089,-1.7898,-1.856,-1.956,-2.0747,-2.137,-2.233,-2.3392,-2.3193,-2.3127,-2.3223,-2.3798,-2.2409,-2.0887,-2.4325,-2.4284,-2.284,-2.313,-2.3998,-2.4053,-1.9973,-1.8407,-1.7388,-1.4634,-1.3157,-1.2876,-1.4911,-1.6875,-1.8626,-1.9825,-2.0889,-2.2201,-2.4401,-2.4508,-2.4926,-2.7201,0.0,-2.8503,-2.832,-2.8732,-2.9262,-2.9914,-2.886,-2.8291,0.0,0.0,0.0,0.0,0.0,0.0,-2.5911,0.0,-2.1786,-1.8202,-1.6335,-1.6178,-1.783,-1.788,-1.7921,-1.8016,-2.1197,-2.123,-1.7975,-1.7975,-1.9781,-2.3046,-2.1283,-2.0997,-2.189,-2.1908,-2.1868,-2.1805,-2.0397,-1.9777,-1.9821,-1.9821,-1.9777,-2.0053,-2.2137,-2.2919,-2.2929,0.0,0.0,0.0,0.0,0.0,0.0,0.0,0.0,0.0,0.0,0.0,0.0,0.0,0.0,0.0,0.0,0.0,0.0,-0.5662,0.1049,0.615,0.9275,1.2646,1.2869,0.9539,0.8637,0.7087,0.476,0.5395,0.3761,-0.0,-0.3401,-0.6653,-0.976,-1.1679,-1.3264,-1.4689,-1.6239,-1.7323,-1.8153,-1.9777,-2.0655,-2.0946,-2.1467,-2.1978,-2.2354,-2.1562,-2.0526,-1.9807,-2.1949,-1.8266,-1.2634,-1.1947,-1.0686,-0.9222,-0.7962,-0.7894,-0.8051,-0.7361,-0.7061,-0.766,-1.0759,-1.3635,-1.65,-1.9425,-2.1721,-2.3406,-2.407,-2.5085,-2.5973,-2.6511,-2.797,-2.8956,-2.8447,-2.9074,0.0,-2.8697,-2.7834,0.0,-2.6899,0.0,-2.6258,-2.5667,-2.4734,0.0,0.0,-2.3146,-2.169,-1.8219,-1.636,-1.5609,-1.6059,-1.6085,-1.6681,-1.7968,-1.888,-1.888,-1.7999,-1.7999,-1.9772,-2.3108,-2.2593,-2.1642,-2.0366,-2.0374,-2.0342,-2.0316,-1.9951,-1.9797,-1.9788,-1.9788,-1.9789,-1.986,-2.0407,-2.0655,-2.0618,0.0,0.0,0.0,0.0,0.0,0.0,0.0,0.0,0.0,0.0,0.0,0.0,0.0,0.0,0.0,0.0,0.0,0.0,0.0,-0.3194,0.1011,0.4274,0.7025,0.7398,0.5008,0.3108,0.163,0.0601,-0.0919,-0.2047,-0.2902,-0.443,-0.5846,-0.7249,-0.8537,-1.0024,-1.1668,-1.3019,-1.4328,0.0,0.0,-1.8364,-1.8948,-2.0053,-2.0556,-2.0508,-1.9786,-1.6769,-1.2712,-0.9469,-0.6997,-0.4963,-0.3384,-0.2301,-0.1343,-0.0024,-0.015,-0.0692,-0.0584,-0.1159,-0.3121,-0.8401,-1.2586,-1.6403,-2.0357,-2.3105,-2.4842,-2.4846,-2.5452,-2.6044,-2.6147,-2.7812,-2.8771,-2.7547,0.0,0.0,-2.6701,-2.5017,-2.3743,0.0,-2.283,0.0,-2.1289,-2.0676,-1.9922,0.0,-2.127,-2.1493,-1.8736,-1.6568,-1.5083,-1.4309,-1.5004,-1.5859,-1.6864,-1.6864,-1.6864,-1.6864,-1.6878,-1.784,-1.9746,-1.9715,-1.974,-1.9801,0.0,-1.9773,-1.9812,-1.9812,-1.9818,-1.9798,-1.9798,-1.9808,-1.9812,-1.9812,-1.9777,-1.9805,0.0,0.0,0.0,0.0,0.0,0.0,0.0,0.0,0.0,0.0,0.0,0.0,0.0,0.0,0.0,0.0,0.0,0.0,0.0,0.0,-0.4699,-0.1293,-0.0375,0.0054,-0.0,-0.1846,-0.2591,-0.2159,-0.4179,-0.5099,-0.4944,-0.522,-0.5568,-0.5872,-0.6096,-0.7237,-0.9023,-0.9771,-1.113,-1.2959,-1.4563,-1.5774,-1.69,0.0,-1.8844,-1.8307,-1.8112,-1.2277,-0.3222,0.6027,0.5867,0.2197,0.4399,0.4655,0.4604,0.6945,0.697,0.6268,0.6284,0.4635,0.1037,-0.6621,-1.2272,-1.7156,-2.1726,-2.4646,-2.6302,-2.5999,-2.5777,-2.5753,-2.6062,-2.7597,-2.815,-2.6114,0.0,-2.5419,-2.3688,-2.0953,-1.9019,-1.8856,-1.8187,-1.7323,-1.646,-1.6093,-1.5601,-1.4807,-1.8614,-2.0359,-1.9019,-1.6688,-1.474,-1.3287,-1.4619,-1.5378,-1.5408,-1.5417,-1.5417,-1.5408,-1.5425,-1.5609,-1.5949,-1.5992,-1.7389,-1.9785,0.0,0.0,-1.9798,-1.9798,-1.9798,-1.9798,-1.9798,-1.9798,-1.9798,-1.9798,-1.9773,-1.9799,0.0,0.0,0.0,0.0,0.0,0.0,0.0,0.0,0.0,0.0,-2.5375,-2.517,0.0,0.0,0.0,0.0,0.0,0.0,0.0,0.0,0.0,-0.7389,-0.597,-0.5457,-0.5905,-0.6282,-0.6232,-0.5692,-0.6262,-0.6257,-0.5665,-0.6493,-0.6621,-0.6173,-0.6928,-0.7452,-0.7826,-0.8637,-0.9285,-0.9952,-1.2224,-1.3331,-1.3807,-1.6081,0.0,0.0,-1.6083,-0.9051,0.1258,0.9615,1.2645,1.3216,1.5382,1.7675,1.9579,1.9733,1.8253,1.6303,1.4866,1.077,0.5111,-0.2565,-0.9783,-1.6488,-2.2013,-2.5347,-2.7058,-2.6305,-2.6331,-2.6429,-2.6206,-2.7049,-2.71,-2.5079,-2.3544,-2.1524,-1.8508,-1.5835,-1.4313,0.0,-1.4263,-1.4367,-1.4942,-1.4773,0.0,0.0,0.0,-1.536,-1.7056,-1.6017,-1.5283,-1.4968,-1.5269,-1.5421,-1.5414,-1.5424,-1.5424,-1.5424,-1.541,-1.6691,-1.9018,-1.9018,-1.9311,-1.9777,-1.982,0.0,-1.9798,-1.9798,-1.9798,-1.9798,-1.9798,-1.9798,-1.9798,-1.9798,-1.98,-1.9786,0.0,0.0,0.0,0.0,0.0,0.0,0.0,-2.4155,-2.4033,-2.4564,-2.4683,-2.4571,-2.4228,-2.2656,-2.1015,0.0,0.0,0.0,0.0,0.0,0.0,0.0,-0.8233,-0.7617,-0.7503,-0.7706,-0.7592,-0.7095,0.0,-0.7738,-0.6879,-0.7046,-0.6743,-0.6023,-0.6126,-0.6351,-0.6721,-0.7224,-0.7751,-0.846,-1.0093,-1.1106,-1.1821,0.0,0.0,0.0,-1.4205,-0.7146,0.3516,1.338,1.7162,1.8417,2.1982,2.3986,2.4915,2.4442,2.2702,2.074,2.001,1.5848,0.9425,-0.0181,-0.7119,-1.3795,-2.2179,-2.5566,-2.6727,-2.5983,-2.5938,-2.5976,-2.5814,-2.6612,-2.5987,-2.1987,-2.0273,-1.7873,-1.3256,-1.0716,-0.9625,-1.0323,-1.0213,-1.0596,-1.2047,-1.1496,-1.124,0.0,0.0,-1.2399,-1.4648,-1.357,-1.3266,-1.4052,-1.4109,-1.4099,-1.4088,-1.4952,-1.5391,-1.5391,-1.5379,-1.5883,-1.6884,-1.8298,-1.898,-1.9018,-1.9548,0.0,-1.9788,-1.9787,-1.9798,-1.9798,-1.9798,-1.9798,-1.9672,-1.8505,-1.8821,-1.962,0.0,0.0,0.0,0.0,0.0,0.0,0.0,-2.21,-2.1838,-2.3198,-2.3409,-2.3482,-2.3673,-2.2654,-2.1293,0.0,0.0,0.0,0.0,0.0,0.0,0.0,0.0,0.0,0.0,0.0,0.0,-0.8088,-0.9033,0.0,0.0,0.0,0.0,0.0,-0.5287,-0.5389,-0.5945,-0.5868,-0.6297,0.0,0.0,-0.8668,0.0,0.0,0.0,0.0,0.0,-0.6069,0.3969,1.4383,1.8287,1.9657,2.4414,2.5987,2.5967,2.5486,2.4273,2.3118,2.31,1.9558,1.3083,0.1455,-0.5061,-1.1431,-2.216,-2.5571,-2.63,-2.5638,-2.5466,-2.5447,-2.5428,-2.5777,-2.4164,-1.8322,-1.6121,-1.3214,-0.7604,-0.5503,-0.5049,-0.6533,-0.6722,0.0,-0.9452,-0.862,0.0,0.0,0.0,0.0,-1.2229,-1.096,-1.0778,-1.1972,-1.2007,-1.2305,-1.2869,-1.4205,-1.5019,-1.5395,-1.5409,-1.4916,-1.4178,-1.6411,-1.767,-1.8068,-1.9092,0.0,0.0,-1.9813,-1.9799,-1.9786,-1.9533,-1.9623,-1.956,-1.7504,-1.7739,-1.8877,0.0,0.0,0.0,0.0,0.0,0.0,0.0,-1.855,-1.8218,-2.0687,-2.133,-2.185,-2.2632,-2.3127,-2.2813,0.0,0.0,0.0,0.0,0.0,0.0,0.0,0.0,0.0,0.0,0.0,0.0,-0.9599,-0.971,0.0,0.0,0.0,0.0,0.0,0.0,-0.5597,-0.5881,-0.5012,0.0,0.0,0.0,0.0,0.0,0.0,0.0,0.0,0.0,-0.5626,0.2233,0.9176,1.3373,1.6356,2.0743,2.3251,2.4534,2.4248,2.4626,2.4977,2.4257,2.1107,1.5027,0.2505,-0.4551,-1.1209,-2.1835,-2.5545,-2.6524,-2.5678,-2.5543,-2.5563,-2.5505,-2.3973,-2.0835,-1.4994,-1.0565,-0.605,-0.0887,0.0145,-0.0525,-0.3224,0.0,0.0,-0.8549,-0.8292,0.0,0.0,0.0,0.0,-1.0,-0.9345,-0.9044,-0.9153,-0.9183,-1.0363,-1.2885,-1.3051,-1.3887,-1.5405,-1.5392,-1.4945,-1.4121,-1.4763,-1.5875,-1.7424,-1.8405,0.0,0.0,-1.9797,-1.9813,-1.9684,-1.8721,-1.8946,-1.9632,-1.8078,-1.7188,-1.6913,0.0,0.0,0.0,0.0,0.0,0.0,-1.3814,-1.3424,-1.3805,-1.5217,-1.7574,-2.0108,-2.2677,-2.3778,-2.3652,-2.1967,0.0,0.0,0.0,0.0,0.0,0.0,0.0,0.0,0.0,0.0,-0.9614,-1.0415,-1.0415,0.0,0.0,0.0,0.0,0.0,0.0,-0.5546,-0.5614,-0.4805,0.0,0.0,0.0,0.0,0.0,0.0,0.0,0.0,0.0,0.0,0.0464,0.6788,1.0282,1.2619,1.612,1.7272,1.8127,2.194,2.3545,2.4366,2.5423,2.3296,1.8305,0.8079,0.041,-0.813,-2.1568,-2.5098,-2.5478,-2.5292,-2.5247,-2.523,-2.5208,-2.2148,-1.7776,-1.1966,-0.6819,-0.2044,0.2478,0.3017,0.1912,-0.0983,-0.2837,0.0,0.0,0.0,0.0,0.0,0.0,0.0,-0.9158,-0.8919,-0.8786,-0.8791,-0.8795,-0.9313,-1.0413,-1.0457,-1.1592,-1.388,-1.3898,-1.3992,-1.4134,-1.4264,-1.4871,-1.5787,-1.6916,0.0,0.0,-1.9264,-1.9786,-1.9762,-1.9308,-1.8623,-1.7725,-1.7166,-1.6739,-1.6565,0.0,0.0,0.0,0.0,0.0,-1.1401,-0.8929,-0.9725,-1.0883,-1.1641,-1.5783,-1.9804,-2.2767,-2.3968,-2.3999,-2.264,-2.0776,0.0,0.0,0.0,0.0,0.0,0.0,0.0,0.0,0.0,-0.9666,-1.0813,-1.1007,-1.1399,0.0,0.0,0.0,0.0,0.0,0.0,0.0,0.0,0.0,0.0,0.0,0.0,0.0,0.0,0.0,0.0,0.0,0.0,0.0,0.0,0.0,0.9131,1.0846,1.1748,1.3162,1.8536,2.1655,2.3715,2.5534,2.4251,2.0331,1.1633,0.3985,-0.5075,-1.9035,-2.3092,-2.4109,-2.4782,-2.487,-2.4856,-2.4854,-2.0427,-1.5071,-0.9803,-0.4169,0.0934,0.4918,0.4725,0.3199,0.0524,0.0,-0.3367,0.0,0.0,0.0,0.0,0.0,0.0,0.0,-0.8816,-0.8782,-0.8811,-0.8783,-0.9016,-0.9393,-0.8982,-1.0162,-1.2917,-1.2898,-1.3208,-1.3771,-1.3767,-1.3921,-1.4233,0.0,0.0,0.0,-1.8157,-1.9223,-1.9801,-1.9807,-1.8875,-1.7399,-1.6724,-1.6507,-1.6483,0.0,0.0,0.0,0.0,0.0,0.0,-0.646,-0.8254,-1.0112,-1.125,-1.6983,-2.1448,-2.2664,-2.3523,-2.3873,-2.3524,-2.2004,0.0,0.0,0.0,0.0,0.0,0.0,0.0,0.0,0.0,-1.0115,-1.0813,-1.1423,-1.2055,-1.2822,-1.3375,-1.2964,-1.1603,0.0,0.0,0.0,0.0,0.0,0.0,0.0,0.0,0.0,0.0,0.0,0.0,0.0,0.0,0.0,0.0,0.0,0.0,0.0,0.7396,1.1247,1.3992,1.8873,2.3565,2.4259,2.3435,2.0319,1.1578,0.4743,-0.2643,-1.3429,-1.9073,-2.2506,-2.4155,-2.4511,-2.4506,-2.4514,-1.8823,-1.2825,-0.8748,-0.2505,0.3159,0.6759,0.541,0.3348,0.0,0.0,-0.3209,0.0,0.0,0.0,0.0,0.0,0.0,0.0,-0.8811,-0.8811,-0.8804,-0.8804,-0.9411,-1.0797,-0.9446,-1.0198,-1.2908,-1.29,-1.2891,-1.292,-1.2923,-1.2935,0.0,0.0,0.0,0.0,-1.6544,-1.7798,-1.9819,-1.9812,-1.9768,-1.9503,-1.7293,-1.6479,-1.6479,0.0,0.0,0.0,0.0,0.0,0.0,0.0,-0.0597,-0.359,-0.4875,-1.1644,-1.8024,-2.2469,-2.3163,-2.3171,-2.2775,-2.1904,0.0,0.0,0.0,0.0,0.0,0.0,0.0,0.0,0.0,-0.9377,-1.0115,-1.135,-1.2751,-1.4323,-1.5432,-1.5815,-1.5442,-1.3246,0.0,0.0,0.0,0.0,0.0,0.0,0.0,0.0,0.0,0.0,0.0,0.0,0.0,0.0,0.0,0.0,0.0,0.0,0.0,0.0,1.3129,1.6543,2.019,2.1397,2.0952,1.8962,1.4016,0.6513,-0.2211,-1.2001,-1.7574,-2.1268,-2.3268,-2.4238,-2.3662,-2.0212,-1.5114,-0.9551,-0.3758,0.1484,0.5464,0.7212,0.0,0.0,0.2411,-0.0733,-0.3083,0.0,0.0,0.0,0.0,0.0,0.0,0.0,-0.8533,-0.8804,-0.8804,-0.8804,-0.9029,-0.9411,-0.9908,-1.1099,-1.2903,-1.289,-1.2881,-1.292,-1.2902,0.0,0.0,0.0,0.0,0.0,-1.7048,-1.7393,-1.7697,-1.9211,-1.9813,-1.9548,-1.7337,-1.6522,-1.6522,0.0,0.0,0.0,0.0,0.0,0.0,0.0,0.255,-0.1314,-0.2355,-1.0266,-1.7513,-2.1922,-2.2229,-2.2015,-2.1787,-2.0969,0.0,0.0,0.0,0.0,0.0,0.0,0.0,-1.1106,-0.9717,-0.9283,-0.9814,-1.1427,-1.3092,-1.4846,-1.6776,-1.7707,-1.7713,-1.6037,-1.4224,0.0,0.0,0.0,0.0,0.0,0.0,1.3385,0.0,0.0,0.0,0.0,0.0,0.0,0.0,0.0,0.0,0.0,0.0,0.0,0.0,1.5153,1.7198,1.848,1.8436,1.7277,1.4304,0.7217,-0.0971,-0.8548,-1.4695,-1.9323,-2.1182,-2.1902,-2.1049,-1.7284,-1.1451,-0.5822,-0.1465,0.3121,0.6358,0.7012,0.0,0.0,0.1247,0.0,0.0,0.0,0.0,0.0,0.0,0.0,0.0,0.0,-0.7723,-0.8043,-0.8256,-0.8639,-0.891,-0.9159,-0.9775,-1.1032,-1.2893,-1.288,-1.2881,-1.2929,-1.3858,0.0,0.0,0.0,0.0,0.0,-1.6992,-1.691,-1.6665,-1.8046,-1.8548,-1.8398,-1.7015,-1.6502,-1.6498,0.0,0.0,0.0,0.0,0.0,0.0,0.0,0.2377,-0.1959,-0.2854,-1.1838,-1.8947,-2.0981,-2.0819,-2.0575,-2.0575,0.0,0.0,0.0,0.0,0.0,0.0,0.0,0.0,-1.1751,-0.9956,-0.9176,-0.937,-1.0827,-1.2366,-1.4084,-1.7146,-1.8621,-1.8697,-1.8479,-1.7166,0.0,0.0,0.0,0.0,0.0,0.0,0.0,0.0,0.0,0.0,0.0,0.0,0.0,0.0,0.0,0.0,0.0,0.0,0.0,0.0,0.0,0.0,0.0,1.5684,1.537,1.2619,0.7092,0.1131,-0.3428,-1.0387,0.0,-1.7577,-1.7581,-1.675,-1.4769,-0.7656,-0.1793,-0.0909,0.3132,0.6216,0.0,0.4281,0.0,0.0,0.0,0.0,0.0,0.0,0.0,0.0,0.0,0.0,0.0,-0.6583,-0.6789,-0.7202,-0.8249,-0.9113,-0.971,-0.9096,-1.0081,-1.2603,-1.2822,-1.2881,-1.2988,-1.5219,0.0,0.0,0.0,0.0,0.0,-1.6522,-1.6522,-1.6522,-1.6522,-1.6522,-1.6522,-1.6497,-1.6503,-1.6507,0.0,0.0,0.0,0.0,0.0,0.0,0.0,0.0,0.0,0.0,-0.9553,-1.6087,-1.8876,-1.923,-1.9235,0.0,0.0,0.0,0.0,0.0,0.0,0.0,0.0,0.0,-1.1751,-0.6483,-0.4154,-0.4904,-0.3724,-0.5195,-0.9244,-1.413,-1.7614,-1.9759,-2.0001,-1.9358,0.0,0.0,0.0,0.0,0.0,0.0,0.0,0.0,0.0,0.0,0.9615,0.5456,0.0,0.0,0.0,0.0,0.0,0.0,0.0,0.0,0.4895,0.4842,0.78,0.0,1.346,1.0266,0.7374,0.445,0.0,-0.3985,-0.8078,-0.9215,-1.0803,-1.0495,-0.5457,-0.2057,0.124,0.4958,0.6524,0.7196,0.684,0.0,0.0,-0.0143,0.0,0.0,0.0,0.0,0.0,0.0,0.0,0.0,0.0,-0.6607,-0.6177,-0.5206,-0.7547,-0.8857,-0.9008,-0.8899,-0.912,-0.9799,-1.1917,-1.2881,-1.2929,-1.3501,0.0,0.0,0.0,0.0,-1.6522,-1.6522,-1.6522,-1.6522,-1.6522,-1.6522,-1.6497,-1.6507,-1.6517,-1.6736,0.0,0.0,0.0,0.0,0.0,0.0,0.0,0.0,0.0,0.0,0.0,-1.3435,-1.6715,-1.745,0.0,0.0,0.0,0.0,0.0,0.0,0.0,0.0,0.0,-1.2501,-0.8454,-0.5246,-0.2891,-0.1429,-0.1404,-0.3428,-0.7414,-1.2086,-1.6096,-1.9389,-2.0954,-2.076,0.0,0.0,0.0,0.0,1.4899,0.0,0.0,0.0,0.0,0.0,1.2953,0.8943,0.0,0.3696,0.2911,0.2492,0.0,0.0,0.0,0.0,0.2563,0.3003,0.5915,0.839,1.0225,1.0539,0.9691,0.8023,0.506,0.0646,-0.3126,-0.4134,-0.5433,-0.5129,-0.0946,0.1985,0.4663,0.7269,0.7837,0.0,0.0,0.0,0.2165,0.0,0.0,0.0,0.0,0.0,0.0,0.0,0.0,0.0,0.0,-0.6273,-0.5955,-0.4567,-0.6002,-0.7458,-0.8804,-0.8803,-0.8788,-0.8846,-1.1576,-1.2881,-1.292,-1.2919,-1.3602,0.0,0.0,0.0,-1.598,-1.5834,-1.5847,-1.598,-1.598,-1.6222,-1.6491,-1.6507,-1.7111,-1.8144,0.0,0.0,0.0,0.0,0.0,0.0,0.0,0.0,0.0,0.0,0.0,0.0,0.0,0.0,0.0,0.0,0.0,0.0,0.0,0.0,0.0,0.0,-1.2129,-0.946,-0.3425,-0.3179,-0.1524,0.1719,-0.0088,-0.2659,-0.5941,-0.9925,-1.4254,-1.8797,-2.178,-2.1971,0.0,0.0,0.0,0.0,1.3489,0.0,0.0,0.0,0.0,0.0,0.0,0.0,0.0,0.4884,0.2329,0.016,-0.1075,0.0,0.0,0.0,0.0,0.0,0.5198,0.564,0.6595,1.1033,1.1948,1.1224,0.9122,0.4813,0.1055,0.0203,-0.0382,-0.0172,0.1866,0.5333,0.7952,0.8033,0.0,0.0,0.3415,0.2928,0.2169,0.0,0.0,0.0,0.0,0.0,0.0,0.0,0.0,0.0,0.0,-0.5656,-0.5736,-0.4534,-0.4923,-0.6357,-0.8752,-0.8803,-0.9018,-0.943,-1.1769,-1.2881,-1.292,-1.2902,-1.3118,0.0,0.0,0.0,-1.5312,-1.4928,-1.4992,-1.5312,-1.5325,-1.5811,-1.6498,-1.6427,-1.7555,-1.9114,0.0,0.0,0.0,0.0,0.0,0.0,0.0,0.0,0.0,0.0,0.0,0.0,0.0,0.0,0.0,0.0,0.0,0.0,0.0,0.0,0.0,-0.336,-0.4106,-0.2611,0.1673,0.5682,0.6972,0.5471,0.6417,0.4424,-0.034,-0.5637,-1.2327,-2.006,-2.3143,-2.3983,-2.2519,-1.3516,-0.5102,0.2914,1.1733,0.0,0.0,0.0,0.0,0.0,0.0,0.0,0.0,0.7779,0.4607,0.1353,-0.2513,0.0,0.0,0.0,0.0,0.0,-0.1268,0.1031,0.3743,0.7362,1.0418,1.2597,1.2805,1.0592,0.8398,0.8017,0.6046,0.5083,0.7352,0.8824,0.973,0.0,0.0,0.644,0.0,0.0,0.0,0.0,0.0,0.0,0.0,0.0,0.0,0.0,0.0,0.0,0.0,0.0,-0.4725,-0.4495,-0.6865,-0.8353,-0.8804,-0.8803,-0.9969,-1.2273,-1.2713,-1.2881,-1.291,-1.2904,-1.4027,0.0,0.0,-1.4074,-1.4928,-1.4534,-1.4597,-1.4967,-1.4993,-1.5588,-1.643,-1.606,-1.6104,-1.64,0.0,0.0,0.0,0.0,0.0,0.0,0.0,0.0,0.0,0.0,0.0,0.0,0.0,0.0,0.0,0.0,0.0,0.0,0.0,0.0,-0.3346,0.1948,0.5275,0.7453,0.8447,1.1381,1.1631,0.9013,0.7946,0.4853,-0.0322,-0.8185,-1.5008,-2.0728,-2.3636,-2.4549,-2.3417,-1.667,-0.8534,0.051,0.0,0.0,0.0,0.0,0.0,0.0,0.0,0.0,0.0,0.0,0.7916,0.4682,-0.0409,0.0,0.0,0.0,0.0,0.0,-0.367,0.1379,0.5937,0.7709,1.177,1.5444,1.5773,1.4607,1.2622,0.9756,0.8156,0.77,0.8961,0.0,1.0238,0.9724,0.0,0.0,0.0,0.0,0.0,0.0,0.0,0.0,0.0,0.0,0.0,0.0,0.0,0.0,0.0,0.0,-0.4707,-0.5209,-0.7211,-0.8307,-0.8337,-0.8888,-1.0408,-1.2909,-1.2888,-1.2906,-1.2889,-1.2922,-1.3566,-1.4641,0.0,-1.3481,-1.3986,-1.3789,-1.3799,-1.3976,-1.398,-1.4301,-1.4822,-1.5521,-1.5808,-1.5814,0.0,0.0,0.0,0.0,0.0,0.0,0.0,0.0,0.0,0.0,0.0,0.0,0.0,0.0,0.0,0.0,0.0,0.0,0.0,-0.7881,-0.0934,0.5106,1.2544,1.6011,1.4854,1.5666,1.4732,1.1929,0.8202,0.3022,-0.3553,-1.231,-1.8127,-2.1367,-2.3899,-2.4506,-2.3363,-1.9358,-1.1657,-0.1557,0.0,0.0,0.0,0.0,0.0,0.0,0.0,0.0,0.0,0.0,0.0,0.0,0.0,0.0,0.0,-1.0535,-1.1011,-0.8508,-0.2973,0.3626,0.9182,1.0308,1.3999,1.7289,1.7109,1.6019,1.3895,1.015,0.8525,0.8063,0.9051,0.9942,0.0,0.9561,0.8714,0.0,0.0,0.0,0.0,0.0,0.0,0.0,0.0,0.0,0.0,0.0,0.0,0.0,0.0,0.0,-0.4828,-0.5756,-0.6963,-0.7666,-0.7828,-0.8836,-1.0406,-1.2598,-1.2629,-1.2542,-1.2282,-1.2308,-1.2618,-1.319,-1.3191,-1.32,-1.3198,-1.3204,-1.3213,-1.3213,-1.3188,-1.3458,-1.3974,-1.5315,-1.579,-1.5829,0.0,0.0,0.0,0.0,0.0,0.0,0.0,0.0,0.0,0.0,0.0,0.0,0.0,0.0,0.0,0.0,0.0,0.0,0.0,-0.7273,0.0658,0.597,1.5028,1.9873,1.9694,1.8876,1.6917,1.3817,0.858,0.0509,-1.0108,-1.5651,-1.9662,-2.2356,-2.4058,-2.4063,-2.2673,-2.0972,-1.3817,-0.3143,0.2517,0.0,0.0,0.0,0.0,0.0,0.0,0.0,0.0,0.0,0.0,0.0,0.0,0.0,-1.0373,-1.4306,-0.9791,-0.2615,0.1539,0.6793,1.1846,1.5118,1.6286,1.6409,1.5732,1.3185,1.1077,1.1419,0.7896,0.5632,0.8321,0.9521,1.0031,0.998,0.0,0.0,0.0,0.0,0.0,0.0,0.0,0.0,0.0,0.0,0.0,0.0,0.0,0.0,0.0,0.0,0.0,-0.5752,-0.6316,-0.6947,-0.7611,-0.8354,-0.9757,-1.1693,-1.1816,-1.1371,-1.0474,-1.0469,-1.1469,-1.3205,-1.3213,-1.3188,-1.3185,-1.3208,-1.3205,-1.3187,-1.3205,-1.4176,-1.5637,-1.574,-1.579,-1.5987,0.0,0.0,0.0,0.0,0.0,0.0,0.0,0.0,0.0,0.0,0.0,0.0,0.0,0.0,0.0,0.0,0.0,0.0,0.0,-0.716,0.1093,0.5483,1.6116,2.2185,2.2732,2.1263,1.9185,1.6551,0.6319,-0.2467,-0.987,-1.6991,-2.0786,-2.166,-2.3533,-2.3515,-2.2007,-2.0858,-1.5155,-0.6234,0.0661,0.8398,0.0,0.0,0.0,0.0,0.0,0.0,0.0,0.0,1.7189,1.3885,0.5676,-0.198,-0.9067,-1.4654,-1.3758,-0.8084,0.4984,1.3485,1.8296,1.6848,1.648,1.6049,1.4253,1.2721,1.1734,1.1988,1.0595,0.9256,0.8844,0.0,0.9539,0.8706,0.0,0.0,0.0,0.0,0.0,0.0,0.0,0.0,0.0,0.0,0.0,0.0,0.0,0.0,0.0,0.0,0.0,-0.5119,-0.5629,-0.6176,-0.674,-0.8047,-0.908,-0.9811,-1.0508,-1.1287,-1.2099,-1.2095,-1.2512,-1.3204,-1.3196,-1.3179,-1.3221,-1.3198,-1.3834,-1.483,-1.4813,-1.5209,-1.5811,-1.58,-1.5782,-1.5975,0.0,0.0,0.0,0.0,0.0,0.0,0.0,0.0,0.0,0.0,0.0,0.0,0.0,0.0,0.0,0.0,0.0,0.0,-1.9495,-0.8342,-0.0056,0.3808,1.5161,2.2016,2.3366,2.1982,2.0388,1.8646,0.6349,-0.253,-0.8123,-1.4304,-1.8129,-1.9811,-2.001,-1.9849,-1.9442,-1.9546,-1.5801,-0.9253,-0.2559,0.4944,0.0,0.0,0.0,0.0,0.0,0.0,0.0,0.0,1.6697,1.3761,0.6229,-0.0165,-0.6217,-1.3145,-1.3244,-0.7743,0.7696,1.589,1.9661,1.7972,1.7555,1.7128,1.5457,1.4562,1.3631,1.2097,1.1615,1.1023,0.9629,0.0,0.0,0.0,0.0,0.0,0.0,0.0,0.0,0.0,0.0,0.0,0.0,0.0,0.0,0.0,0.0,0.0,0.0,0.0,0.0,0.0,-0.5107,-0.5632,-0.6435,-0.7826,-0.8578,-0.8724,-0.964,-1.087,-1.2324,-1.29,-1.3203,-1.3208,-1.3187,-1.3205,-1.3227,-1.3808,-1.4209,-1.4614,-1.5464,-1.5273,-1.4682,-1.5959,-1.5834,-1.5174,0.0,0.0,0.0,0.0,0.0,0.0,0.0,0.0,0.0,0.0,0.0,0.0,0.0,0.0,0.0,0.0,0.0,0.0,-2.1841,-1.1007,-0.2884,0.0873,1.194,1.9076,2.1337,2.0797,2.0235,1.9735,0.9393,0.0953,-0.5533,-0.7035,-1.099,-1.6655,-1.2945,-1.2482,-1.466,-1.7007,-1.5783,-1.1927,-0.7502,-0.0128,0.8788,0.0,0.0,0.0,0.0,0.0,0.0,0.0,1.5366,1.2001,0.3441,-0.0093,-0.2483,-0.9803,-0.6692,0.1014,0.9716,1.2755,1.4488,1.8745,1.984,1.982,1.9794,1.8834,1.6554,1.1643,1.013,0.9858,1.0479,0.8693,0.0,0.0,0.0,0.0,0.0,0.0,0.0,0.0,0.0,0.0,0.0,0.0,0.0,0.0,0.0,0.0,0.0,0.0,0.0,0.0,-0.4816,-0.5444,-0.6979,-0.7706,-0.8286,-0.8707,-0.93,-0.9853,-1.038,-1.2282,-1.3208,-1.3195,-1.3207,-1.3205,-1.3329,-1.5056,-1.4188,-1.2063,-1.4716,-1.4137,-1.2308,-1.6298,-1.5912,-1.3394,0.0,0.0,0.0,0.0,0.0,0.0,0.0,0.0,0.0,0.0,0.0,0.0,0.0,0.0,0.0,0.0,0.0,0.0,-2.2048,-1.4384,-0.796,-0.3717,0.6466,1.4788,2.0634,1.9103,1.7137,1.4873,0.8914,0.4676,0.2058,-0.1682,-0.3339,-0.3175,-0.3758,-0.5102,-0.7119,-1.0311,-1.1639,-1.1334,-0.8203,-0.4946,-0.0789,0.0,0.0,0.0,0.0,0.0,0.0,0.0,0.0,0.0,0.5494,0.3375,0.2787,-0.0023,-0.0136,0.2088,0.8684,1.4513,1.9055,2.051,2.15,2.1939,2.1173,1.802,1.4243,1.0704,0.982,0.9615,0.9387,0.8277,0.0,0.0,0.0,0.0,0.0,0.0,0.0,0.0,0.0,0.0,0.0,0.0,0.0,0.0,0.0,0.0,0.0,0.0,0.0,0.0,-0.4447,-0.5341,-0.5819,-0.6822,-0.7676,-0.8406,-0.9123,-0.9734,-1.0318,-1.1616,-1.258,-1.3187,-1.3202,-1.2815,-1.2272,-1.2769,-1.2535,-1.187,-1.2682,-1.2952,-1.3069,-1.4271,-1.4142,-1.3415,0.0,0.0,0.0,0.0,0.0,0.0,0.0,0.0,0.0,0.0,-1.4272,-1.5966,0.0,0.0,0.0,0.0,0.0,0.0,0.0,-1.7276,-1.2245,-0.8366,-0.0403,0.7247,1.437,1.5133,1.4702,1.3129,1.1653,1.0957,1.0861,0.8044,0.732,0.827,0.5751,0.3382,0.0932,-0.3936,-0.7338,-0.9468,-0.9564,-0.8603,-0.6328,0.0,0.0,0.0,0.0,0.0,0.0,0.0,0.0,0.0,0.5385,0.4857,0.5571,0.5327,0.5766,0.7266,1.1482,1.6482,2.0707,2.148,2.2725,2.3357,2.1676,1.7765,1.4017,1.1961,1.0854,0.9952,0.9197,0.8456,0.0,0.0,0.0,0.0,0.0,0.0,0.0,0.0,0.0,0.0,0.0,0.0,0.0,0.0,0.0,0.0,0.0,0.0,0.0,0.0,-0.4007,-0.5047,-0.5981,-0.6645,-0.7314,-0.7924,-0.8694,-0.9263,-0.9643,-1.0321,-1.1093,-1.1906,-1.2407,-1.2305,-1.1808,-1.1806,-1.2051,-1.2433,-1.2431,-1.2829,-1.3407,-1.3401,-1.3411,-1.3396,0.0,0.0,0.0,0.0,0.0,0.0,0.0,0.0,0.0,0.0,-1.562,-1.7397,0.0,0.0,0.0,0.0,0.0,0.0,0.0,0.0,-1.5889,-1.3418,-0.7884,-0.178,0.4803,0.9709,1.2603,1.3531,1.6054,1.8033,1.9432,1.9676,1.9062,1.7622,1.508,1.2367,0.9287,0.2638,-0.259,-0.6759,-1.0681,-1.1266,-0.9701,-0.873,0.0,0.0,0.0,0.0,0.0,0.0,0.0,0.0,0.4499,0.5492,0.7137,0.8302,1.1409,1.4911,1.692,1.8804,2.0596,2.2241,2.3782,2.4192,2.1537,1.8244,1.5432,1.4538,0.0,1.0816,0.9699,0.909,0.0,0.0,0.0,0.0,0.0,0.0,0.0,0.0,0.0,0.0,0.0,0.0,0.0,0.0,0.0,0.0,0.0,0.0,0.0,0.0,-0.3475,-0.4559,-0.6586,-0.6859,-0.7048,0.0,-0.804,-0.8541,-0.8611,-0.8764,-0.9232,-0.9968,-1.1255,-1.1803,-1.1811,-1.1799,-1.2437,-1.3404,-1.3392,-1.3406,-1.3408,-1.3396,-1.3409,-1.3413,0.0,0.0,0.0,0.0,0.0,0.0,0.0,0.0,0.0,0.0,0.0,0.0,0.0,0.0,0.0,0.0,0.0,0.0,0.0,0.0,-1.9259,-2.0853,-1.2401,-0.4757,0.1418,0.593,0.9755,1.2891,1.5399,1.7963,2.0525,2.2053,2.2975,2.3281,2.1771,1.9449,1.6452,1.2261,0.4844,-0.4374,-0.7555,-1.2903,-1.8334,-1.251,-1.0308,0.0,0.0,0.0,0.0,0.0,0.0,0.0,0.9313,1.084,1.2516,1.7475,1.8478,1.857,2.1148,2.1746,2.226,2.4789,2.5419,2.4725,2.2054,2.0035,1.7903,1.4877,1.3609,1.2429,1.0577,0.0,0.0,0.0,0.0,0.0,0.0,0.0,0.0,0.0,0.0,0.0,0.0,0.0,0.0,0.0,0.0,0.0,0.0,0.0,0.0,-0.076,-0.2625,-0.3593,-0.3621,-0.5864,-0.6557,0.0,-0.7099,-0.8016,-0.8535,-0.8921,-0.9403,-0.9982,-1.1248,-1.1813,-1.1796,-1.1809,-1.2427,-1.3388,-1.3391,-1.3413,-1.3391,-1.3388,-1.3392,-1.3485,0.0,0.0,0.0,0.0,0.0,0.0,0.0,0.0,0.0,0.0,0.0,0.0,0.0,0.0,0.0,0.0,0.0,0.0,0.0,0.0,-1.9578,-2.209,-1.7125,-1.1448,-0.5377,0.2204,0.7846,1.1406,1.6046,1.9549,2.1926,2.3278,2.4263,2.4849,2.352,2.2163,2.0629,1.6349,1.0565,0.3601,-0.4066,-1.0862,-1.6475,-1.7222,-1.7238,-1.6193,-1.0896,0.0,0.0,0.0,0.0,0.0,0.0,0.0,1.1734,1.7859,2.0336,2.1449,2.3198,2.3395,2.362,2.5747,2.5672,2.4698,2.3331,2.1574,1.9522,1.6968,1.5058,1.342,0.0,0.0,0.0,0.0,0.0,0.0,0.0,0.0,0.0,0.0,0.0,0.0,0.0,0.0,0.0,0.0,0.0,0.0,0.0,-0.0531,-0.0598,0.0,-0.2357,-0.3295,-0.2703,-0.5037,-0.5882,-0.5313,-0.6859,-0.7958,-0.8651,-0.9259,-0.9843,-1.0427,-1.1395,-1.1806,-1.1796,-1.181,-1.2423,-1.3396,-1.3389,-1.3396,-1.3432,-1.3804,-1.3933,-1.3971,0.0,0.0,0.0,0.0,0.0,0.0,0.0,0.0,0.0,0.0,0.0,0.0,0.0,0.0,0.0,0.0,0.0,0.0,0.0,0.0,0.0,-2.0538,-2.0569,-1.7641,-1.1459,-0.1122,0.6214,1.0334,1.7167,2.1369,2.2991,2.3626,2.4,2.4088,2.2821,2.2325,2.2168,1.7817,1.4137,1.0259,-0.1003,-0.7955,-1.2531,-2.1133,-2.2757,-2.0316,-1.8925,-1.6119,-1.2873,-1.1549,0.0,0.0,0.0,0.0,0.9109,1.5056,1.9569,2.2813,2.3822,2.4452,2.5039,2.6005,2.5591,2.48,2.4417,2.2573,2.0563,1.921,1.6699,0.0,0.0,0.0,0.0,0.0,0.0,0.0,0.0,0.0,0.0,0.0,0.0,0.0,0.0,0.0,0.0,0.0,0.0,0.0,0.0531,-0.0767,-0.1037,-0.0041,-0.2236,-0.3198,-0.2716,-0.4429,-0.5287,-0.53,-0.6918,-0.8077,-0.8816,-0.9567,-1.0185,-1.077,-1.1485,-1.179,-1.1809,-1.181,-1.2317,-1.3135,-1.3338,-1.3412,-1.3497,-1.4326,-1.4607,-1.4618,0.0,0.0,0.0,0.0,0.0,0.0,0.0,0.0,0.0,0.0,0.2438,-0.2138,0.0,0.0,0.0,0.0,0.0,0.0,-0.9576,0.0,0.0,-1.9023,-1.99,-1.7306,-1.0765,-0.3246,0.4237,1.1666,1.7936,2.1521,2.2504,2.2938,2.2707,2.1903,2.1425,2.0677,1.9769,1.9049,1.3747,0.5307,0.0114,-0.7608,-1.6472,-2.1305,-2.3242,-2.3114,-2.1257,-1.8831,-1.6387,-1.5439,-1.0929,0.0,0.0,0.0,0.9484,1.4568,1.804,2.0781,2.3113,2.5495,2.719,2.659,2.6515,2.6076,2.4058,2.2586,2.11,0.0,0.0,0.0,0.0,0.0,0.0,0.0,0.0,0.0,0.0,0.0,0.0,0.0,0.0,0.0,0.0,0.0,0.0,0.0,0.0,0.0,0.2716,0.0837,-0.0161,0.0,-0.1822,-0.2775,-0.2717,-0.4427,-0.53,-0.5309,-0.6927,-0.808,-0.8816,-0.9557,-0.9945,-1.01,-1.1304,-1.1807,-1.181,-1.1792,-1.1878,-1.2123,-1.3039,-1.3394,-1.3527,-1.4684,-1.511,-1.5076,0.0,0.0,0.0,0.0,0.0,0.0,0.0,0.0,0.0,0.0,0.0,0.0296,0.0,0.0,0.0,-0.5009,-0.4385,-0.5855,-1.0286,-1.4315,-1.7595,-1.9913,-2.0215,-1.7689,-1.2152,-0.4156,0.3449,1.0574,1.759,2.1458,2.2236,2.144,2.0569,1.9601,1.8155,1.7198,1.6522,1.5145,1.2059,0.7576,0.0508,-0.5707,-1.1467,-1.7432,-2.0337,-2.1004,-1.9382,-1.8076,-1.6941,-1.6082,-1.3362,-0.9276,-0.3184,0.0,0.0,0.0,1.5095,1.8935,2.3377,2.5852,2.7229,2.7408,2.7068,2.6426,2.541,2.3603,2.1854,2.0768,0.0,0.0,0.0,0.0,0.0,0.0,0.0,0.0,0.0,0.0,0.0,0.0,0.0,0.0,0.0,0.0,0.0,0.0,0.0,0.3256,0.3089,0.2102,0.1059,0.0036,-0.1231,-0.2157,-0.2695,-0.3458,-0.4794,-0.6657,-0.7362,-0.7887,-0.8231,-0.9383,-0.9906,-0.9962,-1.1244,-1.179,-1.1856,-1.2454,-1.2929,-1.3362,-1.3834,-1.4015,-1.4089,-1.4605,-1.4973,-1.5202,0.0,0.0,0.0,0.0,0.0,0.0,0.0,0.0,0.0,0.0,0.0,0.0,0.0,0.0,0.0,0.0,-0.1688,-0.4573,-1.1955,-1.4987,-1.7767,-2.0518,-2.0196,-1.7301,-1.1589,-0.3823,0.3699,1.0947,1.7553,2.1132,2.1732,2.0091,1.8752,1.7577,1.5581,1.431,1.339,1.1214,0.9722,0.8198,0.0136,-0.4522,-0.7333,-1.3743,-1.682,-1.7619,-1.6499,-1.5993,-1.5672,-1.4564,-1.349,-1.173,-0.6627,-0.2884,0.0,0.0,0.0,1.7688,2.3086,2.5435,2.6609,2.7828,2.7323,2.6553,2.6584,0.0,2.2624,0.0,0.0,0.0,0.0,0.0,0.0,0.0,0.0,0.0,0.0,0.0,0.0,0.0,0.0,0.0,0.0,0.0,0.0,0.0,0.0,0.3689,0.3343,0.3028,0.2187,0.0746,-0.0375,-0.1401,-0.2332,-0.3012,-0.4706,-0.7378,-0.7586,-0.7705,-0.7729,-0.8831,-0.954,-0.998,-1.1244,-1.1414,-1.0941,-1.2684,-1.3834,-1.4445,-1.405,-1.4172,-1.4556,-1.413,-1.4486,-1.5204,0.0,0.0,0.0,0.0,0.0,0.0,0.0,0.0,0.0,0.0,0.0,0.0,0.4219,0.3492,0.2458,0.0995,-0.0983,-0.5375,-1.2955,-1.5783,-1.7917,-1.9606,-1.9236,0.0,-0.6929,-0.1931,0.5294,1.4991,1.8502,2.0457,2.0846,1.9361,1.7733,1.6052,1.4981,1.3217,1.088,0.9344,0.6654,0.3046,-0.1365,-0.512,-0.8482,-1.2045,-1.3714,-1.402,-1.3577,-1.3057,-1.2391,-1.0666,-0.916,-0.7637,-0.5441,-0.2558,0.0537,0.0,0.0,0.0,2.1461,2.388,2.5695,2.7468,2.7283,2.673,0.0,0.0,0.0,0.0,0.0,0.0,0.0,0.0,0.0,0.0,0.0,0.0,0.0,0.0,0.0,0.0,0.0,0.0,0.0,0.0,0.0,0.0,0.0,0.5359,0.403,0.3529,0.3051,0.2579,0.0837,-0.0501,-0.1371,-0.3888,-0.5652,-0.657,-0.7339,-0.7704,-0.7691,-0.7779,-0.8578,-0.9958,-1.1254,-1.0399,-0.837,-1.1936,-1.3837,-1.4343,-1.2819,-1.3304,-1.468,-1.3105,-1.3655,-1.5184,0.0,0.0,0.0,0.0,0.0,0.0,0.0,0.0,0.0,0.0,0.0,0.0,0.0,0.2741,0.1984,0.055,-0.3059,-0.7671,-1.3332,-1.6223,-1.856,-2.0418,-1.8936,-1.4177,-0.5873,-0.0934,0.629,1.6022,1.888,2.0619,2.1303,2.038,1.9296,1.7979,1.5105,1.2377,0.9918,0.7978,0.5081,0.1591,-0.0839,-0.4182,-0.7741,-0.8187,-0.9608,-1.1153,-0.9806,0.0,0.0,0.0,0.0,0.0,0.0,-0.3585,-0.1519,0.2613,0.8311,1.422,1.8488,2.1535,2.4124,2.6577,2.6806,2.6477,2.6672,2.524,2.3805,0.0,0.0,0.0,0.0,0.0,0.0,0.0,0.0,0.0,0.0,0.0,0.0,0.0,0.0,0.0,0.0,0.0,0.0,0.0,0.0,0.0,0.6335,0.5176,0.4181,0.3479,0.205,0.0363,-0.1588,-0.2958,-0.4307,-0.5665,-0.6339,-0.7024,-0.7715,-0.7687,-0.8949,-1.1048,-0.9837,-0.9727,-1.0558,-1.2582,-1.3078,-1.2636,-1.3363,-1.3637,-1.3662,-1.4047,-1.4433,-1.4737,0.0,0.0,0.0,0.0,0.0,0.0,0.0,0.0,0.0,1.4094,0.0,0.0,0.0,0.0,0.0603,-0.163,-0.5325,-0.9584,-1.435,-1.7089,-1.9156,-2.0588,-1.8161,-1.2769,-0.428,0.0522,0.7506,1.6885,1.9276,2.0863,2.1582,2.1297,2.075,1.9844,1.7194,1.4036,1.0606,0.8336,0.5317,0.1938,0.0236,-0.2431,-0.5399,-0.5199,-0.6307,-0.784,0.0,0.0,0.0,0.0,0.0,0.0,0.0,-0.4259,-0.2669,0.159,0.6005,1.0471,1.4751,1.8414,2.1731,2.4683,2.5619,2.5915,2.6353,0.0,2.4455,0.0,0.0,0.0,0.0,0.0,0.0,0.0,0.0,0.0,0.0,0.0,0.0,0.0,0.0,0.0,0.0,0.0,0.0,0.0,0.0,0.0,0.7851,0.6685,0.5324,0.373,0.258,0.0987,-0.1188,-0.1886,-0.3011,-0.4581,-0.5411,-0.6237,-0.706,-0.7314,-0.8664,-1.0663,-0.8443,-0.8618,-1.0557,-1.1497,-1.1512,-1.1058,-1.2811,-1.3318,-1.3163,-1.4016,-1.451,-1.473,0.0,0.0,0.0,0.0,0.0,0.0,0.0,0.0,1.9411,1.7192,0.0,0.0,0.0,0.0,0.0,-0.5169,-0.7467,-1.0954,-1.6153,-1.8475,-1.9758,-1.9983,-1.6784,-1.0809,-0.1848,0.2399,0.8882,1.771,1.9714,2.0973,2.1505,2.1869,2.1752,2.1286,2.1154,1.8212,1.3139,1.0525,0.7436,0.4056,0.1909,0.0,-0.1737,-0.3275,-0.3915,0.0,-0.5195,-0.553,0.0,-0.5684,0.0,0.0,0.0,-0.4342,-0.2888,-0.0054,0.3005,0.6309,0.0,0.0,0.0,2.1687,0.0,0.0,2.5878,0.0,0.0,0.0,0.0,0.0,0.0,0.0,0.0,0.0,0.0,0.0,0.0,0.0,0.0,0.0,0.0,0.0,0.0,0.0,0.0,0.0,0.0,1.025,0.8517,0.7981,0.6401,0.3524,0.2534,0.1422,0.01,-0.0813,-0.1925,-0.3263,-0.4512,-0.5342,-0.5767,-0.6498,-0.752,-0.8674,-0.7262,-0.7144,-0.7975,-0.8635,-0.9218,-0.9823,-1.1013,-1.2223,-1.3244,-1.2845,-1.3752,-1.522,0.0,0.0,0.0,0.0,0.0,1.752,1.7937,1.8159,1.7878,0.0,0.0,0.0,0.473,-0.0206,-0.4324,-0.7155,-1.0365,-1.403,-1.8295,-2.0104,-2.0605,-1.9596,-1.4922,-0.8799,-0.122,0.3259,0.8897,1.5865,1.7261,1.8438,1.9361,2.0111,2.0607,2.094,2.1248,2.0145,1.7794,1.4482,1.0814,0.713,0.5155,0.2418,-0.0477,-0.0968,0.0,0.0,0.0,-0.4651,-0.4787,0.0,-0.5041,-0.5613,0.0,-0.5242,-0.4305,-0.4141,-0.1408,0.2203,0.5575,0.0,0.0,0.0,0.0,0.0,0.0,0.0,0.0,0.0,0.0,0.0,0.0,0.0,0.0,0.0,0.0,0.0,0.0,0.0,0.0,0.0,0.0,0.0,0.0,0.0,0.0,0.0,1.3387,1.2759,1.1355,0.9609,0.7867,0.6178,0.4581,0.3082,0.1749,0.0637,-0.0623,-0.202,-0.2804,-0.3662,-0.4582,-0.5027,-0.603,-0.7441,-0.7764,-0.8173,-0.8637,-0.8823,-0.9223,-0.9753,-1.039,-1.076,-1.1237,-1.3718,-1.4921,-1.5357,0.0,0.0,0.0,0.0,0.0,1.3497,1.4078,1.5287,1.6173,0.0,0.0,0.0,0.3404,-0.1787,-0.5981,-0.8945,-1.2389,-1.5567,-1.8385,-1.9626,-1.9379,-1.7431,-1.2053,-0.6379,-0.0525,0.386,0.8697,1.4037,1.5167,1.6327,1.7441,1.8511,1.9479,2.0416,2.1256,2.1119,2.0092,1.7506,1.3905,0.9784,0.7443,0.4737,0.0,0.0489,-0.065,0.0,0.0,0.0,-0.3928,-0.4724,-0.5219,0.0,0.0,0.0,-0.573,-0.6638,-0.4718,-0.1634,0.1361,0.5083,0.8973,1.2672,0.0,0.0,2.0594,2.2575,0.0,0.0,0.0,0.0,0.0,0.0,0.0,0.0,0.0,0.0,0.0,0.0,0.0,0.0,0.0,0.0,0.0,0.0,0.0,1.5945,1.5713,1.4934,1.3351,1.1171,0.9389,0.8208,0.6364,0.4716,0.3265,0.2266,0.1101,-0.0271,-0.1316,-0.2175,-0.2887,-0.4026,-0.5191,-0.6387,-0.7618,-0.8542,-0.9204,-0.922,-0.9493,-0.9895,-1.0119,-1.0179,-1.0388,-1.2484,-1.418,-1.5398,0.0,0.0,0.6945,0.754,0.8601,0.9412,0.9395,1.1696,1.3749,0.0,1.2155,0.7832,0.1242,-0.3085,-0.6859,-1.0217,-1.3567,-1.5957,-1.7129,-1.7525,-1.6612,-1.4024,-0.8516,-0.3669,0.0353,0.4216,0.819,1.2108,1.3176,1.4283,1.5514,1.6861,1.8137,1.9443,2.0768,2.1098,2.0558,1.9455,1.6481,1.2242,0.9283,0.6875,0.0,0.0,0.0361,-0.0073,-0.3194,-0.3624,-0.306,-0.5123,-0.5641,0.0,0.0,0.0,0.0,0.0,-0.7204,-0.5227,-0.2261,0.1386,0.5114,0.0,0.0,0.0,1.8084,2.0778,2.327,0.0,0.0,0.0,0.0,0.0,0.0,0.0,0.0,0.0,0.0,0.0,0.0,0.0,0.0,0.0,0.0,1.9124,1.8732,1.788,1.7689,1.6811,1.5005,1.2993,1.1285,0.997,0.8257,0.6539,0.4814,0.4083,0.3079,0.175,0.0145,-0.0657,-0.0825,-0.3004,-0.4399,-0.5155,-0.6769,-0.8178,-0.9349,-0.9601,-0.985,-1.0118,-1.0117,-1.0193,-1.0306,-1.0302,-1.2229,-1.4832,0.0,-0.0052,0.3255,0.3355,0.3983,0.4483,0.4428,0.6401,0.8454,0.9919,0.8177,0.5697,0.2789,-0.253,-0.7029,-0.9878,-1.3204,-1.5392,-1.5938,-1.4887,-1.3034,-1.0252,-0.5366,-0.1311,0.176,0.4426,0.7154,0.9853,1.0701,1.1728,1.2926,1.4169,1.546,1.6811,1.8017,1.9007,1.9647,1.908,1.7379,1.4808,1.1803,0.8854,0.5955,0.3946,0.2342,0.0726,-0.2188,-0.2625,-0.2102,-0.3918,-0.4899,-0.5659,0.0,0.0,0.0,-1.0412,0.0,0.0,0.0,0.0,0.0,0.0,0.0,0.0,1.4261,1.8082,2.1588,0.0,0.0,0.0,0.0,0.0,0.0,0.0,0.0,0.0,0.0,0.0,0.0,0.0,0.0,0.0,0.0,2.1783,2.0909,1.9817,1.8796,1.798,1.742,1.6288,1.4711,1.2692,1.1497,0.9723,0.724,0.6243,0.4981,0.3509,0.2351,0.1692,0.1429,-0.015,-0.1428,-0.2472,-0.451,-0.6249,-0.7764,-0.9082,-0.9877,-1.0257,-1.0264,-1.0287,-1.0293,-1.0309,-1.0714,-1.1302,-0.3588,-0.0489,0.1439,0.0664,0.0395,0.0114,-0.034,0.1133,0.2958,0.4766,0.4539,0.3464,0.1574,-0.2641,-0.6485,-0.9376,-1.1797,-1.3185,-1.3219,-1.1971,-1.0049,-0.7527,-0.3288,-0.0113,0.1625,0.354,0.5501,0.7477,0.8275,0.9349,1.0662,1.2344,1.3872,1.5322,1.7079,1.8139,1.8581,1.8627,1.768,1.5908,1.3266,0.0,0.7452,0.4941,0.318,0.1743,-0.1234,-0.2521,-0.2977,-0.3311,-0.4456,0.0,0.0,-0.9544,-1.0567,0.0,-1.1328,-0.976,0.0,0.0,0.0,0.1315,0.0,0.0,0.0,1.2853,1.5662,1.7776,0.0,0.0,0.0,0.0,0.0,0.0,0.0,0.0,0.0,0.0,0.0,0.0,0.0,0.0,0.0,2.3595,2.2988,2.202,2.1139,2.047,2.0102,1.8584,1.6986,1.5305,1.386,1.1988,0.9671,0.8479,0.728,0.6084,0.4811,0.4097,0.3844,0.2393,0.0963,-0.051,-0.2433,-0.4761,-0.7337,-0.9183,-1.009,-1.0177,-0.8931,-0.8453,-0.8504,-0.8908,-0.9062,-0.9107,-0.2251,-0.0111,0.0671,-0.1292,-0.2301,-0.3168,-0.4133,-0.3126,-0.1409,0.0934,0.1674,0.1395,-0.034,-0.3002,-0.5815,-0.8482,-0.9847,-1.0451,-1.0044,-0.8871,-0.7264,-0.5271,-0.1894,0.0181,0.0818,0.1991,0.3447,0.5057,0.5994,0.7185,0.8777,1.095,1.2865,1.4463,1.661,1.7587,1.769,1.8162,1.7605,1.6181,0.0,1.165,0.8862,0.5613,0.3712,0.2466,-0.0282,-0.2502,-0.3941,-0.2986,-0.4327,-0.6706,-0.8421,-0.984,0.0,0.0,0.0,0.0,0.0,0.0,0.0,0.0,0.0,0.2855,0.0,0.0,0.0,1.1327,0.0,0.0,0.0,0.0,0.0,0.0,0.0,0.0,0.0,0.0,0.0,0.0,0.0,0.0,0.0,2.4499,2.4303,2.3825,2.3244,2.2827,2.2631,2.0922,1.9239,1.767,1.576,1.3886,1.2042,1.0643,0.9474,0.8485,0.6982,0.616,0.591,0.4713,0.3282,0.1668,-0.033,-0.2904,-0.5844,-0.8055,-0.8961,-0.8805,-0.7212,-0.6594,-0.6655,-0.7113,-0.7402,-0.7651,-0.0668,0.1005,0.0897,-0.2813,-0.3674,-0.4339,-0.5848,-0.4778,-0.2564,0.0862,0.0679,-0.0068,-0.1072,-0.359,-0.5709,-0.6885,-0.7832,-0.8081,-0.7398,-0.5743,-0.4322,-0.3418,-0.144,-0.0304,-0.0242,0.0062,0.107,0.2752,0.3793,0.5456,0.7746,1.013,1.2226,1.4029,1.5664,1.6709,1.7231,1.7747,1.7128,0.0,1.4477,1.2384,0.0,0.6848,0.4461,0.2321,0.0503,-0.1754,-0.368,0.0,-0.4613,-0.7289,0.0,-0.975,-1.1762,-1.1901,0.0,0.0,0.0,0.0,0.0,0.0,-0.1261,0.0,0.0,0.0,0.4716,0.559,0.0,0.0,0.0,0.0,0.0,0.0,0.0,0.0,0.0,0.0,0.0,0.0,0.0,0.0,0.0,0.0,2.3756,2.4433,2.3553,2.3423,2.4447,2.4263,2.2693,1.9599,1.7495,1.5754,1.4346,1.2473,1.0895,0.9606,0.8238,0.7338,0.684,0.6619,0.6073,0.514,0.1982,0.0298,-0.0394,-0.302,-0.4102,-0.426,-0.5949,-0.6592,-0.6502,-0.5704,-0.597,-0.6753,-0.1059,0.0223,-0.0056,-0.3228,-0.429,-0.5225,-0.6901,-0.5362,-0.3283,-0.1402,-0.1436,-0.2105,-0.3154,-0.4222,-0.5194,-0.6098,0.0,-0.6028,0.0,0.0,-0.4209,-0.3916,-0.2671,-0.1933,-0.1868,-0.1787,-0.112,0.0254,0.1693,0.3376,0.523,0.8704,1.1306,1.3277,1.5924,1.7187,1.7368,1.7989,1.7367,0.0,0.0,0.0,0.0,0.722,0.4326,0.1537,0.0432,-0.1293,-0.3011,0.0,-0.4228,0.0,0.0,0.0,0.0,0.0,0.0,0.0,0.0,0.0,0.0,0.0,0.0,0.0,-0.3033,0.0,-0.1985,0.0,0.0,0.0,0.0,0.0,0.0,0.0,1.5269,0.0,0.0,0.0,0.0,0.0,0.0,0.0,0.0,0.0,0.0,0.0,0.0,2.3955,2.4913,2.4492,2.3161,2.0857,1.9365,1.7648,1.5643,1.4437,1.3108,1.1638,1.0296,0.9419,0.8945,0.8098,0.7265,0.6405,0.4993,0.3774,0.2667,0.1236,0.0246,-0.0437,-0.137,-0.2148,-0.2873,-0.3748,-0.4969,-0.6241,-0.2807,-0.1518,-0.1532,-0.413,-0.5125,-0.5817,-0.6603,-0.5011,-0.3391,-0.2643,-0.2792,-0.3358,-0.4556,-0.4768,0.0,0.0,-0.5183,-0.5015,0.0,0.0,-0.4839,0.0,0.0,0.0,0.0,-0.3958,-0.3447,-0.218,-0.04,0.1455,0.3294,0.7321,1.05,1.3077,1.6077,1.7534,1.7757,0.0,1.7525,1.5885,1.376,1.1432,0.8971,0.6263,0.3638,0.1259,0.0361,-0.09,-0.2158,-0.2337,-0.3762,0.0,-0.7431,0.0,0.0,0.0,0.0,0.0,-0.8606,0.0,0.0,0.0,0.0,0.0,0.0,0.0,0.0,0.0,0.0,0.0,0.0,0.0,0.0,0.0,0.0,1.1231,0.0,0.0,0.0,0.0,0.0,0.0,0.0,0.0,0.0,2.3472,2.3782,2.4239,2.4814,2.4361,2.3358,2.1779,2.0526,1.8871,1.6797,1.5705,1.4593,1.3453,1.2237,1.1018,0.9819,0.8788,0.7768,0.6786,0.6602,0.5751,0.447,0.4012,0.3254,0.2431,0.2474,0.194,0.0914,-0.1264,-0.3319,-0.5049,-0.6119,-0.4032,-0.3341,-0.6055,-0.6663,-0.6175,-0.4559,-0.3518,-0.2633,0.0,0.0,0.0,0.0,0.0,0.0,0.0,0.0,-0.5599,-0.5589,0.0,-0.5668,0.0,0.0,-0.6635,0.0,0.0,-0.6264,-0.44,-0.2457,-0.0138,0.2531,0.6151,1.0021,1.392,1.5652,1.7105,1.8304,1.8315,1.7456,1.5933,1.4266,1.1185,0.7185,0.0,0.2238,0.1959,0.0505,0.0,0.0,-0.1959,-0.3229,0.0,0.0,0.0,0.0,0.0,0.0,0.0,0.0,0.0,0.0,-0.6902,0.0,0.0,0.0,0.0,-1.0056,0.0,0.0,0.0,0.0,0.0,-0.3661,-0.322,0.2632,0.0,0.0,0.0,0.0,0.0,0.0,0.0,0.0,0.0,0.0,2.2833,2.3705,2.4207,2.423,2.4572,2.4012,2.2329,2.0532,1.9078,1.796,1.5861,1.4766,1.4638,1.375,1.1627,0.8451,0.8415,0.7707,0.6474,0.583,0.5366,0.504,0.4702,0.4358,0.4048,0.4166,0.4191,0.3918,0.1819,-0.0537,-0.2714,-0.732,-0.7172,-0.7044,-0.6812,-0.6716,-0.6256,0.0,-0.4388,0.0,0.0,-0.4063,0.0,0.0,-0.5728,-0.5854,0.0,0.0,-0.5691,-0.5596,-0.5817,0.0,0.0,0.0,-0.7586,0.0,0.0,0.0,-0.635,-0.5054,-0.2971,-0.0138,0.3878,0.7654,1.1143,1.498,1.7002,0.0,0.0,0.0,0.0,0.0,0.9213,0.719,0.0,0.0,0.2063,0.1062,-0.0056,0.0,-0.1952,-0.3166,-0.4645,-0.614,-0.7581,-0.8888,-0.9843,-1.0466,0.0,0.0,0.0,-0.9769,-0.8317,0.0,0.0,0.0,0.0,0.0,0.0,0.0,0.0,0.0,0.0,-1.0699,-0.7573,-0.4078,0.0233,0.0,0.0,0.0,0.0,0.0,0.0,0.0,0.0,0.0,2.0304,2.1578,2.2678,0.0,2.4026,2.3908,2.3126,2.1838,2.0502,1.9066,1.7227,1.5867,1.4945,1.3721,1.2049,1.0028,0.9092,0.8016,0.6863,0.6234,0.5749,0.5365,0.5233,0.503,0.4777,0.4963,0.5145,0.5173,0.4147,0.3237,0.2435,-0.8971,-0.9406,-0.945,-0.7593,0.0,0.0,0.0,0.0,0.0,0.0,-0.4864,0.0,-0.5921,0.0,-0.585,0.0,-0.5674,-0.5688,-0.5596,-0.5817,0.0,-0.6987,-0.7706,0.0,0.0,0.0,0.0,0.0,-0.6851,-0.4993,-0.2003,0.1979,0.5872,0.9674,1.4138,1.6567,1.7417,1.8408,1.762,0.0,0.0,0.8446,0.0,0.0,0.334,0.212,0.0,0.0335,-0.0838,-0.1842,-0.3,-0.4313,-0.6032,-0.7581,-0.8894,-0.985,-1.061,-1.1057,-1.057,-1.078,0.0,-0.9717,-1.0136,0.0,-1.1116,0.0,0.0,0.0,0.0,0.0,0.0,0.0,-1.5995,-1.3289,-1.207,-0.6038,0.0,1.5554,0.0,0.0,0.0,0.0,0.0,0.0,1.6611,1.7487,1.9562,2.1371,0.0,0.0,2.3657,2.3145,2.2263,2.1195,1.993,1.7863,1.6381,1.5533,1.3975,1.2478,1.1122,0.9876,0.8709,0.7583,0.6719,0.6224,0.5981,0.583,0.569,0.5613,0.5738,0.59,0.6005,0.56,0.5303,0.499,-1.0829,-1.0757,0.0,0.0,-0.7879,0.0,0.0,0.0,-0.503,0.0,-0.4836,-0.5078,-0.5891,-0.5878,-0.5735,-0.5593,-0.5579,-0.5579,-0.5579,-0.5711,0.0,0.0,-0.8017,-0.8523,-0.8373,0.0,0.0,0.0,0.0,-0.6133,-0.2947,0.0446,0.4702,0.9551,1.3043,1.5701,1.749,1.8024,1.7313,1.5432,1.1391,0.8795,0.7298,0.6016,0.4161,0.2174,0.1396,0.0671,-0.0168,-0.1675,-0.2666,-0.3701,-0.5905,-0.7564,-0.8964,-1.0351,-1.1206,-1.176,-1.1828,-1.1837,-1.1688,-1.1057,0.0,0.0,0.0,0.0,-1.3062,0.0,0.0,0.0,0.0,0.0,0.0,-2.0098,-2.0337,-1.1013,1.5964,0.0,0.0,0.0,0.0,0.0,0.0,1.2929,1.3726,1.473,1.7941,2.0496,0.0,0.0,2.3343,2.2569,2.1799,2.1098,2.0525,1.7764,1.6371,1.6351,1.4525,1.2939,1.1589,1.0749,0.971,0.8544,0.7277,0.6781,0.6888,0.6433,0.6369,0.6545,0.6545,0.6562,0.6533,0.6222,0.5673,0.4956,-1.121,-1.0107,-0.931,0.0,-0.7919,-0.6808,0.0,0.0,0.0,0.0,-0.6004,-0.5851,-0.5749,-0.5667,-0.5583,-0.5433,-0.542,0.0,0.0,0.0,0.0,-0.7663,-0.828,-0.9146,-1.0255,-1.093,0.0,-1.0398,0.0,-0.765,-0.471,-0.1437,0.2767,0.7849,1.095,1.3706,1.6026,1.6665,1.5478,1.2862,1.0057,0.7899,0.0,0.0,0.444,0.2899,0.2174,0.1452,0.0503,-0.1505,-0.2666,-0.3632,-0.5681,-0.7292,-0.8614,-0.966,-1.0478,-1.1205,-1.1912,-1.2437,-1.2672,-1.2349,-1.3004,-1.3632,0.0,0.0,0.0,0.0,0.0,0.0,0.0,0.0,0.0,-2.0138,-1.5926,-0.8689,0.0,0.0,0.0,0.6382,0.0,0.0,1.0742,1.1586,1.268,1.4634,1.8232,2.0852,0.0,0.0,0.0,2.3033,2.1911,2.1162,2.0791,1.8502,1.6917,1.6098,1.4813,1.3379,1.1877,1.1463,1.0378,0.8799,0.8461,0.7856,0.7116,0.6988,0.6972,0.7037,0.7241,0.741,0.744,0.6511,0.5719,0.5029,-1.206,-1.0487,0.0,-0.9762,0.0,0.0,-0.6898,-0.6885,0.0,-0.6603,-0.6332,0.0,-0.581,-0.5549,-0.5382,-0.5428,-0.5298,0.0,-0.5454,0.0,0.0,-0.8042,-0.8255,-0.9086,-1.0808,-1.1089,0.0,-1.0877,0.0,-0.8215,-0.5284,-0.2054,0.1992,0.6744,1.0096,1.2905,1.5098,1.5379,1.3731,1.0959,0.9296,0.0,0.0,0.5614,0.4776,0.368,0.2565,0.173,0.0782,-0.1449,-0.2802,-0.3921,-0.5638,-0.7461,-0.9036,-0.956,-1.0373,-1.1249,-1.1775,-1.2361,-1.2788,-1.2914,-1.3637,-1.4373,-1.4484,-1.4993,-1.5608,0.0,0.0,0.0,0.0,0.0,0.0,-2.0137,-1.3926,0.0,0.0,0.0,0.0,0.0,-0.0185,0.0,0.4831,0.756,1.0458,1.3628,1.7743,0.0,0.0,0.0,0.0,2.2989,2.2127,2.1411,2.0909,1.879,1.7203,1.6116,1.4983,1.3801,1.2556,1.1906,1.0985,0.9847,0.907,0.8474,0.804,0.7542,0.7398,0.7516,0.7665,0.7798,0.7781,0.6878,0.6183,0.5602,-1.3025,0.0,0.0,0.0,0.0,0.0,0.0,-0.7097,0.0,-0.6767,0.0,-0.6005,-0.5915,-0.5426,-0.5159,-0.5291,0.0,-0.5216,-0.5484,-0.5396,-0.6109,-0.787,-0.7982,-0.8742,-1.0364,-1.0744,-1.0828,0.0,0.0,-0.8163,-0.5241,-0.2068,0.1781,0.6109,0.9692,1.2372,1.4156,1.3799,1.198,0.9425,0.8691,0.7375,0.5766,0.5601,0.5109,0.4294,0.2732,0.1786,0.0892,-0.1386,-0.2864,-0.402,-0.5599,-0.7515,-0.9188,-0.9473,-1.0312,-1.1214,-1.1455,-1.1845,-1.2331,-1.2943,-1.3641,-1.437,-1.5389,-1.6083,-1.6671,-1.7206,-1.7786,-1.8341,0.0,0.0,0.0,0.0,0.0,0.0,0.0,0.0,0.0,0.0,0.0,0.0,0.0,0.2884,0.8153,1.2459,1.7237,0.0,0.0,0.0,0.0,2.2755,2.2242,0.0,2.0909,0.0,1.7262,1.6252,1.5053,1.4055,1.3278,1.2253,1.1583,1.1147,0.957,0.8946,0.8956,0.796,0.7694,0.7899,0.79,0.7886,0.7818,0.7175,0.6718,0.6276,-1.3009,0.0,0.0,0.0,0.0,-0.9197,-0.9039,-0.8852,-0.8327,-0.7167,-0.6781,-0.6215,-0.5367,-0.5091,-0.4965,-0.4992,-0.4972,0.0,0.0,0.0,0.0,-0.6672,-0.7564,-0.8479,-0.953,-1.0283,-1.0644,0.0,0.0,-0.8022,-0.5322,-0.2567,0.1448,0.6476,0.8136,0.9866,1.1447,1.1202,0.0,0.7666,0.7555,0.6418,0.4827,0.534,0.5109,0.4294,0.2732,0.212,0.161,-0.1134,-0.2186,-0.2722,-0.4948,-0.5908,-0.6606,-0.8342,-0.8807,-0.9064,-1.0586,-1.1226,-1.1772,-1.2924,-1.4229,-1.5415,-1.6165,-1.6639,-1.7176,-1.7824,-1.8366,-1.8779,-1.8893,0.0,0.0,0.0,0.0,0.0,0.0,0.0,0.0,0.0,0.0,-1.229,0.0,0.0,0.0,0.0,0.0,0.0,0.0,0.0,0.0,0.0,0.0,0.0,0.0,0.0,1.717,1.6046,1.4948,1.4039,1.3362,1.2953,1.2288,1.1428,1.1106,0.9888,0.8115,0.7913,0.7855,0.79,0.7901,0.7901,0.7793,0.6906,0.6413,0.603,-1.2989,0.0,0.0,0.0,0.0,0.0,0.0,-0.9667,0.0,-0.7849,-0.7181,-0.6531,-0.5841,-0.5164,-0.4833,-0.4911,-0.4847,-0.4833,-0.4914,-0.4982,-0.5384,-0.624,-0.6816,0.0,-0.8422,-0.8736,-0.904,-0.942,0.0,0.0,-0.4018,-0.1308,0.2063,0.5982,0.7807,0.92,0.0,0.0,0.0,0.6492,0.6606,0.5958,0.5003,0.5003,0.5003,0.4769,0.2891,0.2226,0.1841,-0.0693,-0.1885,-0.2699,-0.4447,-0.5795,-0.694,-0.8299,-0.9133,-0.9795,-1.0696,-1.1443,-1.2127,-1.3023,-1.4162,-1.5329,-1.6197,-1.6973,-1.7701,-1.8309,-1.8899,-1.9332,-1.9332,-1.9281,0.0,0.0,0.0,0.0,0.0,0.0,0.0,0.0,0.0,0.0,0.0,0.0,0.0,0.0,0.0,0.0,0.0,0.0,0.0,0.0,0.0,0.0,0.0,0.0,0.0,1.625,1.5575,1.4676,1.3634,1.2824,1.2356,1.2157,1.0975,1.0252,0.9828,0.847,0.7899,0.7894,0.79,0.7635,0.7171,0.6671,0.6106,0.549,0.0,-1.2302,0.0,0.0,-1.1111,0.0,-0.9773,-1.0117,-0.9824,-0.8228,-0.7417,-0.6711,-0.6117,-0.5228,-0.4691,-0.4813,-0.4711,-0.4694,-0.4813,-0.4853,-0.5164,-0.5871,-0.6083,-0.6592,-0.7358,-0.738,-0.7449,0.0,0.0,0.0,0.0,0.02,0.2816,0.0,0.0,0.0,0.0,0.0,0.7165,0.5547,0.5865,0.5763,0.5433,0.4897,0.5035,0.5193,0.3149,0.2267,0.183,-0.0208,-0.1573,-0.2796,-0.4264,-0.5832,-0.7342,-0.8374,-0.9679,-1.0836,-1.0971,-1.1886,-1.2911,-1.318,-1.4024,-1.5032,-1.6035,-1.6986,-1.7806,-1.8361,-1.9016,-1.9489,-1.9536,-1.9281,0.0,0.0,0.0,0.0,0.0,0.0,0.0,0.0,0.0,0.0,-1.5263,0.0,0.0,0.0,0.0,0.0,0.0,0.0,0.0,0.0,0.0,2.3091,2.1429,0.0,1.9237,0.0,1.6074,1.515,1.3792,1.2581,1.2157,1.2271,1.0697,1.081,1.1926,0.9065,0.7899,0.7875,0.7694,0.7194,0.6579,0.6431,0.5907,0.5223,0.0,0.0,0.0,0.0,0.0,0.0,-1.0877,-1.0232,-0.9179,-0.7592,-0.7229,-0.6513,-0.5045,-0.4649,-0.4543,-0.456,-0.4546,-0.4546,-0.456,-0.4633,-0.4769,-0.4827,-0.5723,-0.6229,-0.6366,-0.7071,-0.6871,0.0,0.0,-0.3405,0.0,0.0,0.0,0.0,0.0,0.0,0.0,0.6379,0.5723,0.4716,0.5478,0.5711,0.5487,0.5433,0.5387,0.514,0.3553,0.2598,0.181,0.0388,-0.0907,-0.2268,-0.4506,-0.5106,-0.547,-0.7957,-0.9424,-1.0281,-1.0847,-1.2425,-1.3822,-1.3251,-1.4098,-1.5256,-1.5949,-1.6486,-1.6992,-1.7667,-1.8343,-1.8817,-1.8941,-1.9332,-1.9479,0.0,0.0,0.0,0.0,0.0,0.0,-2.0137,0.0,0.0,0.0,-0.7062,0.0,0.0,0.0,0.0,0.0,0.0,0.0,2.5065,0.0,2.3979,2.3082,2.0852,0.0,1.658,1.5811,1.4816,1.3598,1.2808,1.1775,1.066,1.138,1.2272,1.2976,0.9373,0.7907,0.7826,0.7031,0.6673,0.6548,0.6121,0.59,0.5756,0.0,0.0,0.0,0.0,0.0,0.0,0.0,-0.9646,-0.8777,-0.7089,-0.7002,-0.6756,-0.5956,-0.5049,-0.4519,-0.4519,-0.4519,-0.4519,-0.4519,-0.4577,-0.4555,-0.4555,-0.4947,-0.5197,-0.5299,-0.5232,-0.4934,0.0,0.0,0.0,0.0,0.0,0.0,0.0,0.0,0.5965,0.6099,0.5435,0.5243,0.5325,0.5505,0.5977,0.654,0.6111,0.6032,0.5977,0.4182,0.3334,0.2788,0.0693,-0.0789,-0.207,-0.3725,-0.4765,-0.5749,-0.7597,-0.9446,-1.0966,-1.1634,-1.2891,-1.3986,-1.3946,-1.4537,-1.5176,-1.5451,-1.6138,-1.6786,-1.7055,-1.7936,-1.8708,-1.8771,-1.9298,-1.9639,0.0,0.0,0.0,0.0,0.0,0.0,0.0,0.0,-1.5823,0.0,0.0,0.2797,0.0,0.0,0.0,0.0,0.0,0.0,2.6712,0.0,2.4245,2.331,2.1816,1.9606,1.6775,1.6247,1.5211,1.3748,1.2813,1.1652,1.0394,1.019,1.0658,1.1416,0.8929,0.8376,0.8988,0.7823,0.7377,0.7349,0.7132,0.7022,0.6796,-1.2476,0.0,-1.1428,0.0,-1.0208,-0.996,-0.9276,-0.911,-0.8619,-0.7323,-0.7009,-0.6689,-0.605,-0.5019,-0.4416,-0.4515,-0.4519,-0.4519,-0.4519,-0.4519,-0.4519,-0.4519,-0.4294,0.0,-0.4273,-0.3579,-0.3069,-0.283,-0.093,0.0,0.0,0.0,0.0,0.0,0.5024,0.5067,0.5631,0.4829,0.4964,0.5728,0.5697,0.6335,0.7228,0.6627,0.6548,0.6507,0.4705,0.3933,0.3364,0.1031,-0.0544,-0.1803,-0.3306,-0.4703,-0.6114,-0.7631,-0.9741,-1.1693,-1.2248,-1.3234,-1.4181,-1.4596,-1.4982,-1.5315,-1.5419,-1.6025,-1.6653,-1.6849,-1.7539,-1.8194,-1.8388,-1.8957,-1.939,-1.939,0.0,0.0,0.0,0.0,0.0,0.0,-1.2428,-1.1126,-0.8799,-0.0761,0.0,0.0,0.0,0.0,0.0,0.0,0.0,0.0,0.0,0.0,0.0,2.2466,2.0237,1.6821,1.6571,1.5531,1.3777,1.2755,1.1677,1.0569,0.9918,0.986,1.0161,0.8971,0.8819,0.9215,0.831,0.7845,0.7689,0.7592,0.7563,0.7386,-1.2338,-1.1575,-1.1005,-1.0746,-0.9883,-0.9196,-0.9183,-0.8998,-0.8711,-0.8417,-0.724,-0.5925,-0.4663,-0.4334,-0.4307,-0.4505,-0.4519,-0.4519,-0.4519,-0.4519,-0.4519,0.0,0.0,-0.3289,-0.3289,-0.2621,-0.1505,-0.0056,0.0,0.0,0.3816,0.0,0.4972,0.4694,0.4691,0.4609,0.4522,0.4519,0.4897,0.5529,0.602,0.6662,0.7261,0.6939,0.6731,0.643,0.5135,0.4183,0.3234,0.1461,0.0089,-0.1328,-0.3658,-0.5053,-0.6204,-0.8121,-1.0349,-1.2224,-1.2354,-1.3424,-1.4596,-1.4982,-1.5448,-1.5885,-1.6219,-1.6301,-1.6502,-1.714,-1.6985,-1.6936,-1.7578,-1.8268,-1.8717,-1.8717,0.0,0.0,0.0,0.0,0.0,0.0,-0.617,-0.4805,-0.4792,0.0,0.0,0.0,0.0,0.0,0.0,0.0,0.0,2.6359,2.6105,0.0,2.3625,2.2534,2.0174,1.6595,1.6613,1.5541,1.3567,1.2695,1.1857,1.1113,1.1286,1.0814,0.9907,0.9891,0.9111,0.7924,0.8045,0.7745,0.7191,0.7058,0.7088,0.7247,-1.2564,-1.156,-1.0715,-1.0196,-0.9306,-0.8651,-0.8651,-0.8397,-0.782,-0.6887,-0.6283,-0.545,-0.4295,-0.4121,-0.4111,0.0,-0.4256,-0.4317,0.0,-0.4409,-0.4294,-0.379,-0.3511,-0.3121,-0.2565,-0.1336,-0.0445,0.0,0.0,0.0,0.0,0.469,0.4724,0.4591,0.4591,0.4563,0.4515,0.5003,0.5601,0.6342,0.7149,0.7802,0.8242,0.833,0.8019,0.7375,0.6576,0.5609,0.4465,0.27,0.1062,-0.062,-0.2607,-0.4448,-0.618,-0.7638,-0.9973,-1.2166,-1.2677,-1.3847,-1.5059,-1.5739,-1.6037,-1.6163,-1.6274,-1.6108,-1.6015,-1.6228,-1.6518,-1.6771,-1.698,-1.7921,-1.8553,-1.8104,-1.7934,0.0,0.0,0.0,0.0,0.0,-0.0375,0.147,0.0,0.8585,0.0,0.0,0.0,0.0,0.0,0.0,0.0,0.0,2.6217,0.0,2.3606,2.2553,2.0237,1.6789,1.6571,1.5406,1.3462,1.3192,1.2922,1.2651,1.2215,1.1645,1.0975,1.0031,0.9189,0.846,0.7901,0.8242,0.8884,0.7667,0.7343,0.756,-1.2799,-1.1586,-1.0524,-1.0124,-0.9026,-0.8161,-0.795,-0.7753,-0.7205,-0.6049,-0.5582,-0.5102,-0.4219,-0.3948,0.0,-0.4012,-0.4056,-0.403,-0.3819,-0.3899,-0.3687,-0.2952,-0.2676,-0.2286,-0.1786,0.0,0.0,0.0835,0.2899,0.4311,0.4997,0.4716,0.4889,0.5281,0.5003,0.5007,0.5336,0.571,0.6264,0.6918,0.7616,0.8248,0.8821,0.8931,0.874,0.8333,0.7363,0.6693,0.5913,0.3752,0.2115,0.0614,-0.141,-0.3567,-0.5663,-0.7328,-0.9868,-1.2259,-1.2871,-1.4028,-1.53,-1.6093,-1.6301,-1.6367,-1.6617,-1.6512,-1.6351,-1.6351,-1.6635,-1.6887,-1.6887,-1.7773,-1.8393,-1.7959,-1.6417,-1.4,-1.0223,0.0,0.0,0.0,0.0,0.0,0.0,1.3239,0.0,0.0,0.0,0.0,0.0,0.0,0.0,2.745,2.5806,0.0,2.312,2.2316,2.032,1.711,1.6142,1.4882,1.3396,1.3294,1.3243,1.3209,1.2553,1.2112,1.1727,1.0503,0.9762,0.9325,0.8677,0.8627,0.8886,0.824,0.7878,0.7697,-1.3055,-1.1547,0.0,0.0,-0.8989,0.0,-0.7164,-0.705,-0.6713,-0.5728,-0.5194,-0.4716,-0.432,-0.3832,-0.3644,-0.3817,0.0,0.0,0.0,-0.3018,-0.2743,-0.2164,-0.1449,-0.1062,-0.095,0.0447,0.1563,0.2452,0.3843,0.4897,0.5542,0.4952,0.5336,0.6588,0.5869,0.5973,0.6617,0.6671,0.696,0.7428,0.7717,0.8377,0.9155,0.8996,0.9164,0.9288,0.7796,0.7507,0.7437,0.4647,0.332,0.2378,-0.0044,-0.2328,-0.4638,-0.7128,-0.9973,-1.2448,-1.2973,-1.4156,-1.5389,-1.6188,-1.6432,-1.6586,-1.7239,-1.7351,-1.7344,-1.7344,-1.7306,-1.7226,-1.7221,-1.7756,-1.8052,-1.7519,-1.4056,-1.0225,-0.6716,0.0,0.0,0.0,0.0,0.0,0.0,1.584,1.8043,0.0,0.0,0.0,0.0,0.0,2.8743,2.5503,2.501,2.4006,2.2319,2.1943,2.0298,1.7365,1.5434,1.4107,1.3363,1.3121,1.2995,1.2942,1.2431,1.2195,1.2061,1.1157,1.0587,1.0285,0.9945,0.8861,0.7619,0.8719,0.855,0.7739,0.0,0.0,-0.9955,-1.0331,-0.8842,-0.7393,-0.6792,-0.6535,-0.6024,-0.4856,-0.4586,-0.4168,-0.3205,-0.2984,-0.2742,-0.2338,-0.2835,-0.2896,-0.2291,-0.2366,-0.2073,-0.1395,-0.1213,-0.0559,0.0559,0.1451,0.2837,0.4714,0.5105,0.5655,0.6312,0.6154,0.6263,0.6588,0.6421,0.6531,0.6927,0.7497,0.8111,0.8812,0.9621,1.0326,1.0853,1.1002,1.0864,1.0482,1.0118,0.9265,0.8085,0.6524,0.535,0.4055,0.1309,-0.0561,-0.2558,-0.6906,-0.9808,-1.2059,-1.3947,-1.5213,-1.6227,-1.7142,-1.7596,-1.7855,-1.8031,-1.7996,-1.7907,-1.7907,-1.7806,-1.7674,-1.7475,-1.7888,-1.6413,-1.0736,-0.8692,-0.5174,0.2481,0.6362,0.0,0.0,1.4192,1.563,1.6525,1.8229,1.9999,0.0,0.0,0.0,0.0,2.7563,2.7535,2.5478,2.5022,2.4006,2.2319,2.1758,1.9776,1.6343,1.5263,1.4161,1.3085,1.3031,1.2887,1.2687,1.2553,1.2097,1.1389,1.0935,1.02,0.9369,0.9035,0.8733,0.8454,0.8316,0.8294,0.8252,-1.3078,-1.1172,-0.9603,-0.9848,-0.8446,-0.6999,-0.6157,-0.587,-0.5351,-0.418,-0.4052,-0.3693,-0.2807,-0.2719,-0.2361,-0.1474,-0.2005,-0.2141,-0.1519,-0.1331,-0.0914,-0.0207,0.0161,0.065,0.1386,0.2573,0.4069,0.5836,0.5836,0.6258,0.7036,0.6735,0.7087,0.7892,0.7583,0.7834,0.8537,0.8941,0.9382,0.9926,1.0692,1.1323,1.181,1.1804,1.1972,1.2165,1.1644,1.1159,1.0605,0.9412,0.8552,0.7706,0.5849,0.4269,0.2465,-0.0703,-0.6057,-1.1339,-1.3002,-1.484,-1.6559,-1.759,-1.8287,-1.8681,-1.8586,-1.8512,-1.8412,-1.8185,-1.7886,-1.745,-1.6727,-1.5452,-1.2772,-0.7511,-0.3528,0.1035,0.7223,1.0866,0.0,1.5753,1.6811,1.7776,1.8666,1.9831,2.1114,2.2695,0.0,0.0,2.5745,2.6392,2.6347,2.5479,2.4648,2.3591,2.23,2.0836,1.8732,1.5992,1.5434,1.4483,1.3173,1.2942,1.2741,1.2591,1.2336,1.1938,1.1459,1.1283,1.0704,0.9894,0.9728,0.9296,0.8783,0.8601,0.8377,0.8093,-1.252,-1.0691,-0.9231,-0.9281,-0.7972,-0.6507,-0.5475,-0.5216,-0.4744,-0.3619,-0.3442,-0.317,-0.2359,-0.2271,-0.1827,-0.0581,-0.0981,-0.1087,-0.0658,-0.0142,0.0385,0.0998,0.1655,0.2025,0.2111,0.381,0.5303,0.639,0.6486,0.7025,0.7862,0.7288,0.7896,0.9466,0.8975,0.9386,1.0374,1.048,1.0738,1.1094,1.1627,1.2238,1.2817,1.2516,1.3175,1.4069,1.3123,1.3237,1.37,1.2558,1.2088,1.1835,1.0924,0.9553,0.8075,0.6951,-0.0562,-0.8921,-1.071,-1.3908,-1.6894,-1.7662,-1.8431,-1.8927,-1.8761,-1.8654,-1.8443,-1.7987,-1.7431,-1.6731,-1.5772,-1.1949,-0.7885,-0.4769,0.222,0.8187,1.0821,0.0,1.7305,1.8724,1.9006,1.9417,2.0257,2.1111,2.196,2.2815,2.3899,2.4664,0.0,2.5152,2.5171,2.5079,2.4058,2.3003,2.1929,1.9667,1.7659,1.5938,1.5656,1.4761,1.326,1.2778,1.2514,1.2455,1.2003,1.1805,1.1805,1.1703,1.1347,1.0897,1.0801,0.9995,0.891,0.9072,0.8577,0.7783,-1.301,-1.0777,-0.8898,-0.924,-0.7631,-0.6087,-0.5389,-0.487,-0.4125,-0.2984,-0.2851,-0.2226,-0.0578,-0.04,0.0089,0.1293,0.1293,0.1074,0.0632,0.07,0.1048,0.1628,0.179,0.2373,0.345,0.5314,0.6612,0.7404,0.7916,0.8508,0.9182,0.9082,0.9228,0.9512,0.9888,1.0232,1.0698,1.1408,1.2275,1.3171,1.3651,1.4452,1.5334,1.5278,1.5606,1.6071,1.5894,1.5758,1.5605,1.4966,1.4479,1.3854,1.1882,1.0914,1.0173,0.8549,0.4516,-0.0823,-0.7196,-1.36,-1.8295,-1.7446,-1.7587,-1.7922,-1.7889,-1.7489,-1.6997,-1.6522,-1.5866,-1.5537,-1.5993,-0.9406,-0.2247,0.2883,1.0557,1.66,1.8681,0.0,1.953,2.0123,2.0895,2.168,2.2364,2.2776,2.3309,2.407,2.4657,2.4767,2.4214,2.4316,2.4,2.3153,2.3374,2.2439,2.0208,1.8911,1.7386,1.5673,1.5399,1.4377,1.2706,1.2396,1.2149,1.1918,1.1848,1.1805,1.1762,1.1256,1.0991,1.0849,1.0273,0.9738,0.9262,0.8976,0.8589,0.8148,-1.246,-1.0419,-0.8635,-0.8524,-0.7215,-0.5873,-0.4957,-0.4295,-0.35,-0.2355,-0.191,-0.1154,0.0311,0.0797,0.1327,0.2222,0.2529,0.2747,0.2791,0.2219,0.2109,0.2698,0.3139,0.4149,0.5833,0.6888,0.7791,0.8408,0.896,0.9433,0.99,1.0123,1.0558,1.1065,1.1499,1.2039,1.2675,1.3403,1.4211,1.4989,1.5346,1.625,1.7263,1.6623,1.7054,1.7948,1.7489,1.7345,1.7353,1.7065,1.6943,1.6683,1.5371,1.4963,1.4804,1.3936,0.7351,-0.0943,-0.6802,-1.2148,-1.5946,-1.5492,-1.5717,-1.5983,-1.5875,-1.5658,-1.5559,-1.5877,-1.4932,-1.336,-1.1053,-0.4792,0.1854,0.7357,1.3601,0.0,0.0,2.0823,2.0997,2.1433,2.224,2.282,2.2996,2.3124,2.3269,2.3471,2.369,2.3664,2.3318,2.3352,2.2934,2.1922,2.1897,2.1007,1.9155,1.8347,1.7267,1.592,1.525,1.4288,1.3115,1.2484,1.2128,1.2018,1.1854,1.1805,1.1747,1.1287,1.1024,1.0849,1.0373,0.9855,0.9343,0.8953,0.8452,0.7952,-1.1704,-1.0031,-0.8456,-0.7762,-0.6603,-0.5432,-0.4339,-0.3453,-0.2524,-0.151,-0.0752,0.0177,0.1371,0.2027,0.2641,0.3274,0.3908,0.4504,0.4952,0.4375,0.4034,0.4101,0.5075,0.6316,0.7979,0.8633,0.9232,0.9692,1.0364,1.0772,1.0994,1.1439,1.2095,1.2876,1.3265,1.3983,1.4964,1.5437,1.6205,1.7132,1.7245,1.813,1.9305,1.8326,1.8684,1.9628,1.8916,1.8696,1.8707,1.8578,1.8573,1.8525,1.804,1.7895,1.7877,1.7671,0.9872,0.0077,-0.5615,-0.998,-1.2908,-1.2991,-1.3561,-1.4122,-1.4226,-1.3959,-1.3628,-1.3233,-1.1652,-0.9065,-0.4728,0.059,0.6213,1.1951,0.0,0.0,0.0,2.1263,2.1562,2.2116,2.2794,2.3157,2.3012,2.3007,2.2944,2.2784,2.2773,2.2654,2.2411,2.2398,2.1884,2.0777,2.0331,1.9592,1.8526,1.7907,1.7132,1.618,1.5284,1.4384,1.3484,1.2861,1.2393,1.2102,1.2042,1.1939,1.1783,1.1378,1.1094,1.0873,1.0458,0.9982,0.947,0.9162,0.8496,0.7711,-1.1222,-0.9739,-0.8341,-0.7238,-0.5658,-0.4326,-0.3676,-0.2167,-0.0843,-0.0222,0.0883,0.2025,0.3184,0.3843,0.4457,0.5038,0.6042,0.6674,0.6715,0.751,0.7356,0.5981,0.7382,0.852,0.9164,1.06,1.1362,1.141,1.2626,1.3238,1.3265,1.3677,1.4004,1.4269,1.4817,1.5706,1.6822,1.6901,1.8206,2.0133,1.979,2.0534,2.1822,2.1546,2.1246,2.0936,2.0676,2.0087,1.9388,1.9062,1.8558,1.8001,1.7643,1.7037,1.637,1.5929,1.3076,0.8095,-0.1037,-0.7054,-1.0667,-1.0443,-1.1485,-1.2818,-1.3887,-1.2998,-1.0695,-0.6173,-0.3443,-0.1137,0.1426,0.6246,1.1985,1.8607,0.0,0.0,2.1244,2.1025,2.0971,2.1751,2.2154,2.2479,2.2717,2.2732,2.2796,2.2961,2.2986,2.2545,2.1545,2.1502,2.0842,1.9394,1.9077,1.8699,1.8229,1.7631,1.6957,1.618,1.5566,1.4528,1.3248,1.3537,1.2996,1.1856,1.2471,1.2358,1.1747,1.1164,1.092,1.0825,1.0198,0.989,0.987,0.9843,0.8921,0.7739,-1.1559,-0.9625,-0.7762,-0.6632,-0.5005,-0.3537,-0.2571,-0.0658,0.1047,0.2055,0.347,0.4834,0.5984,0.6585,0.7175,0.7739,0.8902,0.9648,0.9648,1.0744,1.0509,0.8543,0.9922,1.1017,1.1629,1.2768,1.3462,1.3708,1.4524,1.4962,1.5067,1.5493,1.5911,1.6282,1.6737,1.7314,1.7966,1.8388,1.9428,2.0699,2.0083,2.0779,2.2031,2.0837,2.0463,2.0532,1.9941,1.9511,1.9095,1.8499,1.8251,1.8009,1.706,1.6648,1.6146,1.409,1.2475,1.0267,0.5199,0.0699,-0.3001,-0.4894,-0.5849,-0.638,-0.6794,-0.5925,-0.4185,-0.1193,0.1302,0.4231,0.8514,1.2694,1.6099,1.7922,0.0,1.9774,2.0841,2.0835,2.0952,2.155,2.2162,2.2427,2.2114,2.2085,2.1883,2.1425,2.1262,2.0983,2.0495,2.0118,1.9579,1.886,1.8571,1.8243,1.7902,1.7287,1.6747,1.6263,1.5417,1.447,1.3552,1.329,1.2673,1.1805,1.2059,1.2045,1.1753,1.1266,1.1014,1.0834,1.0164,0.9909,0.9888,0.9889,0.9547,0.8951,-1.1812,-0.9714,-0.7583,-0.6102,-0.4238,-0.2454,-0.0922,0.1427,0.3396,0.4426,0.6212,0.7661,0.847,0.9357,1.0051,1.0421,1.1769,1.2563,1.252,1.3653,1.3516,1.1726,1.2704,1.3603,1.4249,1.4984,1.5502,1.5796,1.6408,1.6764,1.6872,1.7258,1.768,1.8068,1.8281,1.8723,1.9332,1.9469,2.0247,2.1308,2.0456,2.094,2.2004,2.0518,2.0005,1.9982,1.9259,1.8748,1.8341,1.7731,1.7599,1.749,1.6475,1.5988,1.5371,1.3317,1.2072,1.0978,0.9016,0.6406,0.3563,0.0682,-0.0043,-0.0043,-0.0043,0.1008,0.2465,0.4024,0.6271,0.9188,1.3103,1.5914,1.7499,1.7112,1.8103,1.9081,1.9564,1.9973,2.0354,2.0713,2.1461,2.1776,2.1326,2.1029,2.0697,2.0328,1.9664,1.9284,1.9306,1.9118,1.8825,1.8489,1.829,1.7984,1.7574,1.706,1.6633,1.6285,1.5485,1.4648,1.3795,1.354,1.282,1.183,1.2082,1.2039,1.1803,1.1969,1.1845,1.1542,1.0748,1.0653,1.089,1.0408,1.0068,0.9641,-1.1872,-1.0022,-0.7967,-0.5603,-0.3272,-0.0986,0.1382,0.4194,0.622,0.6767,0.8945,1.0421,1.0421,1.2008,1.3023,1.3037,1.4428,1.5284,1.5223,1.6159,1.6341,1.5458,1.5789,1.6261,1.6786,1.7276,1.7503,1.7532,1.8315,1.8715,1.8709,1.8989,1.9254,1.9487,1.9294,1.9909,2.1015,2.003,2.0688,2.2283,2.121,2.1301,2.1985,2.117,2.0336,1.9511,1.8977,1.8118,1.7157,1.6804,1.6517,1.6246,1.5898,1.4864,1.3808,1.3808,1.2472,1.0761,0.9607,0.8989,0.8107,0.5884,0.531,0.531,0.531,0.6911,0.8708,0.9692,1.1968,1.3958,1.4496,1.5098,1.5923,1.7188,1.7395,1.7363,1.7318,1.8277,1.9004,1.9072,1.9788,2.0299,2.0375,1.9521,1.9281,2.0038,1.8498,1.7662,1.7974,1.8629,1.8752,1.8208,1.8187,1.7915,1.7296,1.6952,1.6633,1.6301,1.5955,1.5109,1.384,1.4498,1.3712,1.1864,1.2706,1.2603,1.1883,1.3243,1.3571,1.3081,1.2027,1.2273,1.3028,1.1557,1.0403,0.9536,-1.3592,-1.0538,-0.7347,-0.4784,-0.132,0.213,0.4982,0.7648,0.9752,1.0979,1.2622,1.3862,1.4358,1.4911,1.5359,1.5637,1.6601,1.7272,1.743,1.7898,1.7962,1.7525,1.7388,1.7633,1.8259,1.8543,1.8827,1.9119,1.926,1.9372,1.9465,1.9549,1.9629,1.9706,1.9702,1.9885,2.0161,1.9715,2.0174,2.1104,1.9897,1.981,2.0279,1.9109,1.8392,1.7918,1.7543,1.7182,1.6885,1.6523,1.6157,1.5764,1.5419,1.4831,1.4251,1.3906,1.2982,1.1813,1.0726,1.0299,0.9587,0.7058,0.6409,0.6409,0.6409,0.7773,0.925,1.0072,1.1913,1.3643,1.4496,1.512,1.5783,1.6675,1.6949,1.7137,1.7404,1.773,1.7952,1.7974,1.8183,1.8348,1.8358,1.8101,1.8241,1.8983,1.8831,1.8426,1.7814,1.8199,1.8273,1.7864,1.7893,1.7486,1.6617,1.6977,1.6876,1.6301,1.6191,1.5582,1.4513,1.4707,1.405,1.2721,1.2979,1.2609,1.187,1.2601,1.3024,1.3177,1.2857,1.2922,1.3048,1.1857,1.0729,0.9632,-1.478,-0.9708,-0.4561,-0.1582,0.2592,0.6355,0.8842,1.1107,1.2902,1.398,1.5288,1.6272,1.6691,1.7119,1.7441,1.7572,1.8072,1.8486,1.8651,1.8792,1.8954,1.9113,1.8923,1.8867,1.8982,1.9388,1.9587,1.9565,1.9776,1.9767,1.9568,1.9552,1.9511,1.9523,1.9478,1.9444,1.9371,1.9078,1.9225,1.9587,1.857,1.8383,1.8603,1.7536,1.7069,1.6876,1.6528,1.6394,1.6367,1.6163,1.5781,1.533,1.4984,1.4442,1.3933,1.3868,1.3076,1.2126,1.1645,1.1413,1.087,0.9247,0.8487,0.8126,0.7947,0.925,1.0605,1.0967,1.2498,1.3948,1.4437,1.4754,1.5134,1.5651,1.5762,1.5921,1.6225,1.667,1.6943,1.6943,1.725,1.7451,1.7456,1.71,1.6876,1.6862,1.7903,1.8064,1.7044,1.7776,1.8065,1.7766,1.7647,1.732,1.6696,1.6977,1.6773,1.608,1.608,1.5634,1.4797,1.4695,1.4166,1.3359,1.2807,1.2485,1.2384,1.2664,1.2948,1.3218,1.3213,1.3209,1.3088,1.2228,1.1241,1.015,-1.4371,-0.7391,-0.0385,0.3014,0.7384,1.0979,1.2655,1.4319,1.5573,1.5982,1.7043,1.7766,1.7779,1.8592,1.9042,1.8754,1.8884,1.8995,1.9027,1.8965,1.9263,2.0047,2.001,1.9709,1.9081,1.9839,1.9918,1.9319,1.9899,1.9843,1.9194,1.9093,1.9063,1.905,1.8861,1.8769,1.8716,1.8251,1.8045,1.7983,1.7392,1.7157,1.7101,1.6523,1.6301,1.6246,1.587,1.577,1.5799,1.5712,1.5418,1.5013,1.4596,1.3868,1.331,1.3776,1.2963,1.2029,1.2437,1.2246,1.192,1.192,1.1169,1.029,0.9789,1.1052,1.2285,1.2095,1.3344,1.4434,1.4163,1.4031,1.4029,1.4238,1.4136,1.4093,1.4283,1.5248,1.5942,1.5942,1.6649,1.7131,1.7121,1.6394,1.5489,1.4459,1.6348,1.7099,1.6003,1.7369,1.8018,1.7704,1.7479,1.7296,1.7207,1.6942,1.6474,1.5856,1.5856,1.5512,1.4872,1.4644,1.4322,1.3913,1.2686,1.2535,1.3192,1.3214,1.3205,1.3211,1.3179,1.3198,1.3135,1.2584,1.1856,1.0989,-0.5928,-0.176,0.2087,0.4744,0.8635,1.2244,1.4809,1.5797,1.662,1.7695,1.8089,1.8283,1.8384,1.8656,1.8647,1.8284,1.8608,1.8761,1.856,1.845,1.8583,1.9085,1.8599,1.8493,1.8851,1.9829,2.0291,2.0146,1.9578,1.9195,1.9039,1.8806,1.8699,1.8699,1.8645,1.8495,1.8231,1.7937,1.7636,1.7369,1.7028,1.6885,1.6834,1.6448,1.6301,1.6219,1.5492,1.5477,1.5712,1.5013,1.4907,1.4968,1.4246,1.4103,1.4154,1.3954,1.3433,1.2908,1.3012,1.2978,1.2883,1.2822,1.2936,1.2854,1.1951,1.2261,1.2613,1.2372,1.2708,1.2966,1.2704,1.2808,1.2992,1.32,1.3346,1.3534,1.3675,1.4216,1.4611,1.4611,1.4913,1.5076,1.4904,1.5695,1.6092,1.579,1.7166,1.7558,1.6424,1.733,1.7618,1.7043,1.7455,1.7296,1.6512,1.6712,1.6581,1.6191,1.625,1.6022,1.5589,1.5507,1.5462,1.5358,1.5056,1.4282,1.3194,1.32,1.3195,1.3204,1.322,1.3198,1.3135,1.2584,1.2264,1.1856,-0.1956,0.3769,0.8513,0.9772,1.2472,1.4931,1.6303,1.6942,1.748,1.8042,1.8114,1.8141,1.82,1.819,1.8181,1.8156,1.8278,1.8402,1.8575,1.8529,1.8724,1.9302,1.8983,1.914,1.9826,2.0197,2.0117,1.9631,1.9169,1.9018,1.9168,1.8217,1.8024,1.8476,1.7968,1.7625,1.7449,1.7158,1.6937,1.6735,1.6432,1.6328,1.6285,1.6136,1.6052,1.5968,1.5344,1.5134,1.5074,1.4438,1.4342,1.4406,1.3769,1.3702,1.3835,1.3648,1.3391,1.3198,1.3198,1.3198,1.3254,1.3416,1.3696,1.3742,1.3209,1.325,1.3296,1.2858,1.2722,1.2538,1.2082,1.2231,1.2455,1.2559,1.2985,1.3328,1.3392,1.3777,1.4051,1.4051,1.4149,1.4306,1.4556,1.5513,1.6081,1.6046,1.6798,1.7067,1.6636,1.7216,1.7479,1.7288,1.7455,1.7224,1.6554,1.6554,1.6394,1.6052,1.6111,1.5998,1.5814,1.5802,1.5813,1.5763,1.4924,1.4026,1.3192,1.3192,1.32,1.3198,1.3198,1.3198,1.3173,1.2885,1.2353,1.1604,0.105,0.8388,1.4207,1.4254,1.5751,1.6929,1.6821,1.7307,1.76,1.7429,1.7415,1.7393,1.7332,1.7263,1.7322,1.769,1.7691,1.794,1.847,1.8608,1.8951,1.9688,1.972,2.0036,2.0748,2.0398,1.9776,1.8881,1.8924,1.8972,1.9012,1.7615,1.7387,1.8084,1.72,1.6763,1.6686,1.6421,1.6274,1.6191,1.5898,1.5799,1.5799,1.5712,1.5668,1.5595,1.5074,1.4627,1.4246,1.4,1.3901,1.3835,1.3357,1.3267,1.3301,1.3232,1.3198,1.3198,1.3198,1.3267,1.3425,1.3901,1.4,1.4006,1.4017,1.4054,1.394,1.3404,1.3045,1.2606,1.1925,1.1982,1.2128,1.2128,1.2727,1.3176,1.3176,1.3569,1.3909,1.405,1.4159,1.4498,1.5188,1.5677,1.5974,1.6035,1.6309,1.6515,1.6625,1.7169,1.7524,1.7612,1.7524,1.7256,1.6789,1.6573,1.6261,1.5786,1.5786,1.5786,1.5814,1.5816,1.5628,1.5301,1.3822,1.3192,1.3198,1.3198,1.3198,1.3198,1.3198,1.3198,1.3198,1.3198,1.2452,1.1387,0.7321,1.0213,1.2201,1.2509,1.378,1.4819,1.5076,1.5601,1.591,1.5829,1.5863,1.5783,1.5416,1.5511,1.5627,1.5675,1.6607,1.7231,1.7301,1.7763,1.8302,1.9016,1.8937,1.9174,1.9874,1.9818,1.9615,1.931,1.9198,1.8625,1.7577,1.7642,1.7412,1.7011,1.6863,1.6633,1.6367,1.6328,1.6136,1.5856,1.5827,1.5799,1.577,1.5359,1.5121,1.4957,1.4296,1.3769,1.3425,1.3769,1.3901,1.3835,1.3357,1.3493,1.3735,1.3323,1.3198,1.3198,1.3198,1.348,1.3901,1.431,1.4406,1.4501,1.4845,1.4484,1.4038,1.376,1.3232,1.2606,1.1925,1.1826,1.1854,1.1854,1.2336,1.2689,1.2689,1.3227,1.3908,1.4604,1.5245,1.5811,1.6258,1.6213,1.6295,1.6653,1.7235,1.7231,1.6391,1.75,1.7795,1.6959,1.772,1.7727,1.6805,1.7042,1.6711,1.5798,1.5798,1.5817,1.5785,1.5812,1.4977,1.356,1.3293,1.3207,1.3198,1.3198,1.3198,1.3198,1.3198,1.3198,1.3198,1.3198,1.3069,1.2785,0.816,0.9718,1.102,1.1458,1.27,1.3697,1.3837,1.4488,1.4957,1.4959,1.4988,1.4911,1.4741,1.5091,1.5572,1.6244,1.678,1.727,1.7639,1.7897,1.8138,1.8444,1.8394,1.8493,1.8803,1.8746,1.8464,1.8004,1.8251,1.822,1.7896,1.7078,1.6837,1.7105,1.6511,1.6163,1.6011,1.6011,1.5926,1.5799,1.5799,1.5799,1.577,1.558,1.5459,1.5375,1.5243,1.4498,1.3654,1.4204,1.4166,1.3835,1.3357,1.3323,1.3459,1.3267,1.3198,1.3198,1.3198,1.3547,1.3934,1.4117,1.4149,1.4342,1.4968,1.4527,1.3855,1.3287,1.2653,1.2047,1.1607,1.1512,1.1579,1.1768,1.2256,1.261,1.261,1.3456,1.4313,1.4893,1.5614,1.6058,1.6046,1.667,1.7175,1.7364,1.778,1.7916,1.7691,1.7903,1.7985,1.7928,1.7808,1.7698,1.7587,1.7397,1.703,1.6518,1.702,1.6734,1.5748,1.4782,1.4612,1.5006,1.4406,1.4241,1.4384,1.3993,1.3806,1.3768,1.3358,1.3198,1.3198,1.3198,1.3032,1.2761]}]]